[[{"header":{"parameterUnit":"m.s-1","parameterCategory":1,"la1":31.0,"la2":29.5877,"lo1":-88.7671,"lo2":-86.6584,"dy":0.0162,"dx":0.0185,"nx":115,"ny":88,"refTime":"2024-07-02T18:00:00:Z","depth":0,"parameterNumber":2,"parameterNumberName":"U-component_of_WINDS"},"data":[0.0,0.0,0.0,0.0,0.0,0.0,0.0,0.0,0.0,0.0,0.0,0.0,0.0,0.0,0.0,0.0,0.0,0.0,0.0,0.0,0.0,0.0,0.0,0.0,0.0,0.0,0.0,0.0,0.0,0.0,0.0,0.0,0.0,0.0,0.0,0.0,0.0,0.0,0.0,0.0,0.0,0.0,0.0,0.0,0.0,0.0,0.0,0.0,0.0,0.0,0.0,0.0,0.0,0.0,0.0,0.0,0.0,0.0,0.0,0.0,0.0,0.0,0.0,0.0,0.0,0.0,0.0,0.0,0.0,0.0,0.0,0.0,0.0,0.0,0.0,0.0,0.0,0.0,0.0,0.0,0.0,0.0,0.0,0.0,0.0,0.0,0.0,0.0,0.0,0.0,0.0,0.0,0.0,0.0,0.0,0.0,0.0,0.0,0.0,0.0,0.0,0.0,0.0,0.0,0.0,0.0,0.0,0.0,0.0,0.0,0.0,0.0,0.0,0.0,0.0,0.0,0.0,0.0,0.0,0.0,0.0,0.0,0.0,0.0,0.0,0.0,0.0,0.0,0.0,0.0,0.0,0.0,0.0,0.0,0.0,0.0,0.0,0.0,0.0,0.0,0.0,0.0,0.0,0.0,0.0,0.0,0.0,0.0,0.0,0.0,0.0,0.0,0.0,0.0,0.0,0.0,0.0,0.0,0.0,0.0,0.0,0.0,0.0,0.0,0.0,0.0,0.0,0.0,0.0,0.0,0.0,0.0,0.0,0.0,0.0,0.0,0.0,0.0,0.0,0.0,0.0,0.0,0.0,0.0,0.0,0.0,0.0,0.0,0.0,0.0,0.0,0.0,0.0,0.0,0.0,0.0,0.0,0.0,0.0,0.0,0.0,0.0,0.0,0.0,0.0,0.0,0.0,0.0,0.0,0.0,0.0,0.0,0.0,0.0,0.0,0.0,0.0,0.0,0.0,0.0,0.0,0.0,0.0,0.0,0.0,0.0,0.0,0.0,0.0,0.0,0.0,0.0,0.0,0.0,0.0,0.0,0.0,0.0,0.0,0.0,0.0,0.0,0.0,0.0,0.0,0.0,0.0,0.0,0.0,0.0,0.0,0.0,0.0,0.0,0.0,0.0,0.0,0.0,0.0,0.0,0.0,0.0,0.0,0.0,0.0,0.0,0.0,0.0,0.0,0.0,0.0,0.0,0.0,0.0,0.0,0.0,0.0,0.0,0.0,0.0,0.0,0.0,0.0,0.0,0.0,0.0,0.0,0.0,0.0,0.0,0.0,0.0,0.0,0.0,0.0,0.0,0.0,0.0,0.0,0.0,0.0,0.0,0.0,0.0,0.0,0.0,0.0,0.0,0.0,0.0,0.0,0.0,0.0,0.0,0.0,0.0,0.0,0.0,0.0,0.0,0.0,0.0,0.0,0.0,0.0,0.0,0.0,0.0,0.0,0.0,0.0,0.0,0.0,0.0,0.0,0.0,0.0,0.0,0.0,0.0,0.0,0.0,0.0,0.0,0.0,0.0,0.0,0.0,0.0,0.0,0.0,0.0,0.0,0.0,0.0,0.0,0.0,0.0,0.0,0.0,0.0,0.0,0.0,0.0,0.0,0.0,0.0,0.0,0.0,0.0,0.0,0.0,0.0,0.0,0.0,0.0,0.0,0.0,0.0,0.0,0.0,0.0,0.0,0.0,0.0,0.0,0.0,0.0,0.0,0.0,0.0,0.0,0.0,0.0,0.0,0.0,0.0,0.0,0.0,0.0,0.0,0.0,0.0,0.0,0.0,0.0,0.0,0.0,0.0,0.0,0.0,0.0,0.0,0.0,0.0,0.0,0.0,0.0,0.0,0.0,0.0,0.0,0.0,0.0,0.0,0.0,0.0,0.0,0.0,0.0,0.0,0.0,0.0,0.0,0.0,0.0,0.0,0.0,0.0,0.0,0.0,0.0,0.0,0.0,0.0,0.0,0.0,0.0,0.0,0.0,0.0,0.0,0.0,0.0,0.0,0.0,0.0,0.0,0.0,0.0,0.0,0.0,0.0,0.0,0.0,0.0,0.0,0.0,0.0,0.0,0.0,0.0,0.0,0.0,0.0,0.0,0.0,0.0,0.0,0.0,0.0,0.0,0.0,0.0,0.0,0.0,0.0,0.0,0.0,0.0,0.0,0.0,0.0,0.0,0.0,0.0,0.0,0.0,0.0,0.0,0.0,0.0,0.0,0.0,0.0,0.0,0.0,0.0,0.0,0.0,0.0,0.0,0.0,0.0,0.0,0.0,0.0,0.0,0.0,0.0,0.0,0.0,0.0,0.0,0.0,0.0,0.0,0.0,0.0,0.0,0.0,0.0,0.0,0.0,0.0,0.0,0.0,0.0,0.0,0.0,0.0,0.0,0.0,0.0,0.0,0.0,0.0,0.0,0.0,0.0,0.0,0.0,0.0,0.0,0.0,0.0,0.0,0.0,0.0,0.0,0.0,0.0,0.0,0.0,0.0,0.0,0.0,0.0,0.0,0.0,0.0,0.0,0.0,0.0,0.0,0.0,0.0,0.0,0.0,0.0,0.0,0.0,0.0,0.0,0.0,0.0,0.0,0.0,0.0,0.0,0.0,0.0,0.0,0.0,0.0,0.0,0.0,0.0,0.0,0.0,0.0,0.0,0.0,0.0,0.0,0.0,0.0,0.0,0.0,0.0,0.0,0.0,0.0,0.0,0.0,0.0,0.0,0.0,0.0,0.0,0.0,0.0,0.0,0.0,0.0,0.0,0.0,0.0,0.0,0.0,0.0,0.0,0.0,0.0,0.0,0.0,0.0,0.0,0.0,0.0,0.0,0.0,0.0,0.0,0.0,0.0,0.0,0.0,0.0,0.0,0.0,0.0,0.0,0.0,0.0,0.0,0.0,0.0,0.0,0.0,0.0,0.0,0.0,0.0,0.0,0.0,0.0,0.0,0.0,0.0,0.0,0.0,0.0,0.0,0.0,0.0,0.0,0.0,0.0,0.0,0.0,0.0,0.0,0.0,0.0,0.0,0.0,0.0,0.0,0.0,0.0,0.0,0.0,0.0,0.0,0.0,0.0,0.0,0.0,0.0,0.0,0.0,0.0,0.0,0.0,0.0,0.0,0.0,0.0,0.0,0.0,0.0,0.0,0.0,0.0,0.0,0.0,0.0,0.0,0.0,0.0,0.0,0.0,0.0,0.0,0.0,0.0,0.0,0.0,0.0,0.0,0.0,0.0,0.0,0.0,0.0,0.0,0.0,0.0,0.0,0.0,0.0,0.0,0.0,0.0,0.0,0.0,0.0,0.0,0.0,0.0,0.0,0.0,0.0,0.0,0.0,0.0,0.0,0.0,0.0,0.0,0.0,0.0,0.0,0.0,0.0,0.0,0.0,0.0,0.0,0.0,0.0,0.0,0.0,0.0,0.0,0.0,0.0,0.0,0.0,0.0,0.0,0.0,0.0,0.0,0.0,0.0,0.0,0.0,0.0,0.0,0.0,0.0,0.0,0.0,0.0,0.0,0.0,0.0,0.0,0.0,0.0,0.0,0.0,0.0,0.0,0.0,0.0,0.0,0.0,0.0,0.0,0.0,0.0,0.0,0.0,0.0,0.0,0.0,0.0,0.0,0.0,0.0,0.0,0.0,0.0,0.0,0.0,0.0,0.0,0.0,0.0,0.0,0.0,0.0,0.0,0.0,0.0,0.0,0.0,0.0,0.0,0.0,0.0,0.0,0.0,0.0,0.0,0.0,0.0,0.0,0.0,0.0,0.0,0.0,0.0,0.0,0.0,0.0,0.0,0.0,0.0,0.0,0.0,0.0,0.0,0.0,0.0,0.0,0.0,0.0,0.0,0.0,0.0,0.0,0.0,0.0,0.0,0.0,0.0,0.0,0.0,0.0,0.0,0.0,0.0,0.0,0.0,0.0,0.0,0.0,0.0,0.0,0.0,0.0,0.0,0.0,0.0,0.0,0.0,0.0,0.0,0.0,0.0,0.0,0.0,0.0,0.0,0.0,0.0,0.0,0.0,0.0,0.0,0.0,0.0,0.0,0.0,0.0,0.0,0.0,0.0,0.0,0.0,0.0,0.0,0.0,0.0,0.0,0.0,0.0,0.0,0.0,0.0,0.0,0.0,0.0,0.0,0.0,0.0,0.0,0.0,0.0,0.0,0.0,0.0,0.0,0.0,0.0,0.0,0.0,0.0,0.0,0.0,0.0,0.0,0.0,0.0,0.0,0.0,0.0,0.0,0.0,0.0,0.0,0.0,-1.0281,0.0,0.0,0.0,0.0,0.0,0.0,0.0,0.0,0.0,0.0,0.0,0.0,0.0,0.0,0.0,0.0,0.0,0.0,0.0,0.0,0.0,0.0,0.0,0.0,0.0,0.0,0.0,0.0,0.0,0.0,0.0,0.0,0.0,0.0,0.0,0.0,0.0,0.0,0.0,0.0,0.0,0.0,0.0,0.0,0.0,0.0,0.0,0.0,0.0,0.0,0.0,0.0,0.0,0.0,0.0,0.0,0.0,0.0,0.0,0.0,0.0,0.0,0.0,0.0,0.0,0.0,0.0,0.0,0.0,0.0,0.0,0.0,0.0,0.0,0.0,0.0,0.0,0.0,0.0,0.0,0.0,0.0,0.0,0.0,0.0,0.0,0.0,0.0,0.0,0.0,0.0,0.0,0.0,0.0,0.0,0.0,0.0,0.0,0.0,0.0,0.0,0.0,0.0,0.0,0.0,0.0,0.0,0.0,0.0,0.0,-1.0312,-1.0312,-1.0312,-1.0312,-1.0305,0.0,0.0,0.0,0.0,0.0,0.0,0.0,0.0,0.0,0.0,0.0,0.0,0.0,0.0,0.0,0.0,0.0,0.0,0.0,0.0,0.0,0.0,0.0,0.0,0.0,0.0,0.0,0.0,0.0,0.0,0.0,0.0,0.0,0.0,0.0,0.0,0.0,0.0,0.0,0.0,0.0,0.0,0.0,0.0,0.0,0.0,0.0,0.0,0.0,0.0,0.0,0.0,0.0,0.0,0.0,0.0,0.0,0.0,0.0,0.0,0.0,0.0,0.0,0.0,0.0,0.0,0.0,0.0,0.0,0.0,0.0,0.0,0.0,0.0,0.0,0.0,0.0,0.0,0.0,0.0,0.0,0.0,0.0,0.0,0.0,0.0,0.0,0.0,0.0,0.0,0.0,0.0,0.0,0.0,0.0,0.0,0.0,0.0,0.0,0.0,0.0,0.0,0.0,0.0,0.0,0.0,0.0,0.0,0.0,0.0,0.0,0.0,-1.0879,-1.0898,-1.0894,0.0,0.0,0.0,0.0,0.0,0.0,0.0,0.0,0.0,0.0,0.0,0.0,0.0,0.0,0.0,0.0,0.0,0.0,0.0,0.0,0.0,0.0,0.0,0.0,0.0,0.0,0.0,0.0,0.0,0.0,0.0,0.0,0.0,0.0,0.0,0.0,0.0,0.0,0.0,0.0,0.0,0.0,0.0,0.0,0.0,0.0,0.0,0.0,0.0,0.0,0.0,0.0,0.0,0.0,0.0,0.0,0.0,0.0,0.0,0.0,0.0,0.0,0.0,0.0,0.0,0.0,0.0,0.0,0.0,0.0,0.0,0.0,0.0,0.0,0.0,0.0,0.0,0.0,0.0,0.0,0.0,0.0,0.0,0.0,0.0,0.0,0.0,0.0,0.0,0.0,0.0,0.0,0.0,0.0,0.0,0.0,0.0,0.0,0.0,0.0,0.0,0.0,0.0,0.0,0.0,0.0,0.0,0.0,0.0,0.0,-1.1055,-1.2598,-1.2637,0.0,-1.2676,0.0,0.0,0.0,0.0,0.0,0.0,0.0,0.0,0.0,0.0,0.0,0.0,0.0,0.0,0.0,0.0,0.0,0.0,0.0,0.0,0.0,0.0,0.0,0.0,0.0,0.0,0.0,0.0,0.0,0.0,0.0,0.0,0.0,0.0,0.0,0.0,0.0,0.0,0.0,0.0,0.0,0.0,0.0,0.0,0.0,0.0,0.0,0.0,0.0,0.0,0.0,0.0,0.0,0.0,0.0,0.0,0.0,0.0,0.0,0.0,0.0,0.0,0.0,0.0,0.0,0.0,0.0,0.0,0.0,0.0,0.0,0.0,0.0,0.0,0.0,0.0,0.0,0.0,0.0,0.0,0.0,0.0,0.0,0.0,0.0,0.0,0.0,0.0,0.0,0.0,0.0,0.0,0.0,0.0,0.0,0.0,0.0,0.0,0.0,0.0,0.0,0.0,0.0,0.0,0.0,0.0,0.0,0.0,0.0,0.0,0.0,-1.2891,-1.291,-1.291,0.0,0.0,0.0,0.0,0.0,0.0,0.0,0.0,0.0,0.0,0.0,0.0,0.0,0.0,0.0,0.0,0.0,0.0,0.0,0.0,0.0,0.0,0.0,0.0,0.0,0.0,0.0,0.0,0.0,0.0,0.0,0.0,0.0,0.0,0.0,0.0,0.0,0.0,0.0,0.0,0.0,0.0,0.0,0.0,0.0,0.0,0.0,0.0,0.0,0.0,0.0,0.0,0.0,0.0,0.0,0.0,0.0,0.0,0.0,0.0,0.0,0.0,0.0,0.0,0.0,0.0,0.0,0.0,0.0,0.0,0.0,0.0,0.0,0.0,0.0,0.0,0.0,0.0,0.0,0.0,0.0,0.0,0.0,0.0,0.0,0.0,0.0,0.0,0.0,0.0,0.0,0.0,0.0,0.0,0.0,0.0,0.0,0.0,0.0,0.0,0.0,0.0,0.0,0.0,0.0,0.0,0.0,0.0,0.0,0.0,-1.25,0.0,-1.3574,-1.3574,-1.3379,-1.293,0.0,0.0,0.0,0.0,0.0,0.0,0.0,0.0,0.0,0.0,0.0,0.0,0.0,0.0,0.0,0.0,0.0,0.0,0.0,0.0,0.0,0.0,0.0,0.0,0.0,0.0,0.0,0.0,0.0,0.0,0.0,0.0,0.0,0.0,0.0,0.0,0.0,0.0,0.0,0.0,0.0,0.0,0.0,0.0,0.0,0.0,0.0,0.0,0.0,0.0,0.0,0.0,0.0,0.0,0.0,0.0,0.0,0.0,0.0,0.0,0.0,0.0,0.0,0.0,0.0,0.0,0.0,0.0,0.0,0.0,0.0,0.0,0.0,0.0,0.0,0.0,0.0,0.0,0.0,0.0,0.0,0.0,0.0,0.0,0.0,0.0,0.0,0.0,0.0,0.0,0.0,0.0,0.0,0.0,0.0,0.0,0.0,0.0,0.0,0.0,0.0,0.0,0.0,0.0,0.0,0.0,0.0,0.0,0.0,-1.3652,-1.3672,-1.5234,-1.5273,-1.4531,0.0,0.0,0.0,0.0,0.0,0.0,0.0,0.0,0.0,0.0,0.0,0.0,0.0,0.0,0.0,0.0,0.0,0.0,0.0,0.0,0.0,0.0,0.0,0.0,0.0,0.0,0.0,0.0,0.0,0.0,0.0,0.0,0.0,0.0,0.0,0.0,0.0,0.0,0.0,0.0,0.0,0.0,0.0,0.0,0.0,0.0,0.0,0.0,0.0,0.0,0.0,0.0,0.0,0.0,0.0,0.0,0.0,0.0,0.0,0.0,0.0,0.0,0.0,0.0,0.0,0.0,0.0,0.0,0.0,0.0,0.0,0.0,0.0,0.0,0.0,0.0,0.0,0.0,0.0,0.0,0.0,0.0,0.0,0.0,0.0,0.0,0.0,0.0,0.0,0.0,0.0,0.0,0.0,0.0,0.0,0.0,0.0,0.0,0.0,0.0,0.0,0.0,0.0,0.0,0.0,0.0,0.0,0.0,0.0,-1.2089,-1.2617,-1.4238,0.0,-1.4961,-1.4023,0.0,0.0,0.0,0.0,0.0,0.0,0.0,0.0,0.0,0.0,0.0,0.0,0.0,0.0,0.0,0.0,0.0,0.0,0.0,0.0,0.0,0.0,0.0,0.0,0.0,0.0,0.0,0.0,0.0,0.0,0.0,0.0,0.0,0.0,0.0,0.0,0.0,0.0,0.0,0.0,0.0,0.0,0.0,0.0,0.0,0.0,0.0,0.0,0.0,0.0,0.0,0.0,0.0,0.0,0.0,0.0,0.0,0.0,0.0,0.0,0.0,0.0,0.0,0.0,0.0,0.0,0.0,0.0,0.0,0.0,0.0,0.0,0.0,0.0,0.0,0.0,0.0,0.0,0.0,0.0,0.0,0.0,0.0,0.0,0.0,0.0,0.0,0.0,0.0,0.0,0.0,0.0,0.0,0.0,0.0,0.0,0.0,0.0,0.0,0.0,0.0,0.0,0.0,0.0,0.0,0.0,0.0,0.0,0.0,-1.1953,0.0,-1.5391,0.0,-1.4922,-1.373,0.0,0.0,0.0,0.0,0.0,0.0,0.0,0.0,0.0,0.0,0.0,0.0,0.0,0.0,0.0,0.0,0.0,0.0,0.0,0.0,0.0,0.0,0.0,0.0,0.0,0.0,0.0,0.0,0.0,0.0,0.0,0.0,0.0,0.0,0.0,0.0,0.0,0.0,0.0,0.0,0.0,0.0,0.0,0.0,0.0,0.0,0.0,0.0,0.0,0.0,0.0,0.0,0.0,0.0,0.0,0.0,0.0,0.0,0.0,0.0,0.0,0.0,0.0,0.0,0.0,0.0,0.0,0.0,0.0,0.0,0.0,0.0,0.0,0.0,0.0,0.0,0.0,0.0,0.0,0.0,0.0,0.0,0.0,0.0,0.0,0.0,0.0,0.0,0.0,0.0,0.0,0.0,0.0,0.0,0.0,0.0,0.0,0.0,0.0,0.0,0.0,0.0,0.0,0.0,0.0,0.0,0.0,0.0,0.0,-1.5176,-1.6914,-1.7031,-1.5527,-1.5371,-1.3789,0.0,0.0,0.0,0.0,0.0,0.0,0.0,0.0,0.0,0.0,0.0,0.0,0.0,0.0,0.0,0.0,0.0,0.0,0.0,0.0,0.0,0.0,0.0,0.0,0.0,0.0,0.0,0.0,0.0,0.0,0.0,0.0,0.0,0.0,0.0,0.0,0.0,0.0,0.0,0.0,0.0,0.0,0.0,0.0,0.0,0.0,0.0,0.0,0.0,0.0,0.0,0.0,0.0,0.0,0.0,0.0,0.0,0.0,0.0,0.0,0.0,0.0,0.0,0.0,0.0,0.0,0.0,0.0,0.0,0.0,0.0,0.0,0.0,0.0,0.0,0.0,0.0,0.0,0.0,0.0,0.0,0.0,0.0,0.0,0.0,0.0,0.0,0.0,0.0,0.0,0.0,0.0,0.0,0.0,0.0,0.0,0.0,0.0,0.0,0.0,0.0,0.0,0.0,0.0,0.0,0.0,0.0,0.0,0.0,-1.3711,-1.5332,-1.6816,-1.793,-1.5215,-1.4004,0.0,0.0,0.0,0.0,0.0,0.0,0.0,0.0,0.0,0.0,0.0,0.0,0.0,0.0,0.0,0.0,0.0,0.0,0.0,0.0,0.0,0.0,0.0,0.0,0.0,0.0,0.0,0.0,0.0,0.0,0.0,0.0,0.0,0.0,0.0,0.0,0.0,0.0,0.0,0.0,0.0,0.0,0.0,0.0,0.0,0.0,0.0,0.0,0.0,0.0,0.0,0.0,0.0,0.0,0.0,0.0,0.0,0.0,0.0,0.0,0.0,0.0,0.0,0.0,0.0,0.0,0.0,0.0,0.0,0.0,0.0,0.0,0.0,0.0,0.0,0.0,0.0,0.0,0.0,0.0,0.0,0.0,0.0,0.0,0.0,0.0,0.0,0.0,0.0,0.0,0.0,0.0,0.0,0.0,0.0,0.0,0.0,0.0,0.0,0.0,0.0,0.0,0.0,0.0,0.0,0.0,0.0,0.0,0.0,-1.537,-1.6934,-1.8281,-1.9258,-1.6055,-1.4609,-1.5176,0.0,0.0,0.0,0.0,0.0,0.0,0.0,0.0,0.0,0.0,0.0,0.0,0.0,0.0,0.0,0.0,0.0,0.0,0.0,0.0,0.0,0.0,0.0,0.0,0.0,0.0,0.0,0.0,0.0,0.0,0.0,0.0,0.0,0.0,0.0,0.0,0.0,0.0,0.0,0.0,0.0,0.0,0.0,0.0,0.0,0.0,0.0,0.0,0.0,0.0,0.0,0.0,0.0,0.0,0.0,0.0,0.0,0.0,0.0,0.0,0.0,0.0,0.0,0.0,0.0,0.0,0.0,0.0,0.0,0.0,0.0,0.0,0.0,0.0,0.0,0.0,0.0,0.0,0.0,0.0,0.0,0.0,0.0,0.0,0.0,0.0,0.0,0.0,0.0,0.0,0.0,0.0,0.0,0.0,0.0,0.0,0.0,0.0,0.0,0.0,0.0,0.0,0.0,0.0,0.0,0.0,0.0,0.0,-1.9332,-2.1113,-2.1211,-1.959,-1.7734,-1.5625,0.0,0.0,0.0,0.0,0.0,0.0,0.0,0.0,0.0,0.0,0.0,0.0,0.0,0.0,0.0,0.0,0.0,0.0,0.0,0.0,0.0,0.0,0.0,0.0,0.0,0.0,0.0,0.0,0.0,0.0,0.0,0.0,0.0,0.0,0.0,0.0,0.0,0.0,0.0,0.0,0.0,0.0,0.0,0.0,0.0,0.0,0.0,0.0,0.0,0.0,0.0,0.0,0.0,0.0,0.0,0.0,0.0,0.0,0.0,0.0,0.0,0.0,0.0,0.0,0.0,0.0,0.0,0.0,0.0,0.0,0.0,0.0,0.0,0.0,0.0,0.0,0.0,0.0,0.0,0.0,0.0,0.0,0.0,0.0,0.0,0.0,0.0,0.0,0.0,0.0,0.0,0.0,0.0,0.0,0.0,0.0,0.0,0.0,0.0,0.0,0.0,0.0,0.0,0.0,0.0,0.0,0.0,0.0,0.0,-2.0209,-2.2536,-2.3202,-2.2089,-1.9219,-1.7051,0.0,0.0,0.0,0.0,0.0,0.0,0.0,0.0,0.0,0.0,0.0,0.0,0.0,0.0,0.0,0.0,0.0,0.0,0.0,0.0,0.0,0.0,0.0,0.0,0.0,0.0,0.0,0.0,0.0,0.0,0.0,0.0,0.0,0.0,0.0,0.0,0.0,0.0,0.0,0.0,0.0,0.0,0.0,0.0,0.0,0.0,0.0,0.0,0.0,0.0,0.0,0.0,0.0,0.0,0.0,0.0,0.0,0.0,0.0,0.0,0.0,0.0,0.0,0.0,0.0,0.0,0.0,0.0,0.0,0.0,0.0,0.0,0.0,0.0,0.0,0.0,0.0,0.0,0.0,0.0,0.0,0.0,0.0,0.0,0.0,0.0,0.0,0.0,0.0,0.0,0.0,0.0,0.0,0.0,0.0,0.0,0.0,0.0,0.0,0.0,0.0,0.0,0.0,0.0,0.0,0.0,0.0,0.0,-1.9055,-2.1612,-2.3802,-2.4527,-2.3651,-2.1054,-1.8711,0.0,0.0,0.0,0.0,0.0,0.0,0.0,0.0,0.0,0.0,0.0,0.0,0.0,0.0,0.0,0.0,0.0,0.0,0.0,0.0,0.0,0.0,0.0,0.0,0.0,0.0,0.0,0.0,0.0,0.0,0.0,0.0,0.0,0.0,0.0,0.0,0.0,0.0,0.0,0.0,0.0,0.0,0.0,0.0,0.0,0.0,0.0,0.0,0.0,0.0,0.0,0.0,0.0,0.0,0.0,0.0,0.0,0.0,0.0,0.0,0.0,0.0,0.0,0.0,0.0,0.0,0.0,0.0,0.0,0.0,0.0,0.0,0.0,0.0,0.0,0.0,0.0,0.0,0.0,0.0,0.0,0.0,0.0,0.0,0.0,0.0,0.0,0.0,0.0,0.0,0.0,0.0,0.0,0.0,0.0,0.0,0.0,0.0,0.0,0.0,0.0,0.0,0.0,0.0,0.0,0.0,0.0,0.0,-2.0627,-2.3026,-2.4789,-2.5322,-2.4526,-2.281,-2.0312,0.0,0.0,0.0,0.0,0.0,0.0,0.0,0.0,0.0,0.0,0.0,0.0,0.0,0.0,0.0,0.0,0.0,0.0,0.0,0.0,0.0,0.0,0.0,0.0,0.0,0.0,0.0,0.0,0.0,0.0,0.0,0.0,0.0,0.0,0.0,0.0,0.0,0.0,0.0,0.0,0.0,0.0,0.0,0.0,0.0,0.0,0.0,0.0,0.0,0.0,0.0,0.0,0.0,0.0,0.0,0.0,0.0,0.0,0.0,0.0,0.0,0.0,0.0,0.0,0.0,0.0,0.0,0.0,0.0,0.0,0.0,0.0,0.0,0.0,0.0,0.0,0.0,0.0,0.0,0.0,0.0,0.0,0.0,0.0,0.0,0.0,0.0,0.0,0.0,0.0,0.0,0.0,0.0,0.0,0.0,0.0,0.0,0.0,0.0,0.0,0.0,0.0,0.0,0.0,0.0,0.0,0.0,0.0,-2.1126,-2.2904,-2.4701,-2.5527,-2.5327,-2.3099,-2.0585,0.0,0.0,0.0,0.0,0.0,0.0,0.0,0.0,0.0,0.0,0.0,0.0,0.0,0.0,0.0,0.0,0.0,0.0,0.0,0.0,0.0,0.0,0.0,0.0,0.0,0.0,0.0,0.0,0.0,0.0,0.0,0.0,0.0,0.0,0.0,0.0,0.0,0.0,0.0,0.0,0.0,0.0,0.0,0.0,0.0,0.0,0.0,0.0,-0.9827,0.0,0.0,0.0,0.0,0.0,0.0,0.0,0.0,0.0,0.0,0.0,0.0,0.0,0.0,0.0,0.0,0.0,0.0,0.0,0.0,0.0,0.0,0.0,0.0,0.0,0.0,0.0,0.0,0.0,0.0,0.0,0.0,0.0,0.0,0.0,0.0,0.0,0.0,0.0,0.0,0.0,0.0,0.0,0.0,0.0,0.0,0.0,0.0,0.0,0.0,0.0,0.0,0.0,0.0,0.0,0.0,0.0,0.0,0.0,-2.1845,-2.3473,-2.4875,-2.5611,-2.5533,-2.3565,-2.1054,0.0,0.0,0.0,0.0,0.0,0.0,0.0,0.0,0.0,0.0,0.0,0.0,0.0,0.0,0.0,0.0,0.0,0.0,0.0,0.0,0.0,0.0,0.0,0.0,0.0,0.0,0.0,0.0,0.0,0.0,0.0,0.0,0.0,0.0,0.0,0.0,0.0,0.0,0.0,0.0,0.0,0.0,0.0,0.0,0.0,0.0,0.0,0.0,0.0,0.0,0.0,0.0,0.0,0.0,0.0,0.0,0.0,0.0,0.0,0.0,0.0,0.0,0.0,0.0,0.0,0.0,0.0,0.0,0.0,0.0,0.0,0.0,0.0,0.0,0.0,0.0,0.0,0.0,0.0,0.0,0.0,0.0,0.0,0.0,0.0,0.0,0.0,0.0,0.0,0.0,0.0,0.0,0.0,0.0,0.0,0.0,0.0,0.0,0.0,0.0,0.0,0.0,0.0,0.0,0.0,0.0,0.0,-2.0034,-2.2427,-2.4287,-2.5172,-2.5582,-2.5566,-2.3972,-2.1482,-1.8144,0.0,0.0,0.0,0.0,0.0,0.0,0.0,0.0,0.0,0.0,0.0,0.0,0.0,0.0,0.0,0.0,0.0,0.0,0.0,0.0,0.0,0.0,0.0,0.0,0.0,0.0,0.0,0.0,0.0,0.0,0.0,0.0,0.0,0.0,0.0,0.0,0.0,0.0,-0.8148,-0.8927,0.0,0.0,0.0,0.0,0.0,0.0,0.0,0.0,-1.0294,0.0,0.0,0.0,0.0,0.0,0.0,0.0,0.0,0.0,0.0,0.0,0.0,0.0,0.0,0.0,0.0,0.0,0.0,0.0,0.0,0.0,0.0,0.0,0.0,0.0,0.0,0.0,0.0,0.0,0.0,0.0,0.0,0.0,0.0,0.0,0.0,0.0,0.0,0.0,0.0,0.0,0.0,0.0,0.0,0.0,0.0,0.0,0.0,0.0,0.0,0.0,0.0,0.0,0.0,0.0,0.0,-1.9627,-2.0259,-2.2009,-2.5032,-2.5376,-2.5515,-2.5466,-2.3944,-2.1502,-1.8164,0.0,0.0,0.0,0.0,0.0,0.0,0.0,0.0,0.0,0.0,0.0,0.0,0.0,0.0,0.0,0.0,0.0,0.0,0.0,0.0,0.0,0.0,0.0,0.0,0.0,0.0,0.0,0.0,0.0,0.0,0.0,0.0,0.0,0.0,0.0,0.0,0.0,0.0,0.0,-1.1519,-1.2123,0.0,0.0,0.0,0.0,0.0,0.0,0.0,0.0,-1.0146,0.0,0.0,0.0,0.0,0.0,0.0,0.0,0.0,0.0,0.0,0.0,0.0,0.0,0.0,0.0,0.0,0.0,0.0,0.0,0.0,0.0,0.0,0.0,0.0,0.0,0.0,0.0,0.0,0.0,0.0,0.0,0.0,0.0,0.0,0.0,0.0,0.0,0.0,0.0,0.0,0.0,0.0,0.0,0.0,0.0,0.0,0.0,0.0,0.0,0.0,0.0,0.0,0.0,0.0,0.0,-1.8895,-2.0722,-2.2793,-2.5197,-2.5448,-2.5518,-2.5452,-2.3102,-2.0604,0.0,0.0,0.0,0.0,0.0,0.0,0.0,0.0,0.0,0.0,0.0,0.0,0.0,0.0,0.0,0.0,0.0,0.0,0.0,0.0,0.0,0.0,0.0,0.0,0.0,0.0,0.0,0.0,0.0,0.0,0.0,0.0,0.0,0.0,0.0,0.0,0.0,0.0,0.0,0.0,-1.142,-1.1698,-1.2579,0.0,0.0,0.0,0.0,0.0,0.0,-1.1717,-1.1021,0.0,0.0,0.0,0.0,0.0,0.0,0.0,0.0,0.0,0.0,0.0,0.0,0.0,0.0,0.0,0.0,0.0,0.0,0.0,0.0,0.0,0.0,0.0,0.0,0.0,0.0,0.0,0.0,0.0,0.0,0.0,0.0,0.0,0.0,0.0,0.0,0.0,0.0,0.0,0.0,0.0,0.0,0.0,0.0,0.0,0.0,0.0,0.0,0.0,0.0,0.0,0.0,0.0,0.0,0.0,-1.7799,-2.0754,-2.3274,-2.5197,-2.541,-2.5407,-2.5194,-2.2548,-2.0035,0.0,0.0,0.0,0.0,0.0,0.0,0.0,0.0,0.0,0.0,0.0,0.0,0.0,0.0,0.0,0.0,0.0,0.0,0.0,0.0,0.0,0.0,0.0,0.0,0.0,0.0,0.0,0.0,0.0,0.0,0.0,0.0,0.0,0.0,0.0,0.0,0.0,0.0,0.0,0.0,0.0,-1.1831,-1.2805,-1.1967,0.0,0.0,0.0,0.0,-1.3822,-1.3165,0.0,0.0,0.0,0.0,0.0,0.0,0.0,0.0,0.0,0.0,0.0,0.0,0.0,0.0,0.0,0.0,0.0,0.0,0.0,0.0,0.0,0.0,0.0,0.0,0.0,0.0,0.0,0.0,0.0,0.0,0.0,0.0,0.0,0.0,0.0,0.0,0.0,0.0,0.0,0.0,0.0,0.0,0.0,0.0,0.0,0.0,0.0,0.0,0.0,0.0,0.0,0.0,0.0,0.0,0.0,0.0,-1.7648,-1.9604,-2.2135,-2.512,-2.5354,-2.5078,-2.4374,-2.3285,-2.088,0.0,0.0,0.0,0.0,0.0,0.0,0.0,0.0,0.0,0.0,0.0,0.0,0.0,0.0,0.0,0.0,0.0,0.0,0.0,0.0,0.0,0.0,0.0,0.0,0.0,0.0,0.0,0.0,0.0,0.0,0.0,0.0,0.0,0.0,0.0,0.0,0.0,0.0,0.0,0.0,0.0,-1.5286,-1.4041,-1.4349,-1.451,0.0,0.0,0.0,-1.4084,-1.5057,0.0,0.0,0.0,0.0,0.0,0.0,0.0,0.0,0.0,0.0,0.0,0.0,0.0,0.0,0.0,0.0,0.0,0.0,0.0,0.0,0.0,0.0,0.0,0.0,0.0,0.0,0.0,0.0,0.0,0.0,0.0,0.0,0.0,0.0,0.0,0.0,0.0,0.0,0.0,0.0,0.0,0.0,0.0,0.0,0.0,0.0,0.0,0.0,0.0,0.0,0.0,0.0,0.0,0.0,0.0,-1.5314,-1.7699,-2.0354,-2.2896,-2.5237,-2.539,-2.505,-2.428,-2.2054,-1.9543,0.0,0.0,0.0,0.0,0.0,0.0,0.0,0.0,0.0,0.0,0.0,0.0,0.0,0.0,0.0,0.0,0.0,0.0,0.0,0.0,0.0,0.0,0.0,0.0,0.0,0.0,0.0,0.0,0.0,0.0,0.0,0.0,0.0,0.0,0.0,0.0,0.0,0.0,0.0,0.0,0.0,0.0,-1.4698,-1.5021,0.0,0.0,0.0,-1.6022,-1.613,0.0,0.0,0.0,0.0,0.0,0.0,0.0,0.0,0.0,0.0,0.0,0.0,0.0,0.0,0.0,0.0,0.0,0.0,0.0,0.0,0.0,0.0,0.0,0.0,0.0,0.0,0.0,0.0,0.0,0.0,0.0,0.0,0.0,0.0,0.0,0.0,0.0,0.0,0.0,0.0,0.0,0.0,0.0,0.0,0.0,0.0,0.0,0.0,0.0,0.0,0.0,0.0,0.0,0.0,0.0,0.0,0.0,-1.7718,-2.1066,-2.3617,-2.5297,-2.5186,-2.472,-2.3934,-2.1055,0.0,0.0,0.0,0.0,0.0,0.0,0.0,0.0,0.0,0.0,0.0,0.0,0.0,0.0,0.0,0.0,0.0,0.0,0.0,0.0,0.0,0.0,0.0,0.0,0.0,0.0,0.0,-0.5346,0.0,0.0,0.0,0.0,0.0,0.0,0.0,0.0,0.0,0.0,0.0,0.0,0.0,0.0,-1.4287,-1.517,-1.578,-1.6391,0.0,0.0,-1.7218,-1.742,-1.6746,-1.557,0.0,0.0,0.0,0.0,0.0,0.0,0.0,0.0,0.0,0.0,0.0,0.0,0.0,0.0,0.0,0.0,0.0,0.0,0.0,0.0,0.0,0.0,0.0,0.0,0.0,0.0,0.0,0.0,0.0,0.0,0.0,0.0,0.0,0.0,0.0,0.0,0.0,0.0,0.0,0.0,0.0,0.0,0.0,0.0,0.0,0.0,0.0,0.0,0.0,0.0,0.0,0.0,0.0,0.0,0.0,-1.7738,-2.1066,-2.3605,-2.5202,-2.4585,-2.3811,-2.2985,-2.1311,-1.8855,0.0,0.0,0.0,0.0,0.0,0.0,0.0,0.0,0.0,0.0,0.0,0.0,0.0,0.0,0.0,0.0,0.0,0.0,0.0,0.0,0.0,0.0,0.0,0.0,0.0,0.0,0.0,0.0,0.0,0.0,0.0,0.0,0.0,0.0,0.0,0.0,0.0,0.0,0.0,0.0,0.0,-1.6906,-1.5441,-1.7243,-1.8497,0.0,0.0,-1.832,-1.6814,-1.7815,-1.7388,-1.3458,0.0,0.0,0.0,0.0,0.0,0.0,0.0,0.0,0.0,0.0,0.0,0.0,0.0,0.0,0.0,0.0,0.0,0.0,0.0,0.0,0.0,0.0,0.0,0.0,0.0,0.0,0.0,0.0,0.0,0.0,0.0,0.0,0.0,0.0,0.0,0.0,0.0,0.0,0.0,0.0,0.0,0.0,0.0,0.0,0.0,0.0,0.0,0.0,0.0,0.0,0.0,0.0,0.0,-1.6042,-1.7699,-2.1066,-2.3632,-2.526,-2.4534,-2.3752,-2.2968,-2.081,-1.8307,0.0,0.0,0.0,0.0,0.0,0.0,0.0,0.0,0.0,0.0,0.0,0.0,0.0,0.0,0.0,0.0,0.0,0.0,0.0,0.0,0.0,0.0,0.0,0.0,0.0,0.0,0.0,0.0,-0.7405,-0.8107,-0.8574,0.0,0.0,0.0,0.0,0.0,0.0,0.0,0.0,0.0,0.0,-1.7077,-1.7263,-1.8733,0.0,0.0,-1.9596,-1.9576,-1.8953,-1.8472,-1.7494,-1.5374,-1.4404,0.0,0.0,0.0,0.0,0.0,0.0,0.0,0.0,0.0,0.0,0.0,0.0,0.0,0.0,0.0,0.0,0.0,0.0,0.0,0.0,0.0,0.0,0.0,0.0,0.0,0.0,0.0,0.0,0.0,0.0,0.0,0.0,0.0,0.0,0.0,0.0,0.0,0.0,0.0,0.0,0.0,0.0,0.0,0.0,0.0,0.0,0.0,0.0,0.0,0.0,0.0,0.0,-1.6157,-1.8087,-2.1181,-2.3655,-2.5331,-2.4317,-2.3485,-2.2926,-2.0446,-1.8045,0.0,0.0,0.0,0.0,0.0,0.0,0.0,0.0,0.0,0.0,0.0,0.0,0.0,0.0,0.0,0.0,0.0,0.0,0.0,0.0,0.0,0.0,0.0,0.0,0.0,0.0,0.0,0.0,-0.8343,-0.9103,-0.9684,0.0,0.0,0.0,0.0,0.0,0.0,0.0,0.0,0.0,0.0,-1.7596,-1.8581,-1.9638,-2.0288,-2.0288,-2.0288,-2.0215,-1.9965,-1.8888,-1.7734,-1.6657,0.0,0.0,0.0,0.0,0.0,0.0,0.0,0.0,0.0,0.0,0.0,0.0,0.0,0.0,0.0,0.0,0.0,0.0,0.0,0.0,0.0,0.0,0.0,0.0,0.0,0.0,0.0,0.0,0.0,0.0,-1.0324,0.0,0.0,0.0,0.0,0.0,0.0,0.0,0.0,0.0,0.0,0.0,0.0,0.0,0.0,0.0,0.0,0.0,0.0,0.0,0.0,0.0,0.0,0.0,-1.8934,-2.1489,-2.3624,-2.5197,-2.3751,-2.2924,-2.2854,-2.0432,-1.8308,-1.6575,0.0,0.0,0.0,0.0,0.0,0.0,0.0,0.0,0.0,0.0,0.0,0.0,0.0,0.0,0.0,0.0,0.0,0.0,0.0,0.0,0.0,0.0,0.0,0.0,0.0,0.0,-0.7586,-0.8336,-0.8867,0.0,0.0,0.0,0.0,0.0,0.0,0.0,0.0,0.0,0.0,-1.7357,-1.8947,-1.9007,-1.9754,-2.0327,-2.0308,-2.0308,-2.0023,-1.9203,-1.9004,-1.8423,0.0,0.0,0.0,0.0,0.0,0.0,0.0,0.0,0.0,0.0,0.0,0.0,0.0,0.0,0.0,0.0,0.0,0.0,0.0,0.0,0.0,0.0,0.0,0.0,0.0,0.0,0.0,-1.466,-1.4055,0.0,0.0,0.0,0.0,0.0,0.0,0.0,0.0,0.0,0.0,0.0,-1.9153,-1.9997,0.0,0.0,0.0,0.0,0.0,0.0,0.0,0.0,0.0,0.0,0.0,0.0,-1.6458,-1.8992,-2.1508,-2.362,-2.5212,-2.3685,-2.2835,-2.2797,-2.0408,-1.8036,-1.5785,0.0,0.0,0.0,0.0,0.0,0.0,0.0,0.0,0.0,0.0,0.0,0.0,0.0,0.0,0.0,0.0,0.0,0.0,0.0,0.0,0.0,0.0,0.0,0.0,0.0,-0.7717,0.0,0.0,0.0,0.0,0.0,0.0,0.0,0.0,0.0,0.0,0.0,-1.5219,-1.6624,-1.8072,-1.9193,-1.9723,-2.0534,-2.0904,0.0,0.0,0.0,0.0,0.0,0.0,0.0,0.0,0.0,0.0,0.0,0.0,0.0,0.0,-1.6073,-1.2894,-1.2033,-1.1789,-1.1749,0.0,0.0,0.0,0.0,0.0,0.0,0.0,0.0,0.0,0.0,0.0,0.0,0.0,0.0,-1.7294,0.0,-1.5831,0.0,0.0,0.0,0.0,0.0,0.0,0.0,0.0,-2.0499,-2.1442,-2.1727,-2.2565,-2.2495,0.0,-2.1374,-1.9661,0.0,0.0,0.0,0.0,0.0,0.0,0.0,0.0,-1.7324,-1.9835,-2.2109,-2.3774,-2.4755,-2.3524,-2.2663,-2.2312,-1.9947,-1.7735,-1.5822,-1.3056,-1.1556,0.0,0.0,0.0,0.0,0.0,0.0,0.0,0.0,0.0,0.0,0.0,0.0,0.0,0.0,0.0,0.0,0.0,0.0,0.0,0.0,0.0,0.0,0.0,-0.8906,0.0,0.0,0.0,0.0,0.0,0.0,0.0,0.0,0.0,-1.3504,-1.4931,-1.6586,-1.8286,-1.9023,-1.9838,-2.0949,0.0,0.0,0.0,0.0,0.0,0.0,0.0,-2.0235,-1.9912,-1.9392,-1.8827,-1.8216,-1.8586,-1.8639,-1.7669,0.0,0.0,-1.4431,-1.3419,-1.306,-1.3317,-1.3128,-1.3004,-1.3293,-1.3372,-1.3372,0.0,0.0,0.0,0.0,0.0,0.0,0.0,0.0,-1.9948,-1.9538,0.0,-1.8525,0.0,0.0,0.0,0.0,0.0,0.0,0.0,0.0,-2.3758,-2.4896,-2.4192,-2.4869,-2.487,-2.4202,-2.4832,-2.3938,-2.1536,-1.8342,0.0,0.0,0.0,0.0,0.0,0.0,-1.9023,-2.1485,-2.3201,-2.4105,-2.411,-2.3259,-2.2374,-2.1446,-1.9095,-1.7448,-1.6616,-1.4937,-1.3333,-1.1749,-1.0773,0.0,0.0,0.0,0.0,0.0,0.0,0.0,0.0,0.0,0.0,0.0,0.0,0.0,0.0,0.0,0.0,0.0,0.0,0.0,0.0,-0.9124,0.0,0.0,0.0,0.0,0.0,0.0,0.0,0.0,0.0,0.0,-1.5417,-1.6682,-1.8308,-1.9993,0.0,0.0,0.0,0.0,-2.187,-2.2643,-2.2816,-2.2816,-2.2778,-2.2759,-2.2466,-2.1658,0.0,0.0,-1.9234,-1.8949,-1.8674,-1.7757,-1.7677,-1.7481,-1.7222,-1.5822,-1.499,-1.5539,-1.5049,-1.486,-1.5515,-1.5607,-1.5674,-2.6367,0.0,0.0,0.0,0.0,-2.3207,-2.4144,-2.598,-2.4497,-2.352,-2.2855,-2.1412,0.0,0.0,0.0,0.0,0.0,0.0,-2.1868,-2.304,-2.4034,-2.4642,-2.4956,-2.5183,-2.5173,-2.4986,-2.5212,-2.4666,-2.3461,-2.2419,-1.9871,-1.5925,0.0,0.0,0.0,0.0,-2.0454,-2.235,-2.3528,-2.4105,-2.4105,-2.324,-2.21,-2.0673,-1.8771,-1.7654,-1.7448,-1.5247,-1.383,-1.3372,-1.1393,0.0,0.0,0.0,0.0,0.0,0.0,0.0,0.0,0.0,0.0,0.0,0.0,0.0,0.0,0.0,0.0,0.0,0.0,0.0,-0.8391,-0.9462,-1.0594,0.0,0.0,0.0,0.0,0.0,0.0,0.0,0.0,0.0,-1.8622,-1.9062,-1.9797,0.0,0.0,-2.1942,-2.1865,-2.2722,-2.322,-2.2855,0.0,0.0,0.0,-2.2797,-2.272,-2.247,-2.1929,-2.111,-2.0026,-1.9824,-1.9706,-1.931,-1.9251,-1.9163,-1.8907,-1.7558,-1.6562,-1.6626,-1.6448,-1.6279,-1.6493,-1.6573,-1.6396,-3.0275,-2.7843,-2.6497,-2.6229,-2.6683,-2.6155,-2.6838,-2.8224,-2.719,-2.6448,-2.5882,-2.4906,-2.3657,-2.229,-2.104,0.0,0.0,0.0,-2.3259,-2.4562,-2.4586,-2.4851,-2.5288,-2.5308,-2.5308,-2.5308,-2.5327,-2.5129,-2.4675,-2.4651,-2.2748,-1.9215,0.0,0.0,-1.8542,-2.0304,-2.1919,-2.3278,-2.4144,-2.4259,-2.3586,-2.2412,-2.1308,-2.0308,-1.86,-1.7726,-1.7758,-1.5683,-1.4369,-1.4083,-1.23,-1.0981,0.0,0.0,0.0,0.0,0.0,0.0,0.0,0.0,0.0,0.0,0.0,-0.6514,0.0,0.0,0.0,0.0,-0.7126,-0.8372,-0.9749,-1.091,0.0,0.0,0.0,0.0,0.0,0.0,0.0,-1.7286,-1.9151,-2.0671,-2.1507,-2.1621,-2.1803,-2.2315,-2.2561,-2.2767,-2.2973,0.0,-2.4009,-2.3812,-2.4235,-2.4389,-2.387,-2.3793,-2.3581,-2.2893,-2.2074,-2.1212,-2.0367,-2.0176,-2.0136,-2.0059,-2.001,-1.9955,-1.9866,-1.8905,-1.8106,-1.8037,-1.7685,-1.7484,-1.777,-1.7594,-1.7154,-3.3444,-3.3208,-2.9954,-2.8621,-2.8595,-2.8537,-2.8498,-2.8498,-2.842,-2.8401,-2.8401,-2.8321,-2.7854,-2.6994,-2.5351,0.0,0.0,-2.4433,-2.4764,-2.5399,-2.5399,-2.5365,-2.5308,-2.5308,-2.5308,-2.5308,-2.5361,-2.5383,-2.5391,-2.5383,-2.4617,-2.3107,-2.2227,-2.1731,-2.1658,-2.2524,-2.3394,-2.4187,-2.4909,-2.4505,-2.2836,-2.1212,-2.0365,-2.0288,-1.86,-1.7726,-1.7755,-1.6186,-1.4933,-1.4136,-1.3261,-1.2082,-1.0478,0.0,0.0,0.0,0.0,0.0,0.0,0.0,0.0,0.0,0.0,0.0,0.0,0.0,0.0,0.0,-0.9233,0.0,-1.1505,-1.2976,0.0,0.0,0.0,-1.5405,-1.5671,-1.7658,-1.9052,-1.9186,0.0,0.0,0.0,0.0,-2.4001,-2.4009,-2.3351,-2.3439,-2.4999,-2.4567,-2.4471,-2.5115,-2.5269,-2.5288,-2.5135,-2.5154,-2.4615,-2.3062,-2.2128,-2.1314,-2.0404,-2.0153,-2.0117,-2.0108,-2.0112,-2.0108,-2.0108,-1.9796,-1.9682,-1.9485,-1.8795,-1.8401,-1.8996,-1.8665,-1.7961,-3.4254,-3.4188,-3.2713,-3.1751,-3.1133,-3.047,-3.0215,-3.0156,-2.9552,-2.9298,-2.924,-2.8596,-2.8186,-2.7951,-2.7486,-2.7237,-2.7168,-2.7117,-2.6785,-2.6313,-2.6288,-2.5942,-2.5308,-2.5308,-2.5308,-2.5308,-2.5308,-2.5344,-2.5387,-2.5339,-2.5151,-2.4807,-2.4531,-2.375,-2.2605,-2.3966,-2.4808,-2.5019,-2.5192,-2.4481,-2.2855,-2.1754,-2.0927,-2.0308,-1.86,-1.7702,-1.7703,-1.6149,-1.491,-1.4058,-1.3242,-1.2329,-1.1247,-0.9794,0.0,0.0,0.0,0.0,0.0,0.0,0.0,0.0,0.0,-0.8211,-0.7365,0.0,-0.8803,0.0,-1.0115,-1.1699,-1.3164,-1.3651,0.0,0.0,-1.6445,-1.7205,-1.9684,-1.9924,-2.0377,-2.1651,-2.2865,-2.3665,-2.3875,-2.4498,-2.4872,-2.49,-2.4711,-2.4546,-2.4389,-2.4745,-2.5077,-2.525,-2.5308,-2.5308,-2.5308,-2.5308,-2.475,-2.3086,-2.2569,-2.1919,-2.0461,-2.0149,-2.0112,-2.0112,-2.0112,-2.0112,-2.0112,-1.9946,-1.9849,-1.9792,-1.9378,-1.9058,-1.926,-1.9132,-1.8757,-3.5141,-3.51,-3.4239,-3.3631,-3.3175,-3.2321,-3.1737,-3.1348,-3.0899,-3.049,-3.0118,-2.9611,-2.9219,-2.8886,-2.876,-2.8493,-2.8097,-2.7991,-2.7687,-2.7159,-2.6794,-2.6351,-2.5865,-2.5481,-2.5313,-2.5335,-2.5354,-2.5361,-2.5383,-2.5361,-2.5363,-2.5352,-2.5317,-2.4846,-2.4005,-2.4846,-2.5308,-2.5308,-2.4947,-2.412,-2.2812,-2.1966,-2.0927,-1.9777,-1.8792,-1.7927,-1.7196,-1.6292,-1.526,-1.4069,-1.3207,-1.2552,-1.2085,-1.0827,-1.0297,0.0,0.0,0.0,0.0,0.0,0.0,0.0,0.0,0.0,0.0,0.0,-1.0331,0.0,-1.2673,0.0,-1.4981,-1.5734,-1.6888,-1.8657,-1.8773,-1.9615,-2.1833,-2.198,-2.2245,-2.3174,-2.3973,-2.4473,-2.4493,-2.4894,-2.5212,-2.5209,-2.5231,-2.5098,-2.472,-2.5019,-2.5308,-2.5308,-2.5308,-2.5308,-2.5308,-2.5308,-2.487,-2.3658,-2.3016,-2.2297,-2.1026,-2.0411,-2.0126,-2.0117,-2.0112,-2.0112,-2.0108,-1.9991,-1.9893,-1.986,-1.9682,-1.9483,-1.9405,-1.9434,-1.9228,-3.5895,-3.582,-3.5087,-3.4783,-3.4809,-3.403,-3.318,-3.2267,-3.215,-3.1621,-3.08,-3.08,-3.0411,-2.9745,-2.9615,-2.913,-2.8427,-2.8294,-2.8175,-2.8005,-2.7159,-2.6697,-2.6582,-2.5692,-2.5331,-2.539,-2.5394,-2.539,-2.5394,-2.5394,-2.5352,-2.5293,-2.5308,-2.5308,-2.5308,-2.5308,-2.5308,-2.5288,-2.4625,-2.3841,-2.297,-2.21,-2.0908,-1.9396,-1.9004,-1.8154,-1.6734,-1.6445,-1.5603,-1.4074,-1.3275,-1.285,-1.2775,-1.2075,-1.1655,0.0,-1.1599,0.0,0.0,0.0,0.0,0.0,0.0,0.0,0.0,-1.1928,-1.2654,-1.4113,-1.5692,-1.6699,-1.6811,-1.8238,-1.9508,-2.0369,-2.1177,-2.2004,-2.2874,-2.3573,-2.4053,-2.4149,-2.4762,-2.5212,-2.5168,-2.5212,-2.5212,-2.5217,-2.5257,-2.5273,-2.5278,-2.5274,-2.5308,-2.5308,-2.5308,-2.5308,-2.5308,-2.5308,-2.5005,-2.4197,-2.3491,-2.2642,-2.1822,-2.1008,-2.0421,-2.0317,-2.0212,-2.0112,-2.0112,-1.9996,-1.9939,-1.9939,-1.9832,-1.9713,-1.9585,-1.9612,-1.942,-3.583,-3.5792,-3.5696,-3.5661,-3.5651,-3.5487,-3.4555,-3.3105,-3.2402,-3.1621,-3.08,-3.08,-3.0703,-3.0565,-3.0486,-3.0339,-3.0123,-3.0044,-2.9583,-2.8857,-2.803,-2.7274,-2.6563,-2.5712,-2.5298,-2.5317,-2.5317,-2.5317,-2.5313,-2.5317,-2.5308,-2.5308,-2.5308,-2.5308,-2.5308,0.0,0.0,0.0,-2.5154,-2.4678,-2.3855,-2.3009,-2.2085,-2.1023,-1.9027,0.0,-1.7446,-1.6154,-1.4984,-1.3997,-1.3812,0.0,0.0,0.0,0.0,0.0,0.0,0.0,0.0,0.0,0.0,0.0,-1.3459,-1.3091,-1.342,-1.4714,-1.566,-1.6003,-1.6891,-1.7776,-1.8453,-1.9427,-2.0385,-2.1192,-2.2047,-2.2893,-2.374,-2.3962,-2.4245,-2.498,-2.5151,-2.5212,-2.5212,-2.5212,-2.5222,-2.5276,-2.5306,-2.5302,-2.5298,-2.5303,-2.5308,-2.5308,-2.5308,-2.5308,-2.5308,-2.5308,-2.5038,-2.4279,-2.3957,-2.3438,-2.2676,-2.1981,-2.1459,-2.1168,-2.059,-2.0112,-2.0112,-2.0074,-2.006,-2.006,-2.0045,-1.9955,-1.9719,-1.967,-1.9657,-3.6183,0.0,-3.5819,-3.5852,0.0,-3.5899,-3.5442,-3.4645,-3.3768,-3.2656,-3.1407,-3.0997,-3.08,-3.0799,-3.0684,-3.063,-3.0609,-3.0492,-3.0197,-2.9698,-2.8876,-2.8044,-2.7198,-2.6346,-2.5741,-2.5359,-2.5332,-2.5332,-2.5359,-2.5332,-2.5308,-2.5308,-2.5308,-2.5308,-2.5308,-2.5308,-2.5308,-2.5308,-2.5308,-2.4909,-2.4129,-2.3663,-2.2624,-2.0981,0.0,0.0,0.0,0.0,0.0,0.0,0.0,0.0,0.0,0.0,0.0,-1.3896,-1.3932,-1.3927,-1.3967,-1.4352,-1.4929,-1.5769,-1.6192,-1.6061,-1.5269,-1.6753,-1.7741,-1.7757,-1.8488,-1.9331,-2.0142,-2.0639,-2.1408,-2.2624,-2.3186,-2.3759,-2.4505,-2.4663,-2.4803,-2.5192,-2.5273,-2.5248,-2.5248,-2.5248,-2.5253,-2.5302,-2.5307,-2.5293,-2.5303,-2.5308,-2.5308,-2.5308,-2.5308,-2.5308,-2.5308,-2.5288,-2.5212,-2.4755,-2.4346,-2.3914,-2.3472,-2.2575,-2.178,-2.1431,-2.0704,-2.0159,-2.0155,-2.0144,-2.0134,-2.0153,-2.0153,-2.0102,-1.9974,-1.9918,-1.9866,-3.6576,-3.5814,-3.5795,-3.5834,-3.5894,-3.5883,-3.5938,-3.5914,0.0,0.0,0.0,-3.1192,-3.08,-3.0796,-3.0667,-3.0614,-3.0607,-3.0487,-3.0417,-3.0381,-2.952,-2.8758,-2.8088,-2.7063,-2.6256,-2.5614,-2.5384,-2.5331,-2.5363,-2.5327,-2.5308,-2.5308,-2.5308,-2.5308,-2.5308,-2.5308,-2.5308,-2.5308,-2.5308,-2.4962,-2.4336,-2.4168,-2.3028,-2.0788,-2.1081,-2.0215,-1.8042,-1.8472,-1.7799,-1.5792,-1.5657,-1.5327,-1.4632,-1.4574,-1.4901,-1.5577,-1.5654,-1.5654,-1.5657,-1.6311,-1.6776,-1.693,-1.8357,-1.8584,-1.7045,-1.8353,-1.9223,-1.9238,-2.0004,-2.0769,-2.1427,-2.1812,-2.2528,-2.3975,-2.4221,-2.4582,-2.5192,-2.5308,-2.5269,-2.5308,-2.5308,-2.5308,-2.5308,-2.5308,-2.5308,-2.5308,-2.5308,-2.5308,-2.5308,-2.5308,-2.5308,-2.5308,-2.5308,-2.5308,-2.5308,-2.5308,-2.5308,-2.5231,-2.4736,-2.4308,-2.4082,-2.328,-2.2359,-2.1814,-2.0904,-2.031,-2.0205,-2.0195,-2.0212,-2.0212,-2.0212,-2.0203,-2.0201,-2.0155,-2.0065,-3.6595,-3.5795,-3.5795,-3.5803,-3.5819,-3.5866,-3.5938,-3.5856,-3.4294,-3.3027,-3.2052,-3.1172,-3.08,-3.0799,-3.0722,-3.0697,-3.0675,-3.06,-3.0539,0.0,-2.9593,-2.91,-2.8863,-2.7332,-2.6549,-2.6371,-2.5659,-2.5293,-2.5308,-2.5293,-2.5308,-2.5308,-2.5308,-2.5308,-2.5308,-2.5308,-2.5308,-2.5308,-2.5308,-2.525,-2.5135,-2.4452,-2.3586,-2.2489,-2.1177,-1.9962,-1.8862,-1.8234,-1.7718,-1.7369,-1.7353,-1.7295,-1.718,-1.7122,-1.7215,-1.7353,-1.735,-1.7353,-1.7353,-1.7487,-1.7856,-1.8607,-1.9561,-1.9677,-1.878,-1.9542,-2.0115,-2.0154,-2.085,-2.137,-2.1581,-2.2816,-2.3759,-2.411,-2.4716,-2.5192,-2.5308,-2.5308,-2.5308,-2.5308,-2.5308,-2.5308,-2.5308,-2.5308,-2.5308,-2.5308,-2.5308,-2.5308,-2.5308,-2.5308,-2.5308,-2.5308,-2.5308,-2.5308,-2.5308,-2.5308,-2.5308,-2.5308,-2.5192,-2.5019,-2.5014,-2.476,-2.4044,-2.2815,-2.1261,-2.0327,-2.0208,-2.0208,-2.0216,-2.0216,-2.0216,-2.0208,-2.0205,-2.0173,-2.0155,-3.7294,-3.6479,-3.6008,-3.583,-3.5857,-3.5886,-3.5929,-3.5875,-3.4645,-3.3612,-3.2773,-3.1895,-3.125,-3.0817,-3.0728,-3.0709,-3.0706,-3.063,-3.0575,-3.0517,-3.0102,-2.9627,-2.9057,-2.7883,-2.7063,-2.6558,-2.5712,-2.5308,-2.5308,-2.5308,-2.5308,-2.5308,-2.5308,-2.5308,-2.5308,-2.5308,-2.5308,-2.5308,-2.5308,-2.5308,-2.5308,-2.4947,-2.4356,-2.3533,-2.2297,-2.1254,-2.0385,-1.9558,-1.8907,-1.8414,-1.8388,-1.8196,-1.7718,-1.7696,-1.7696,-1.7696,-1.7696,-1.7907,-1.8365,-1.885,-1.9292,-1.9677,-2.0062,-2.0154,-1.9754,-2.0058,-2.0481,-2.0904,-2.1308,-2.1908,-2.2797,-2.3629,-2.4259,-2.4697,-2.5096,-2.5288,-2.5308,-2.5308,-2.5308,-2.5308,-2.5308,-2.5308,-2.5308,-2.5308,-2.5308,-2.5308,-2.5308,-2.5308,-2.5308,-2.5308,-2.5308,-2.5308,-2.5308,-2.5308,-2.5308,-2.5308,-2.5308,-2.5308,-2.5308,-2.5308,-2.5308,-2.5308,-2.4591,-2.3093,-2.1393,-2.0395,-2.0218,-2.0222,-2.0245,-2.0264,-2.0264,-2.0237,-2.0216,-2.0195,-2.0164,-3.8052,-3.7042,-3.6377,-3.6021,-3.5895,-3.5883,-3.5933,-3.5934,-3.5291,-3.451,-3.3612,-3.2578,-3.1621,-3.0838,-3.0757,-3.0724,-3.072,-3.0681,-3.0633,-3.0614,-3.0576,-3.0159,-2.9433,-2.843,-2.7556,-2.6813,-2.5808,-2.5308,-2.5308,-2.5308,-2.5308,-2.5308,-2.5308,-2.5308,-2.5308,-2.5308,-2.5308,-2.5308,-2.5308,-2.5308,-2.5308,-2.5308,-2.4904,-2.4105,-2.324,-2.2389,-2.1523,-2.0735,-1.9985,-1.9357,-1.9288,-1.9,-1.835,-1.8276,-1.8292,-1.8292,-1.8276,-1.8577,-1.9246,-1.99,-2.0288,-2.0288,-2.0288,-2.0365,-2.0538,-2.0577,-2.0808,-2.1427,-2.1889,-2.2701,-2.3798,-2.4283,-2.4625,-2.5231,-2.5308,-2.5308,-2.5308,-2.5308,-2.5308,-2.5308,-2.5308,-2.5308,-2.5308,-2.5308,-2.5308,-2.5308,-2.5308,-2.5308,-2.5308,-2.5308,-2.5308,-2.5308,-2.5308,-2.5308,-2.5308,-2.5308,-2.5308,-2.5308,-2.5308,-2.5308,-2.5308,-2.5308,-2.463,-2.3102,-2.1434,-2.0454,-2.0253,-2.0261,-2.0288,-2.0304,-2.0285,-2.0281,-2.0207,-2.0193,-2.0173,-3.8615,-3.7217,-3.7003,-3.6545,-3.5919,-3.5892,-3.594,-3.5971,-3.5895,-3.5389,-3.4413,-3.2852,-3.1641,-3.0859,-3.0817,-3.0796,-3.0777,-3.0794,-3.0757,-3.0684,-3.0677,-3.0575,-3.021,-2.8722,-2.7923,-2.756,-2.6106,-2.5293,-2.5308,-2.5308,-2.5308,-2.5308,-2.5308,-2.5308,-2.5308,-2.5308,-2.5308,-2.5308,-2.5308,-2.5308,-2.5308,-2.5308,-2.4904,-2.4125,-2.3278,-2.2393,-2.1581,-2.0716,-2.0269,-2.0192,-2.0154,-2.0135,-2.0019,-2.0038,-2.0038,-2.0019,-2.0019,-2.0115,-2.0173,-2.025,-2.0288,-2.0288,-2.0327,-2.0635,-2.1269,-2.1385,-2.1404,-2.1793,-2.297,-2.3821,-2.4129,-2.4736,-2.5154,-2.5269,-2.5308,-2.5308,-2.5308,-2.5308,-2.5308,-2.5308,-2.5308,-2.5308,-2.5308,-2.5308,-2.5308,-2.5308,-2.5308,-2.5308,-2.5308,-2.5308,-2.5308,-2.5308,-2.5308,-2.5308,-2.5308,-2.5308,-2.5308,-2.5308,-2.5308,-2.525,-2.5212,-2.5154,-2.4726,-2.2861,-2.1423,-2.0385,-2.0285,-2.0288,-2.0288,-2.0288,-2.0288,-2.0304,-2.023,-2.021,-2.0176,-3.8984,-3.7819,-3.7333,-3.6631,-3.594,-3.5883,-3.5929,-3.5939,-3.5988,-3.5504,-3.4608,-3.3398,-3.2383,-3.1543,-3.1036,-3.08,-3.08,-3.08,-3.0795,-3.0762,-3.0722,-3.0684,-3.0442,-2.886,-2.8024,-2.7811,-2.6191,-2.5326,-2.5317,-2.5308,-2.5308,-2.5308,-2.5308,-2.5308,-2.5308,-2.5308,-2.5308,-2.5308,-2.5308,-2.5308,-2.5308,-2.5308,-2.5154,-2.4774,-2.4009,-2.3163,-2.2297,-2.1446,-2.0808,-2.0346,-2.0288,-2.0288,-2.0288,-2.0288,-2.0288,-2.0288,-2.0288,-2.0288,-2.0288,-2.0288,-2.0288,-2.0288,-2.075,-2.1158,-2.1523,-2.2412,-2.3028,-2.3124,-2.3701,-2.4259,-2.4736,-2.5096,-2.5308,-2.5308,-2.5308,-2.5308,-2.5308,-2.5308,-2.5308,-2.5308,-2.5308,-2.5308,-2.5308,-2.5308,-2.5308,-2.5308,-2.5308,-2.5308,-2.5308,-2.5308,-2.5308,-2.5308,-2.5308,-2.5308,-2.5308,-2.5308,-2.5308,-2.5308,-2.5308,-2.5231,-2.4755,-2.5077,-2.4615,-2.2447,-2.1139,-2.0369,-2.0288,-2.0288,-2.0288,-2.0288,-2.0288,-2.0285,-2.0215,-2.0203,-2.0197,-3.9362,-3.8306,-3.7226,-3.6439,-3.5911,-3.5892,-3.5914,-3.5935,-3.5968,-3.5641,-3.4979,-3.3884,-3.3066,-3.2363,-3.1309,-3.08,-3.08,-3.08,-3.08,-3.0799,-3.0758,-3.0603,-3.0239,-2.8857,-2.7954,-2.745,-2.6111,-2.5365,-2.5317,-2.5308,-2.5308,-2.5308,-2.5308,-2.5308,-2.5308,-2.5308,-2.5308,-2.5308,-2.5308,-2.5308,-2.5308,-2.5308,-2.5308,-2.5231,-2.4529,-2.3778,-2.3163,-2.21,-2.1231,-2.0654,-2.0442,-2.0288,-2.0288,-2.0288,-2.0288,-2.0288,-2.0288,-2.0288,-2.0288,-2.0288,-2.0288,-2.0346,-2.1043,-2.162,-2.2062,-2.324,-2.4168,-2.4427,-2.4446,-2.475,-2.5173,-2.5308,-2.5308,-2.5308,-2.5308,-2.5308,-2.5308,-2.5308,-2.5308,-2.5308,-2.5308,-2.5308,-2.5308,-2.5308,-2.5308,-2.5308,-2.5308,-2.5308,-2.5308,-2.5308,-2.5308,-2.5308,-2.5308,-2.5308,-2.5308,-2.5308,-2.5308,-2.5308,-2.5288,-2.5019,-2.424,-2.4562,-2.4231,-2.2004,-2.0946,-2.0369,-2.0308,-2.0288,-2.0288,-2.0288,-2.0288,-2.0288,-2.0261,-2.0238,-2.0222,-3.99,-3.8272,-3.6651,-3.5994,-3.5884,-3.5884,-3.5935,-3.5988,-3.6012,-3.5953,-3.5602,-3.4157,-3.3377,-3.3123,-3.1561,-3.082,-3.08,-3.08,-3.08,-3.08,-3.0778,-3.0354,-2.9537,-2.8621,-2.7732,-2.697,-2.5925,-2.537,-2.5313,-2.5308,-2.5308,-2.5308,-2.5308,-2.5308,-2.5308,-2.5308,-2.5308,-2.5308,-2.5308,-2.5308,-2.5308,-2.5308,-2.5308,-2.5231,-2.4548,-2.411,-2.3841,-2.2408,-2.15,-2.1446,-2.075,-2.0327,-2.0327,-2.0346,-2.0346,-2.0327,-2.0365,-2.0346,-2.0346,-2.0423,-2.0404,-2.0442,-2.1231,-2.1908,-2.272,-2.3648,-2.4504,-2.5235,-2.522,-2.5269,-2.5279,-2.5317,-2.5317,-2.5293,-2.5308,-2.5313,-2.5308,-2.5313,-2.5308,-2.5308,-2.5308,-2.5308,-2.5308,-2.5308,-2.5308,-2.5308,-2.5308,-2.5308,-2.5308,-2.5308,-2.5308,-2.5308,-2.5308,-2.5308,-2.5308,-2.5308,-2.5308,-2.5308,-2.5231,-2.4962,-2.4197,-2.3451,-2.2543,-2.1716,-2.085,-2.0369,-2.0308,-2.0288,-2.0288,-2.0288,-2.0288,-2.0288,-2.0285,-2.0288,-2.0257,-3.9984,-3.8384,-3.7208,-3.642,-3.5904,-3.5882,-3.5931,-3.5958,-3.5988,-3.566,-3.5115,-3.4491,-3.3632,-3.2519,-3.1934,-3.1328,-3.082,-3.08,-3.08,-3.08,-3.08,-3.062,-3.024,-2.8933,-2.8084,-2.752,-2.6188,-2.5398,-2.5317,-2.5298,-2.5308,-2.5308,-2.5308,-2.5308,-2.5308,-2.5308,-2.5308,-2.5308,-2.5308,-2.5308,-2.5308,-2.5308,-2.5308,-2.5288,-2.5038,-2.4625,-2.4125,-2.3471,-2.2932,-2.2355,-2.1523,-2.1058,-2.1077,-2.1062,-2.1077,-2.1115,-2.16,-2.1658,-2.1235,-2.16,-2.1658,-2.1231,-2.2393,-2.322,-2.3706,-2.4412,-2.5081,-2.5321,-2.5393,-2.5373,-2.5369,-2.5364,-2.536,-2.536,-2.536,-2.5374,-2.5365,-2.5361,-2.5351,-2.5313,-2.5308,-2.5308,-2.5308,-2.5308,-2.5308,-2.5308,-2.5308,-2.5308,-2.5308,-2.5308,-2.5308,-2.5308,-2.5308,-2.5308,-2.5308,-2.5308,-2.5308,-2.5308,-2.5154,-2.4462,-2.3716,-2.2908,-2.2062,-2.1154,-2.0442,-2.0346,-2.0288,-2.0288,-2.0288,-2.0288,-2.0288,-2.0288,-2.0288,-2.0288,-2.0265,-3.9542,-3.8414,-3.7274,-3.648,-3.5955,-3.5931,-3.5937,-3.5937,-3.5988,-3.566,-3.5154,-3.4822,-3.3886,-3.2617,-3.2228,-3.1621,-3.0859,-3.08,-3.08,-3.08,-3.08,-3.0664,-3.0255,-2.924,-2.8517,-2.7987,-2.6621,-2.5811,-2.5683,-2.5432,-2.5298,-2.5298,-2.5303,-2.5308,-2.5308,-2.5308,-2.5308,-2.5308,-2.5308,-2.5308,-2.5308,-2.5308,-2.5308,-2.5308,-2.5308,-2.5058,-2.449,-2.4245,-2.386,-2.3201,-2.2393,-2.1908,-2.1908,-2.1927,-2.1927,-2.1985,-2.2447,-2.2566,-2.2085,-2.2489,-2.2524,-2.2043,-2.3201,-2.4105,-2.4149,-2.4898,-2.5321,-2.5388,-2.5387,-2.54,-2.5447,-2.5451,-2.5423,-2.5395,-2.5391,-2.5387,-2.5393,-2.5388,-2.5355,-2.5341,-2.5332,-2.5346,-2.5337,-2.5308,-2.5308,-2.5308,-2.5308,-2.5308,-2.5308,-2.5308,-2.5308,-2.5308,-2.5308,-2.5308,-2.5308,-2.5308,-2.5308,-2.5308,-2.525,-2.4404,-2.3351,-2.2504,-2.1654,-2.0712,-2.0288,-2.0288,-2.0288,-2.0288,-2.0288,-2.0288,-2.0288,-2.0288,-2.0288,-2.0288,-2.0265,-3.8575,-3.8287,-3.6726,-3.6126,-3.6007,-3.5989,-3.601,-3.5991,-3.601,-3.5895,-3.5582,-3.5076,-3.4276,-3.3319,-3.2558,-3.1699,-3.1036,-3.0859,-3.08,-3.08,-3.08,-3.0411,-2.9807,-2.9592,-2.8868,-2.7979,-2.7032,-2.6521,-2.6328,-2.5644,-2.5292,-2.5292,-2.5293,-2.5303,-2.5308,-2.5308,-2.5308,-2.5308,-2.5308,-2.5308,-2.5308,-2.5308,-2.5308,-2.5308,-2.5308,-2.5269,-2.5212,-2.4548,-2.4187,-2.4028,-2.3278,-2.2816,-2.272,-2.2759,-2.2797,-2.2816,-2.2874,-2.2874,-2.2812,-2.2932,-2.3067,-2.2932,-2.3648,-2.424,-2.4403,-2.4946,-2.5388,-2.5391,-2.5408,-2.5429,-2.548,-2.5503,-2.5452,-2.5419,-2.5415,-2.5395,-2.5391,-2.5387,-2.5391,-2.5382,-2.5388,-2.5394,-2.5389,-2.5346,-2.5308,-2.5308,-2.5308,-2.5308,-2.5308,-2.5308,-2.5308,-2.5308,-2.5308,-2.5308,-2.5308,-2.5308,-2.5308,-2.5288,-2.5231,-2.4769,-2.3408,-2.2408,-2.1635,-2.0769,-2.0327,-2.0288,-2.0288,-2.0288,-2.0288,-2.0288,-2.0288,-2.0288,-2.0288,-2.0288,-2.0288,-3.907,-3.8466,-3.7357,-3.6539,-3.6051,-3.6012,-3.6012,-3.6012,-3.6012,-3.568,-3.5232,-3.5446,-3.4782,-3.3611,-3.3084,-3.25,-3.168,-3.1114,-3.08,-3.08,-3.08,-3.0664,-3.0353,-2.9846,-2.8769,-2.7407,-2.6854,-2.6327,-2.5808,-2.5407,-2.5252,-2.5287,-2.5297,-2.5307,-2.5303,-2.5308,-2.5308,-2.5308,-2.5308,-2.5308,-2.5308,-2.5308,-2.5308,-2.5308,-2.5308,-2.5308,-2.5288,-2.5038,-2.4928,-2.4889,-2.4144,-2.3432,-2.3047,-2.3374,-2.3663,-2.3744,-2.4235,-2.4235,-2.3836,-2.4159,-2.4216,-2.399,-2.4447,-2.488,-2.4999,-2.5215,-2.5387,-2.5393,-2.5429,-2.5484,-2.5507,-2.5507,-2.5503,-2.5491,-2.5472,-2.5444,-2.5412,-2.54,-2.5391,-2.5387,-2.5393,-2.5398,-2.5389,-2.5327,-2.5293,-2.5293,-2.5308,-2.5308,-2.5308,-2.5308,-2.5308,-2.5308,-2.5308,-2.5308,-2.5308,-2.5308,-2.5308,-2.5308,-2.525,-2.4885,-2.3581,-2.2547,-2.1735,-2.0923,-2.0481,-2.0288,-2.0288,-2.0288,-2.0288,-2.0288,-2.0288,-2.0288,-2.0288,-2.0288,-2.0288,-3.9058,-3.8474,-3.7301,-3.6519,-3.6031,-3.6012,-3.6012,-3.6012,-3.6012,-3.568,-3.5389,-3.5758,-3.5251,-3.4021,-3.3552,-3.291,-3.2051,-3.1211,-3.08,-3.08,-3.08,-3.08,-3.0761,-3.0328,-2.9526,-2.8335,-2.7528,-2.6869,-2.6246,-2.555,-2.5206,-2.5261,-2.5301,-2.5297,-2.5293,-2.5303,-2.5308,-2.5308,-2.5308,-2.5308,-2.5308,-2.5308,-2.5308,-2.5308,-2.5308,-2.5308,-2.5308,-2.5308,-2.5308,-2.5231,-2.4793,-2.4274,-2.3812,-2.4255,-2.4543,-2.4639,-2.4942,-2.5038,-2.4663,-2.4947,-2.5115,-2.4755,-2.5024,-2.5303,-2.5374,-2.5397,-2.54,-2.5401,-2.546,-2.5507,-2.5507,-2.5507,-2.5507,-2.5507,-2.5507,-2.5484,-2.5433,-2.544,-2.5436,-2.5427,-2.5415,-2.5406,-2.5378,-2.537,-2.5327,-2.5327,-2.5317,-2.5308,-2.5308,-2.5308,-2.5313,-2.5313,-2.5308,-2.5308,-2.5308,-2.5308,-2.5308,-2.5308,-2.5288,-2.4716,-2.3759,-2.299,-2.2216,-2.0981,-2.0308,-2.0288,-2.0288,-2.0288,-2.0288,-2.0288,-2.0288,-2.0288,-2.0288,-2.0288,-2.0288,-3.8611,-3.8376,-3.6734,-3.6051,-3.6012,-3.6012,-3.6012,-3.6012,-3.6012,-3.5973,-3.5953,-3.5973,-3.5504,-3.4608,-3.3749,-3.2928,-3.2052,-3.1192,-3.08,-3.08,-3.0799,-3.0799,-3.076,-3.0692,-3.0437,-3.0029,-2.8789,-2.7941,-2.7334,-2.6071,-2.5236,-2.5239,-2.5266,-2.5306,-2.5292,-2.5293,-2.5303,-2.5308,-2.5308,-2.5308,-2.5308,-2.5308,-2.5308,-2.5308,-2.5308,-2.5308,-2.5308,-2.5308,-2.5308,-2.5308,-2.5231,-2.5135,-2.5212,-2.5308,-2.5212,-2.5192,-2.5288,-2.5288,-2.5269,-2.525,-2.5269,-2.5212,-2.5236,-2.5322,-2.5398,-2.5382,-2.5404,-2.5401,-2.548,-2.5507,-2.5507,-2.5507,-2.5507,-2.5507,-2.5507,-2.5488,-2.5507,-2.5488,-2.5503,-2.548,-2.5433,-2.5397,-2.5397,-2.5391,-2.5402,-2.5397,-2.535,-2.5344,-2.533,-2.5344,-2.5322,-2.5331,-2.5344,-2.5352,-2.5378,-2.5378,-2.5378,-2.5378,-2.5322,-2.4789,-2.3938,-2.3159,-2.2427,-2.1224,-2.0362,-2.0358,-2.0308,-2.0308,-2.0288,-2.0288,-2.0288,-2.0288,-2.03,-2.0296,-2.0318,-3.8611,-3.8415,-3.6734,-3.6012,-3.6012,-3.6012,-3.6012,-3.6012,-3.6012,-3.6012,-3.6012,-3.6012,-3.5524,-3.4648,-3.3788,-3.2929,-3.2051,-3.1192,-3.08,-3.0799,-3.0789,-3.0792,-3.0796,-3.0786,-3.0476,-2.9883,-2.9292,-2.8365,-2.7125,-2.6444,-2.5816,-2.5297,-2.5236,-2.5255,-2.5306,-2.5297,-2.5307,-2.5303,-2.5308,-2.5308,-2.5308,-2.5308,-2.5308,-2.5308,-2.5308,-2.5308,-2.5308,-2.5308,-2.5308,-2.5308,-2.5308,-2.5308,-2.5308,-2.5308,-2.5308,-2.5308,-2.5308,-2.5308,-2.5308,-2.5308,-2.5308,-2.5308,-2.5346,-2.5394,-2.5402,-2.54,-2.5421,-2.5456,-2.5488,-2.5511,-2.5511,-2.5507,-2.5507,-2.5507,-2.5507,-2.5507,-2.5507,-2.5507,-2.5507,-2.5507,-2.5437,-2.541,-2.5418,-2.5441,-2.5456,-2.5467,-2.5446,-2.5428,-2.5424,-2.5439,-2.5429,-2.5443,-2.5457,-2.5453,-2.5437,-2.5437,-2.5457,-2.546,-2.5334,-2.5045,-2.4036,-2.3002,-2.2251,-2.1343,-2.0764,-2.0599,-2.0431,-2.0312,-2.0312,-2.0307,-2.03,-2.0315,-2.0304,-2.0305,-2.0337,-3.8611,-3.8435,-3.6714,-3.6012,-3.6012,-3.6012,-3.6012,-3.6012,-3.6012,-3.6012,-3.6012,-3.6012,-3.5525,-3.4668,-3.3788,-3.291,-3.207,-3.1192,-3.082,-3.08,-3.0794,-3.0791,-3.0792,-3.0788,-3.0523,-3.0046,-2.9599,-2.8631,-2.7451,-2.6841,-2.6126,-2.5452,-2.5262,-2.5247,-2.5255,-2.5271,-2.5268,-2.5307,-2.5293,-2.5293,-2.5303,-2.5308,-2.5308,-2.5308,-2.5308,-2.5308,-2.5308,-2.5308,-2.5308,-2.5308,-2.5308,-2.5308,-2.5308,-2.5308,-2.5308,-2.5308,-2.5298,-2.5307,-2.5293,-2.5293,-2.5293,-2.5303,-2.537,-2.5388,-2.5391,-2.5393,-2.5414,-2.5475,-2.5498,-2.552,-2.5513,-2.5511,-2.5511,-2.5507,-2.5507,-2.5511,-2.5511,-2.5507,-2.5507,-2.5496,-2.5472,-2.5444,-2.5429,-2.5496,-2.554,-2.5532,-2.5504,-2.549,-2.5507,-2.5517,-2.5517,-2.5534,-2.5524,-2.551,-2.5482,-2.5501,-2.5504,-2.5513,-2.5473,-2.5191,-2.4405,-2.3291,-2.2804,-2.218,-2.1407,-2.0853,-2.0762,-2.0585,-2.0363,-2.0356,-2.0334,-2.0337,-2.0332,-2.0327,-2.0354,-3.8611,-3.8454,-3.6734,-3.6012,-3.6012,-3.6012,-3.6012,-3.6012,-3.6012,-3.6012,-3.6012,-3.6012,-3.5506,-3.4647,-3.3788,-3.2929,-3.2071,-3.1192,-3.0875,-3.0795,-3.0792,-3.0789,-3.0798,-3.0794,-3.0744,-3.0581,-2.989,-2.901,-2.8029,-2.7203,-2.6318,-2.5586,-2.5322,-2.5268,-2.5236,-2.5212,-2.5241,-2.5287,-2.5297,-2.5307,-2.5303,-2.5308,-2.5308,-2.5308,-2.5308,-2.5308,-2.5308,-2.5308,-2.5308,-2.5308,-2.5308,-2.5308,-2.5308,-2.5308,-2.5308,-2.5303,-2.5293,-2.5302,-2.5292,-2.5292,-2.5292,-2.5302,-2.5366,-2.5384,-2.5391,-2.5412,-2.5445,-2.5502,-2.552,-2.552,-2.5526,-2.5518,-2.552,-2.5524,-2.5529,-2.5518,-2.5515,-2.5507,-2.5503,-2.5511,-2.5512,-2.5526,-2.5524,-2.5566,-2.5593,-2.5617,-2.5588,-2.5579,-2.5579,-2.5579,-2.557,-2.5557,-2.5544,-2.5547,-2.5539,-2.5534,-2.5539,-2.5569,-2.5598,-2.5385,-2.4955,-2.4161,-2.3784,-2.3205,-2.238,-2.1768,-2.1402,-2.1119,-2.0721,-2.0381,-2.0355,-2.0376,-2.0405,-2.0405,-2.0418,-3.8611,-3.8454,-3.6714,-3.6012,-3.6012,-3.6012,-3.6012,-3.6012,-3.6012,-3.6012,-3.6012,-3.6012,-3.5506,-3.4648,-3.3788,-3.2929,-3.2071,-3.123,-3.0809,-3.0802,-3.0798,-3.079,-3.0784,-3.0786,-3.0789,-3.0714,-3.0615,-2.9643,-2.8415,-2.7777,-2.6976,-2.5622,-2.5369,-2.5302,-2.5283,-2.5247,-2.5231,-2.5282,-2.5297,-2.5293,-2.5293,-2.5298,-2.5293,-2.5308,-2.5308,-2.5308,-2.5308,-2.5308,-2.5308,-2.5308,-2.5308,-2.5308,-2.5308,-2.5308,-2.5308,-2.5303,-2.5298,-2.5307,-2.5292,-2.5306,-2.5306,-2.5311,-2.5361,-2.5388,-2.5391,-2.5444,-2.5483,-2.5505,-2.5504,-2.5526,-2.5559,-2.5578,-2.5581,-2.5576,-2.5578,-2.5581,-2.5561,-2.5549,-2.5525,-2.5514,-2.5534,-2.5568,-2.5587,-2.5641,-2.5675,-2.5679,-2.5664,-2.5664,-2.5664,-2.5644,-2.5626,-2.5614,-2.5609,-2.56,-2.5614,-2.5609,-2.5607,-2.5609,-2.5627,-2.5634,-2.5192,-2.487,-2.4434,-2.3912,-2.3307,-2.2741,-2.2144,-2.1643,-2.1234,-2.0819,-2.0411,-2.0428,-2.0462,-2.0466,-2.0471,-3.8357,-3.7848,-3.6539,-3.6012,-3.6012,-3.6012,-3.6012,-3.6012,-3.6012,-3.6012,-3.6012,-3.6012,-3.5525,-3.4648,-3.3788,-3.2929,-3.2051,-3.121,-3.0789,-3.079,-3.0794,-3.0786,-3.0789,-3.0786,-3.0796,-3.0798,-3.0788,-2.9821,-2.8621,-2.8038,-2.7215,-2.5656,-2.5441,-2.5374,-2.5335,-2.5322,-2.5313,-2.533,-2.5335,-2.5339,-2.5339,-2.5335,-2.5322,-2.5298,-2.5308,-2.5308,-2.5308,-2.5308,-2.5308,-2.5308,-2.5308,-2.5308,-2.5308,-2.5308,-2.5308,-2.5303,-2.5293,-2.5278,-2.5262,-2.5252,-2.5233,-2.5257,-2.5308,-2.537,-2.5406,-2.544,-2.5482,-2.5518,-2.5549,-2.5585,-2.5621,-2.5607,-2.5603,-2.5601,-2.5601,-2.5601,-2.5598,-2.5578,-2.5544,-2.5554,-2.5603,-2.5641,-2.5675,-2.5689,-2.5703,-2.5684,-2.5684,-2.5684,-2.5684,-2.5664,-2.5684,-2.5678,-2.5677,-2.5674,-2.569,-2.5687,-2.5664,-2.5665,-2.5668,-2.567,-2.5509,-2.5249,-2.501,-2.455,-2.4108,-2.3373,-2.2789,-2.227,-2.1581,-2.0891,-2.0507,-2.0509,-2.051,-2.0535,-2.0539,-3.7965,-3.7223,-3.6363,-3.6012,-3.6012,-3.6012,-3.6012,-3.6012,-3.6012,-3.6012,-3.6012,-3.6012,-3.5623,-3.4842,-3.3827,-3.289,-3.1895,-3.1249,-3.0792,-3.0798,-3.079,-3.08,-3.0784,-3.0782,-3.0776,-3.0798,-3.0789,-2.9843,-2.8645,-2.808,-2.7242,-2.5836,-2.552,-2.5457,-2.5414,-2.5398,-2.5394,-2.541,-2.5418,-2.5418,-2.5422,-2.541,-2.5357,-2.5303,-2.5308,-2.5308,-2.5308,-2.5308,-2.5308,-2.5308,-2.5303,-2.5313,-2.5313,-2.5308,-2.5308,-2.5313,-2.5331,-2.5336,-2.5303,-2.5279,-2.5274,-2.5244,-2.5293,-2.5364,-2.5423,-2.5461,-2.5505,-2.5552,-2.5611,-2.5653,-2.5688,-2.5661,-2.5608,-2.5624,-2.5621,-2.5619,-2.5618,-2.5618,-2.5621,-2.5616,-2.5637,-2.5671,-2.5675,-2.5703,-2.5703,-2.5703,-2.5703,-2.5703,-2.5703,-2.5703,-2.5703,-2.5703,-2.5701,-2.5699,-2.5698,-2.5696,-2.5695,-2.5696,-2.5698,-2.5697,-2.5695,-2.5534,-2.5354,-2.5373,-2.492,-2.412,-2.3319,-2.2669,-2.1911,-2.1022,-2.0591,-2.0565,-2.0567,-2.0593,-2.0594,-3.7438,-3.7223,-3.6363,-3.6012,-3.6012,-3.6012,-3.6012,-3.6012,-3.6012,-3.6012,-3.6012,-3.6012,-3.5914,-3.5368,-3.404,-3.2576,-3.1366,-3.0859,-3.0794,-3.0799,-3.0786,-3.0789,-3.0786,-3.0769,-3.0762,-3.079,-3.0726,-2.9907,-2.8642,-2.8133,-2.7267,-2.5983,-2.5571,-2.5513,-2.5498,-2.5447,-2.5453,-2.5502,-2.5505,-2.5486,-2.5476,-2.5421,-2.537,-2.5303,-2.5308,-2.5308,-2.5308,-2.5308,-2.5308,-2.5298,-2.5348,-2.5378,-2.5386,-2.5367,-2.5375,-2.5379,-2.5418,-2.5444,-2.5433,-2.5444,-2.5414,-2.5391,-2.5421,-2.546,-2.5487,-2.5518,-2.5559,-2.5605,-2.5644,-2.5684,-2.5703,-2.5684,-2.5684,-2.5684,-2.5664,-2.5664,-2.5664,-2.5664,-2.5684,-2.5667,-2.5678,-2.5703,-2.5703,-2.5703,-2.5703,-2.5703,-2.5703,-2.5703,-2.5703,-2.5703,-2.5703,-2.5703,-2.5703,-2.5702,-2.57,-2.5699,-2.5699,-2.5699,-2.57,-2.57,-2.5698,-2.5695,-2.5654,-2.5575,-2.5318,-2.4671,-2.3891,-2.3052,-2.2037,-2.1003,-2.075,-2.0613,-2.0594,-2.0594,-2.0594,-3.7048,-3.6597,-3.6168,-3.6012,-3.6012,-3.6012,-3.6012,-3.6012,-3.6012,-3.6012,-3.6012,-3.6012,-3.6012,-3.5543,-3.4177,-3.244,-3.1171,-3.08,-3.0796,-3.0788,-3.0792,-3.0802,-3.0798,-3.0774,-3.0789,-3.079,-3.0721,-2.9949,-2.8457,-2.8279,-2.7299,-2.6085,-2.563,-2.5615,-2.5589,-2.5549,-2.5544,-2.5593,-2.5598,-2.5591,-2.5556,-2.5457,-2.537,-2.5317,-2.5308,-2.5308,-2.5308,-2.5308,-2.5308,-2.5308,-2.5361,-2.5379,-2.5414,-2.5463,-2.5489,-2.547,-2.5489,-2.5517,-2.5505,-2.5518,-2.5467,-2.5457,-2.5483,-2.5505,-2.5544,-2.5565,-2.5615,-2.5653,-2.5664,-2.5703,-2.5703,-2.5703,-2.5703,-2.5703,-2.5703,-2.5703,-2.5703,-2.5703,-2.5703,-2.5703,-2.5703,-2.5703,-2.5703,-2.5703,-2.5703,-2.5703,-2.5703,-2.5703,-2.5703,-2.5703,-2.5703,-2.5703,-2.5703,-2.5702,-2.5701,-2.5701,-2.5701,-2.5702,-2.5702,-2.5702,-2.5701,-2.57,-2.5698,-2.5658,-2.5323,-2.5026,-2.397,-2.2955,-2.1959,-2.1061,-2.0789,-2.0594,-2.0594,-2.0594,-2.0594,-3.6636,-3.6012,-3.6012,-3.6012,-3.6012,-3.6012,-3.6012,-3.6012,-3.6012,-3.6012,-3.6012,-3.5992,-3.5895,-3.5309,-3.3904,-3.2264,-3.0839,-3.08,-3.08,-3.0796,-3.0785,-3.0798,-3.0792,-3.08,-3.0793,-3.0796,-3.078,-2.9928,-2.8594,-2.8282,-2.7287,-2.6153,-2.5697,-2.5693,-2.5669,-2.5618,-2.5665,-2.5689,-2.5693,-2.5663,-2.5576,-2.5467,-2.537,-2.5298,-2.5308,-2.5308,-2.5308,-2.5322,-2.5331,-2.5344,-2.541,-2.5446,-2.5444,-2.5549,-2.5576,-2.5544,-2.5556,-2.5551,-2.5549,-2.5571,-2.5559,-2.5549,-2.5546,-2.5549,-2.5571,-2.5598,-2.563,-2.5687,-2.5703,-2.5703,-2.5703,-2.5703,-2.5703,-2.5703,-2.5703,-2.5703,-2.5703,-2.5703,-2.5703,-2.5703,-2.5703,-2.5703,-2.5703,-2.5703,-2.5703,-2.5703,-2.5703,-2.5703,-2.5703,-2.5703,-2.5703,-2.5703,-2.5703,-2.5702,-2.5701,-2.5702,-2.5702,-2.5703,-2.5703,-2.5703,-2.5703,-2.5702,-2.5702,-2.57,-2.5658,-2.5225,-2.4051,-2.2937,-2.2079,-2.1357,-2.0868,-2.0595,-2.0596,-2.0594,-2.0594,-3.609,-3.6012,-3.6012,-3.6012,-3.6012,-3.6012,-3.6012,-3.6012,-3.6012,-3.6012,-3.6012,-3.5953,-3.5584,-3.4588,-3.3105,-3.1758,-3.1036,-3.08,-3.08,-3.0799,-3.0788,-3.0801,-3.0798,-3.0793,-3.0784,-3.0799,-3.0801,-2.9832,-2.8749,-2.838,-2.7425,-2.6116,-2.5763,-2.5705,-2.5683,-2.568,-2.5703,-2.5704,-2.5704,-2.5639,-2.5524,-2.5459,-2.5389,-2.5317,-2.5308,-2.5298,-2.5313,-2.5344,-2.5363,-2.5395,-2.5507,-2.5559,-2.5593,-2.5645,-2.5681,-2.568,-2.5679,-2.5659,-2.5671,-2.5666,-2.5662,-2.5655,-2.5663,-2.5637,-2.5627,-2.5652,-2.5676,-2.5698,-2.5702,-2.5703,-2.5703,-2.5703,-2.5703,-2.5703,-2.5703,-2.5703,-2.5703,-2.5703,-2.5703,-2.5703,-2.5703,-2.5703,-2.5703,-2.5703,-2.5703,-2.5703,-2.5703,-2.5703,-2.5703,-2.5703,-2.5703,-2.5703,-2.5703,-2.5702,-2.5702,-2.5702,-2.5703,-2.5703,-2.5703,-2.5703,-2.5703,-2.5703,-2.5703,-2.5702,-2.5703,-2.5254,-2.4037,-2.302,-2.2259,-2.1555,-2.093,-2.0696,-2.0599,-2.0597,-2.0595,-3.6012,-3.6012,-3.6012,-3.6012,-3.6012,-3.6012,-3.6012,-3.6012,-3.6012,-3.6012,-3.6012,-3.6012,-3.527,-3.3905,-3.2597,-3.1641,-3.0956,-3.08,-3.08,-3.08,-3.0795,-3.0792,-3.0791,-3.0785,-3.0786,-3.0788,-3.0695,-3.0249,-2.9219,-2.844,-2.7581,-2.6547,-2.5942,-2.5707,-2.5687,-2.5687,-2.5687,-2.5683,-2.5653,-2.5578,-2.551,-2.5432,-2.537,-2.5293,-2.5293,-2.5317,-2.5372,-2.5382,-2.5418,-2.546,-2.5549,-2.56,-2.563,-2.5653,-2.5687,-2.5687,-2.5707,-2.5686,-2.5686,-2.5687,-2.5705,-2.5703,-2.5705,-2.5681,-2.5675,-2.568,-2.5689,-2.5699,-2.5702,-2.5702,-2.5702,-2.5703,-2.5703,-2.5703,-2.5703,-2.5703,-2.5703,-2.5703,-2.5703,-2.5703,-2.5703,-2.5703,-2.5703,-2.5703,-2.5703,-2.5703,-2.5703,-2.5703,-2.5703,-2.5703,-2.5703,-2.5703,-2.5703,-2.5703,-2.5702,-2.5702,-2.5703,-2.5703,-2.5703,-2.5703,-2.5703,-2.5703,-2.5703,-2.5703,-2.5703,-2.5,-2.3965,-2.3219,-2.2554,-2.1753,-2.0952,-2.0757,-2.0601,-2.0601,-2.0599,-3.6012,-3.6012,-3.6012,-3.6012,-3.6012,-3.6012,-3.6012,-3.6012,-3.6012,-3.6012,-3.5856,-3.5504,-3.4431,-3.3163,-3.2168,-3.1328,-3.082,-3.08,-3.08,-3.08,-3.08,-3.08,-3.0799,-3.0799,-3.0799,-3.08,-3.0799,-3.0449,-2.9786,-2.885,-2.7854,-2.6977,-2.6079,-2.5766,-2.5687,-2.5687,-2.5687,-2.5686,-2.5642,-2.557,-2.5524,-2.5462,-2.5402,-2.5367,-2.5336,-2.533,-2.5406,-2.5425,-2.546,-2.5524,-2.5595,-2.5641,-2.5645,-2.5679,-2.5687,-2.5687,-2.5687,-2.5687,-2.5687,-2.5687,-2.5687,-2.5687,-2.5687,-2.5687,-2.569,-2.5693,-2.5694,-2.5698,-2.5701,-2.5702,-2.5702,-2.5703,-2.5703,-2.5703,-2.5703,-2.5703,-2.5703,-2.5703,-2.5703,-2.5703,-2.5703,-2.5703,-2.5703,-2.5703,-2.5703,-2.5703,-2.5703,-2.5703,-2.5703,-2.5703,-2.5703,-2.5703,-2.5703,-2.5703,-2.5703,-2.5703,-2.5703,-2.5703,-2.5703,-2.5703,-2.5703,-2.5703,-2.5703,-2.5703,-2.5703,-2.5391,-2.4746,-2.3787,-2.2829,-2.1951,-2.1169,-2.0779,-2.0603,-2.0602,-2.0601,-3.6012,-3.6012,-3.6012,-3.6012,-3.6012,-3.6012,-3.6012,-3.5992,-3.5973,-3.5895,-3.5543,-3.4372,-3.3183,-3.2246,-3.1504,-3.0956,-3.08,-3.08,-3.08,-3.08,-3.08,-3.08,-3.08,-3.08,-3.08,-3.08,-3.0781,-3.0742,-3.0273,-2.8889,-2.7913,-2.6996,-2.6137,-2.5805,-2.5687,-2.5687,-2.5687,-2.5683,-2.5621,-2.5601,-2.5547,-2.5489,-2.5448,-2.5443,-2.5382,-2.5352,-2.5466,-2.5495,-2.5524,-2.5593,-2.5645,-2.568,-2.5681,-2.5704,-2.5687,-2.5687,-2.5687,-2.5687,-2.5687,-2.5687,-2.5687,-2.5687,-2.5688,-2.5689,-2.5692,-2.5693,-2.5694,-2.5696,-2.57,-2.5702,-2.5703,-2.5703,-2.5703,-2.5703,-2.5703,-2.5703,-2.5703,-2.5703,-2.5703,-2.5703,-2.5703,-2.5703,-2.5703,-2.5703,-2.5703,-2.5703,-2.5703,-2.5703,-2.5703,-2.5703,-2.5703,-2.5703,-2.5703,-2.5703,-2.5703,-2.5703,-2.5703,-2.5703,-2.5703,-2.5703,-2.5703,-2.5703,-2.5703,-2.5703,-2.5684,-2.5625,-2.5332,-2.4082,-2.2929,-2.2069,-2.1366,-2.0839,-2.0604,-2.0604,-2.0603,-3.6012,-3.6012,-3.6012,-3.6012,-3.6012,-3.6012,-3.6012,-3.5895,-3.5446,-3.4861,-3.4353,-3.3163,-3.2422,-3.1914,-3.1231,-3.08,-3.08,-3.08,-3.08,-3.08,-3.08,-3.08,-3.08,-3.08,-3.08,-3.08,-3.0781,-3.045,-2.9866,-2.883,-2.7914,-2.6996,-2.6137,-2.5825,-2.5687,-2.5687,-2.5687,-2.5682,-2.5644,-2.5603,-2.557,-2.5502,-2.5476,-2.5486,-2.5473,-2.547,-2.5542,-2.5574,-2.5601,-2.5647,-2.5682,-2.5706,-2.5687,-2.5687,-2.5687,-2.5687,-2.5687,-2.5687,-2.5687,-2.5688,-2.5688,-2.5691,-2.5692,-2.5693,-2.5695,-2.5698,-2.5698,-2.57,-2.5701,-2.5702,-2.5703,-2.5703,-2.5703,-2.5703,-2.5703,-2.5703,-2.5703,-2.5703,-2.5703,-2.5703,-2.5703,-2.5703,-2.5703,-2.5703,-2.5703,-2.5703,-2.5703,-2.5703,-2.5703,-2.5703,-2.5703,-2.5703,-2.5703,-2.5703,-2.5703,-2.5703,-2.5703,-2.5703,-2.5703,-2.5703,-2.5703,-2.5703,-2.5703,-2.5703,-2.5703,-2.5664,-2.5156,-2.4023,-2.3144,-2.25,-2.1602,-2.0722,-2.0605,-2.0605,-2.0605,-3.6012,-3.6012,-3.6012,-3.6012,-3.6012,-3.6012,-3.5856,-3.5524,-3.4998,-3.4022,-3.3007,-3.2363,-3.1914,-3.1602,-3.1153,-3.08,-3.08,-3.08,-3.08,-3.08,-3.08,-3.08,-3.08,-3.08,-3.08,-3.08,-3.0722,-3.0431,-2.9651,-2.8732,-2.7855,-2.6996,-2.6176,-2.5786,-2.5687,-2.5687,-2.5687,-2.5683,-2.5654,-2.5639,-2.5614,-2.5559,-2.5547,-2.5561,-2.554,-2.5539,-2.5576,-2.5609,-2.5616,-2.5657,-2.5687,-2.5687,-2.5687,-2.5687,-2.5687,-2.5687,-2.5687,-2.5687,-2.5687,-2.5688,-2.5689,-2.5693,-2.5694,-2.5696,-2.5699,-2.57,-2.5701,-2.5701,-2.5702,-2.5703,-2.5703,-2.5703,-2.5703,-2.5703,-2.5703,-2.5703,-2.5703,-2.5703,-2.5703,-2.5703,-2.5703,-2.5703,-2.5703,-2.5703,-2.5703,-2.5703,-2.5703,-2.5703,-2.5703,-2.5703,-2.5703,-2.5703,-2.5703,-2.5703,-2.5703,-2.5703,-2.5703,-2.5703,-2.5703,-2.5703,-2.5703,-2.5703,-2.5703,-2.5703,-2.5703,-2.5703,-2.5195,-2.4375,-2.3711,-2.3086,-2.1934,-2.0605,-2.0605,-2.0605,-2.0605,-3.6012,-3.6012,-3.6012,-3.5992,-3.5934,-3.5992,-3.5524,-3.4764,-3.4511,-3.3573,-3.2204,-3.197,-3.1577,-3.1049,-3.0828,-3.0794,-3.0796,-3.0798,-3.08,-3.08,-3.08,-3.08,-3.08,-3.08,-3.08,-3.08,-3.0587,-3.0157,-2.9456,-2.8479,-2.7679,-2.6918,-2.6059,-2.5687,-2.5687,-2.5687,-2.5687,-2.5687,-2.5705,-2.5703,-2.5677,-2.5616,-2.5639,-2.5637,-2.5589,-2.5578,-2.5645,-2.5644,-2.565,-2.5683,-2.5687,-2.5687,-2.5687,-2.5687,-2.5687,-2.5687,-2.5687,-2.5687,-2.5687,-2.5688,-2.5691,-2.5694,-2.5696,-2.5698,-2.57,-2.5702,-2.5702,-2.5702,-2.5703,-2.5703,-2.5703,-2.5703,-2.5703,-2.5703,-2.5703,-2.5703,-2.5703,-2.5703,-2.5703,-2.5703,-2.5703,-2.5703,-2.5703,-2.5703,-2.5703,-2.5703,-2.5703,-2.5703,-2.5703,-2.5703,-2.5703,-2.5703,-2.5703,-2.5703,-2.5703,-2.5703,-2.5703,-2.5703,-2.5703,-2.5703,-2.5703,-2.5703,-2.5703,-2.5703,-2.5703,-2.5703,-2.5352,-2.4902,-2.3887,-2.2773,-2.1621,-2.0625,-2.0605,-2.0605,-2.0605,-3.6012,-3.6012,-3.6012,-3.566,-3.5271,-3.5778,-3.5192,-3.3886,-3.3205,-3.2299,-3.1361,-3.1166,-3.1047,-3.074,-3.072,-3.0732,-3.0735,-3.0798,-3.08,-3.08,-3.08,-3.08,-3.08,-3.08,-3.08,-3.0645,-3.0333,-2.963,-2.8674,-2.7952,-2.7034,-2.6195,-2.5923,-2.5726,-2.5687,-2.5687,-2.5687,-2.5687,-2.5687,-2.5687,-2.5706,-2.568,-2.5677,-2.5706,-2.5645,-2.5648,-2.5706,-2.5655,-2.568,-2.5706,-2.5687,-2.5687,-2.5687,-2.5687,-2.5687,-2.5688,-2.5689,-2.5694,-2.5696,-2.5697,-2.5698,-2.5699,-2.57,-2.5701,-2.5703,-2.5703,-2.5703,-2.5703,-2.5703,-2.5703,-2.5703,-2.5703,-2.5703,-2.5703,-2.5703,-2.5703,-2.5703,-2.5703,-2.5703,-2.5703,-2.5703,-2.5703,-2.5703,-2.5703,-2.5703,-2.5703,-2.5703,-2.5703,-2.5703,-2.5703,-2.5703,-2.5703,-2.5703,-2.5703,-2.5703,-2.5703,-2.5703,-2.5703,-2.5703,-2.5703,-2.5703,-2.5703,-2.5703,-2.5703,-2.5703,-2.5664,-2.5332,-2.4805,-2.3477,-2.2285,-2.1426,-2.0762,-2.0605,-2.0605,-2.0605,-3.5817,-3.5563,-3.5563,-3.4861,-3.41,-3.5037,-3.4549,-3.2988,-3.2029,-3.1271,-3.0841,-3.073,-3.0681,-3.0652,-3.0664,-3.0701,-3.0711,-3.0735,-3.0798,-3.0799,-3.08,-3.08,-3.08,-3.08,-3.08,-3.0567,-2.9982,-2.9181,-2.838,-2.7445,-2.6606,-2.598,-2.5687,-2.5687,-2.5687,-2.5687,-2.5687,-2.5687,-2.5687,-2.5687,-2.5687,-2.5686,-2.5686,-2.5687,-2.5685,-2.5687,-2.5687,-2.5687,-2.5687,-2.5687,-2.5687,-2.5687,-2.5687,-2.5687,-2.5687,-2.5689,-2.5691,-2.5696,-2.5699,-2.57,-2.57,-2.5701,-2.5702,-2.5703,-2.5703,-2.5703,-2.5703,-2.5703,-2.5703,-2.5703,-2.5703,-2.5703,-2.5703,-2.5703,-2.5703,-2.5703,-2.5703,-2.5703,-2.5703,-2.5703,-2.5703,-2.5703,-2.5703,-2.5703,-2.5703,-2.5703,-2.5703,-2.5703,-2.5703,-2.5703,-2.5703,-2.5703,-2.5703,-2.5703,-2.5703,-2.5703,-2.5703,-2.5703,-2.5703,-2.5703,-2.5703,-2.5703,-2.5703,-2.5703,-2.5703,-2.5625,-2.5391,-2.4687,-2.3633,-2.2695,-2.1836,-2.123,-2.0723,-2.0605,-2.0605,-3.5426,-3.4705,-3.4668,-3.371,-3.2598,-3.3809,-3.3518,-3.2095,-3.1232,-3.0851,-3.0792,-3.0725,-3.0685,-3.0665,-3.0688,-3.07,-3.0701,-3.0713,-3.076,-3.0795,-3.08,-3.08,-3.08,-3.08,-3.08,-3.0509,-2.9884,-2.8908,-2.8243,-2.7171,-2.6313,-2.5864,-2.5707,-2.5687,-2.5687,-2.5687,-2.5687,-2.5687,-2.5687,-2.5687,-2.5687,-2.5687,-2.5687,-2.5687,-2.5687,-2.5687,-2.5687,-2.5687,-2.5687,-2.5687,-2.5687,-2.5687,-2.5687,-2.5687,-2.5687,-2.5689,-2.5693,-2.5698,-2.57,-2.5702,-2.5702,-2.5702,-2.5703,-2.5703,-2.5703,-2.5703,-2.5703,-2.5703,-2.5703,-2.5703,-2.5703,-2.5703,-2.5703,-2.5703,-2.5703,-2.5703,-2.5703,-2.5703,-2.5703,-2.5703,-2.5703,-2.5703,-2.5703,-2.5703,-2.5703,-2.5703,-2.5703,-2.5703,-2.5703,-2.5703,-2.5703,-2.5703,-2.5703,-2.5703,-2.5703,-2.5703,-2.5703,-2.5703,-2.5703,-2.5703,-2.5703,-2.5703,-2.5703,-2.5703,-2.5703,-2.5605,-2.5469,-2.4941,-2.4121,-2.3203,-2.2363,-2.1387,-2.0781,-2.0625,-2.0605,-3.4001,-3.3788,-3.3788,-3.3105,-3.2189,-3.2036,-3.1979,-3.196,-3.1237,-3.0813,-3.0728,-3.0703,-3.0662,-3.0573,-3.0606,-3.0648,-3.0697,-3.0743,-3.0778,-3.0794,-3.08,-3.08,-3.08,-3.08,-3.08,-3.0312,-2.9551,-2.8615,-2.803,-2.6956,-2.6097,-2.5726,-2.5687,-2.5687,-2.5687,-2.5687,-2.5687,-2.5687,-2.5687,-2.5687,-2.5687,-2.5687,-2.5687,-2.5687,-2.5687,-2.5687,-2.5687,-2.5687,-2.5687,-2.5687,-2.5687,-2.5687,-2.5687,-2.5687,-2.5689,-2.5697,-2.57,-2.5702,-2.5703,-2.5703,-2.5703,-2.5703,-2.5703,-2.5703,-2.5703,-2.5703,-2.5703,-2.5703,-2.5703,-2.5703,-2.5703,-2.5703,-2.5703,-2.5703,-2.5703,-2.5703,-2.5703,-2.5703,-2.5703,-2.5703,-2.5703,-2.5703,-2.5703,-2.5703,-2.5703,-2.5703,-2.5703,-2.5703,-2.5703,-2.5703,-2.5703,-2.5703,-2.5703,-2.5703,-2.5703,-2.5703,-2.5703,-2.5703,-2.5703,-2.5703,-2.5703,-2.5703,-2.5703,-2.5703,-2.5703,-2.5703,-2.5664,-2.5078,-2.4473,-2.3769,-2.293,-2.1816,-2.0937,-2.0762,-2.0625,-3.3201,-3.289,-3.2889,-3.2383,-3.1585,-3.1103,-3.1203,-3.1496,-3.1086,-3.0807,-3.0708,-3.0686,-3.0607,-3.0535,-3.0544,-3.0582,-3.0644,-3.0703,-3.0769,-3.0801,-3.0796,-3.08,-3.08,-3.08,-3.08,-3.0195,-2.9336,-2.836,-2.7795,-2.6683,-2.5687,-2.5687,-2.5687,-2.5687,-2.5687,-2.5687,-2.5687,-2.5687,-2.5687,-2.5687,-2.5687,-2.5687,-2.5687,-2.5687,-2.5687,-2.5687,-2.5687,-2.5687,-2.5687,-2.5687,-2.5687,-2.5687,-2.5688,-2.5688,-2.5693,-2.5699,-2.5701,-2.5703,-2.5703,-2.5703,-2.5703,-2.5703,-2.5702,-2.57,-2.5702,-2.5703,-2.5703,-2.5703,-2.5703,-2.5703,-2.5703,-2.5703,-2.5703,-2.5703,-2.5703,-2.5703,-2.5703,-2.5703,-2.5703,-2.5703,-2.5703,-2.5703,-2.5703,-2.5703,-2.5703,-2.5703,-2.5703,-2.5703,-2.5703,-2.5703,-2.5703,-2.5703,-2.5703,-2.5703,-2.5703,-2.5703,-2.5703,-2.5703,-2.5703,-2.5703,-2.5703,-2.5703,-2.5703,-2.5703,-2.5703,-2.5703,-2.5703,-2.541,-2.4882,-2.4217,-2.3612,-2.2713,-2.1679,-2.0859,-2.0723,-3.2714,-3.1993,-3.1993,-3.1563,-3.0881,-3.0871,-3.0933,-3.0894,-3.0845,-3.0785,-3.0713,-3.0645,-3.0595,-3.0543,-3.0519,-3.0561,-3.063,-3.0678,-3.0725,-3.0778,-3.0783,-3.0771,-3.0773,-3.0781,-3.0664,-3.0137,-2.9239,-2.8049,-2.756,-2.6566,-2.5687,-2.5687,-2.5687,-2.5687,-2.5687,-2.5687,-2.5687,-2.5687,-2.5687,-2.5687,-2.5687,-2.5687,-2.5687,-2.5687,-2.5687,-2.5687,-2.5687,-2.5687,-2.5687,-2.5687,-2.5687,-2.5687,-2.5689,-2.5693,-2.5697,-2.57,-2.5702,-2.5703,-2.5703,-2.5703,-2.5703,-2.5703,-2.5697,-2.569,-2.5672,-2.5675,-2.5664,-2.5664,-2.5664,-2.567,-2.5672,-2.567,-2.5671,-2.5674,-2.5664,-2.5684,-2.5703,-2.5703,-2.5703,-2.5703,-2.5703,-2.5703,-2.5703,-2.5703,-2.5703,-2.5703,-2.5703,-2.5703,-2.5702,-2.5702,-2.57,-2.57,-2.5701,-2.5702,-2.5702,-2.5703,-2.5703,-2.5703,-2.5703,-2.5703,-2.5703,-2.5703,-2.5703,-2.5703,-2.5703,-2.5702,-2.5644,-2.5448,-2.5232,-2.4821,-2.4215,-2.3609,-2.2672,-2.1677,-2.0897,-3.1308,-3.1114,-3.1114,-3.0977,-3.0821,-3.0867,-3.0911,-3.0894,-3.0875,-3.0827,-3.0773,-3.0758,-3.0691,-3.0568,-3.0564,-3.0591,-3.0611,-3.0638,-3.0671,-3.0703,-3.0709,-3.073,-3.0734,-3.075,-3.0486,-2.9708,-2.8771,-2.76,-2.6663,-2.598,-2.5687,-2.5687,-2.5687,-2.5687,-2.5688,-2.5688,-2.5687,-2.5688,-2.5687,-2.5687,-2.5687,-2.5687,-2.5687,-2.5687,-2.5687,-2.5687,-2.5687,-2.5687,-2.5687,-2.5687,-2.5687,-2.5689,-2.5692,-2.5696,-2.57,-2.5702,-2.5703,-2.5703,-2.5703,-2.5703,-2.5703,-2.5698,-2.5688,-2.5657,-2.5629,-2.5629,-2.5627,-2.5626,-2.5624,-2.5626,-2.5627,-2.5623,-2.5641,-2.5627,-2.5634,-2.5666,-2.5694,-2.5684,-2.5684,-2.5703,-2.5703,-2.5703,-2.5703,-2.5703,-2.5703,-2.5703,-2.5703,-2.5702,-2.57,-2.5699,-2.5673,-2.5673,-2.5699,-2.57,-2.57,-2.568,-2.5681,-2.5682,-2.5703,-2.5703,-2.5703,-2.5703,-2.5703,-2.5702,-2.5702,-2.5701,-2.57,-2.5661,-2.5426,-2.515,-2.4837,-2.4231,-2.38,-2.2941,-2.185,-3.08,-3.08,-3.08,-3.08,-3.0821,-3.0866,-3.0909,-3.0912,-3.0915,-3.0875,-3.083,-3.0822,-3.0753,-3.0639,-3.0614,-3.0605,-3.0603,-3.0614,-3.0626,-3.0644,-3.0649,-3.0669,-3.0713,-3.0732,-3.0243,-2.9528,-2.8243,-2.7015,-2.5884,-2.5687,-2.5687,-2.5687,-2.5687,-2.5688,-2.5689,-2.5689,-2.5688,-2.569,-2.5689,-2.5688,-2.5688,-2.5687,-2.5687,-2.5687,-2.5687,-2.5687,-2.5687,-2.5687,-2.5687,-2.5688,-2.5689,-2.5691,-2.5694,-2.5699,-2.5701,-2.5702,-2.5703,-2.5703,-2.5703,-2.5703,-2.5703,-2.5692,-2.5672,-2.5616,-2.5571,-2.5571,-2.5583,-2.558,-2.5556,-2.5559,-2.5595,-2.5598,-2.56,-2.5607,-2.5618,-2.563,-2.5658,-2.5664,-2.5684,-2.5703,-2.5703,-2.5703,-2.5703,-2.5703,-2.5703,-2.5703,-2.5703,-2.5696,-2.5694,-2.5687,-2.5661,-2.5655,-2.5661,-2.5666,-2.5643,-2.5645,-2.5649,-2.5675,-2.5678,-2.5701,-2.5702,-2.5702,-2.5702,-2.57,-2.5699,-2.5698,-2.5698,-2.5698,-2.5696,-2.5497,-2.5223,-2.4871,-2.4479,-2.4068,-2.3173,-3.08,-3.08,-3.08,-3.08,-3.0801,-3.0865,-3.0888,-3.0908,-3.0912,-3.0915,-3.0876,-3.0829,-3.077,-3.0713,-3.0642,-3.0623,-3.0599,-3.0585,-3.058,-3.0593,-3.0579,-3.0626,-3.0667,-3.0662,-3.0047,-2.8978,-2.7601,-2.6666,-2.5731,-2.569,-2.5689,-2.5688,-2.5688,-2.5689,-2.5691,-2.569,-2.5689,-2.5691,-2.5691,-2.569,-2.5689,-2.5687,-2.5687,-2.5687,-2.5688,-2.5688,-2.5688,-2.5688,-2.5688,-2.569,-2.5693,-2.5695,-2.5697,-2.57,-2.5702,-2.5703,-2.5703,-2.5703,-2.5703,-2.5703,-2.5703,-2.5684,-2.5618,-2.5578,-2.5526,-2.5522,-2.5537,-2.554,-2.5514,-2.5523,-2.5546,-2.5559,-2.5564,-2.5571,-2.5585,-2.5582,-2.5609,-2.5618,-2.5647,-2.5682,-2.568,-2.5674,-2.5684,-2.5684,-2.5684,-2.5684,-2.5696,-2.5685,-2.5692,-2.566,-2.5629,-2.5613,-2.5589,-2.5595,-2.5584,-2.5591,-2.5598,-2.5609,-2.5637,-2.5673,-2.57,-2.5701,-2.57,-2.5696,-2.5695,-2.5694,-2.5693,-2.5692,-2.5689,-2.5687,-2.5513,-2.526,-2.5044,-2.4653,-2.4321,-3.08,-3.08,-3.08,-3.08,-3.08,-3.0822,-3.0845,-3.0907,-3.0909,-3.0913,-3.0915,-3.0896,-3.085,-3.0792,-3.0717,-3.0653,-3.0609,-3.057,-3.0525,-3.0506,-3.0557,-3.0595,-3.0515,-3.0289,-2.9671,-2.8436,-2.7056,-2.603,-2.5696,-2.5694,-2.5692,-2.5693,-2.5689,-2.5688,-2.5688,-2.5688,-2.5691,-2.5694,-2.5695,-2.5694,-2.5695,-2.5694,-2.5688,-2.5689,-2.5691,-2.5689,-2.5689,-2.5691,-2.5693,-2.5694,-2.5696,-2.5699,-2.5701,-2.5702,-2.5703,-2.5703,-2.5703,-2.5703,-2.5703,-2.5703,-2.5703,-2.5647,-2.5593,-2.5581,-2.5544,-2.5522,-2.5533,-2.5533,-2.551,-2.551,-2.5527,-2.5527,-2.5534,-2.5531,-2.555,-2.5538,-2.5556,-2.558,-2.5611,-2.5606,-2.5608,-2.5623,-2.5625,-2.5625,-2.5625,-2.5629,-2.5621,-2.5621,-2.5619,-2.5622,-2.5598,-2.5557,-2.5534,-2.5523,-2.5535,-2.5526,-2.5539,-2.5556,-2.558,-2.5626,-2.5646,-2.5699,-2.5698,-2.5661,-2.5665,-2.5668,-2.5686,-2.5681,-2.5706,-2.5706,-2.5687,-2.5571,-2.5414,-2.5258,-2.4926]},{"header":{"parameterUnit":"m.s-1","parameterCategory":1,"la1":31.0,"la2":29.5877,"lo1":-88.7671,"lo2":-86.6584,"dy":0.0162,"dx":0.0185,"nx":115,"ny":88,"refTime":"2024-07-02T18:00:00:Z","depth":0,"parameterNumber":3,"parameterNumberName":"V-component_of_WINDS"},"data":[0.0,0.0,0.0,0.0,0.0,0.0,0.0,0.0,0.0,0.0,0.0,0.0,0.0,0.0,0.0,0.0,0.0,0.0,0.0,0.0,0.0,0.0,0.0,0.0,0.0,0.0,0.0,0.0,0.0,0.0,0.0,0.0,0.0,0.0,0.0,0.0,0.0,0.0,0.0,0.0,0.0,0.0,0.0,0.0,0.0,0.0,0.0,0.0,0.0,0.0,0.0,0.0,0.0,0.0,0.0,0.0,0.0,0.0,0.0,0.0,0.0,0.0,0.0,0.0,0.0,0.0,0.0,0.0,0.0,0.0,0.0,0.0,0.0,0.0,0.0,0.0,0.0,0.0,0.0,0.0,0.0,0.0,0.0,0.0,0.0,0.0,0.0,0.0,0.0,0.0,0.0,0.0,0.0,0.0,0.0,0.0,0.0,0.0,0.0,0.0,0.0,0.0,0.0,0.0,0.0,0.0,0.0,0.0,0.0,0.0,0.0,0.0,0.0,0.0,0.0,0.0,0.0,0.0,0.0,0.0,0.0,0.0,0.0,0.0,0.0,0.0,0.0,0.0,0.0,0.0,0.0,0.0,0.0,0.0,0.0,0.0,0.0,0.0,0.0,0.0,0.0,0.0,0.0,0.0,0.0,0.0,0.0,0.0,0.0,0.0,0.0,0.0,0.0,0.0,0.0,0.0,0.0,0.0,0.0,0.0,0.0,0.0,0.0,0.0,0.0,0.0,0.0,0.0,0.0,0.0,0.0,0.0,0.0,0.0,0.0,0.0,0.0,0.0,0.0,0.0,0.0,0.0,0.0,0.0,0.0,0.0,0.0,0.0,0.0,0.0,0.0,0.0,0.0,0.0,0.0,0.0,0.0,0.0,0.0,0.0,0.0,0.0,0.0,0.0,0.0,0.0,0.0,0.0,0.0,0.0,0.0,0.0,0.0,0.0,0.0,0.0,0.0,0.0,0.0,0.0,0.0,0.0,0.0,0.0,0.0,0.0,0.0,0.0,0.0,0.0,0.0,0.0,0.0,0.0,0.0,0.0,0.0,0.0,0.0,0.0,0.0,0.0,0.0,0.0,0.0,0.0,0.0,0.0,0.0,0.0,0.0,0.0,0.0,0.0,0.0,0.0,0.0,0.0,0.0,0.0,0.0,0.0,0.0,0.0,0.0,0.0,0.0,0.0,0.0,0.0,0.0,0.0,0.0,0.0,0.0,0.0,0.0,0.0,0.0,0.0,0.0,0.0,0.0,0.0,0.0,0.0,0.0,0.0,0.0,0.0,0.0,0.0,0.0,0.0,0.0,0.0,0.0,0.0,0.0,0.0,0.0,0.0,0.0,0.0,0.0,0.0,0.0,0.0,0.0,0.0,0.0,0.0,0.0,0.0,0.0,0.0,0.0,0.0,0.0,0.0,0.0,0.0,0.0,0.0,0.0,0.0,0.0,0.0,0.0,0.0,0.0,0.0,0.0,0.0,0.0,0.0,0.0,0.0,0.0,0.0,0.0,0.0,0.0,0.0,0.0,0.0,0.0,0.0,0.0,0.0,0.0,0.0,0.0,0.0,0.0,0.0,0.0,0.0,0.0,0.0,0.0,0.0,0.0,0.0,0.0,0.0,0.0,0.0,0.0,0.0,0.0,0.0,0.0,0.0,0.0,0.0,0.0,0.0,0.0,0.0,0.0,0.0,0.0,0.0,0.0,0.0,0.0,0.0,0.0,0.0,0.0,0.0,0.0,0.0,0.0,0.0,0.0,0.0,0.0,0.0,0.0,0.0,0.0,0.0,0.0,0.0,0.0,0.0,0.0,0.0,0.0,0.0,0.0,0.0,0.0,0.0,0.0,0.0,0.0,0.0,0.0,0.0,0.0,0.0,0.0,0.0,0.0,0.0,0.0,0.0,0.0,0.0,0.0,0.0,0.0,0.0,0.0,0.0,0.0,0.0,0.0,0.0,0.0,0.0,0.0,0.0,0.0,0.0,0.0,0.0,0.0,0.0,0.0,0.0,0.0,0.0,0.0,0.0,0.0,0.0,0.0,0.0,0.0,0.0,0.0,0.0,0.0,0.0,0.0,0.0,0.0,0.0,0.0,0.0,0.0,0.0,0.0,0.0,0.0,0.0,0.0,0.0,0.0,0.0,0.0,0.0,0.0,0.0,0.0,0.0,0.0,0.0,0.0,0.0,0.0,0.0,0.0,0.0,0.0,0.0,0.0,0.0,0.0,0.0,0.0,0.0,0.0,0.0,0.0,0.0,0.0,0.0,0.0,0.0,0.0,0.0,0.0,0.0,0.0,0.0,0.0,0.0,0.0,0.0,0.0,0.0,0.0,0.0,0.0,0.0,0.0,0.0,0.0,0.0,0.0,0.0,0.0,0.0,0.0,0.0,0.0,0.0,0.0,0.0,0.0,0.0,0.0,0.0,0.0,0.0,0.0,0.0,0.0,0.0,0.0,0.0,0.0,0.0,0.0,0.0,0.0,0.0,0.0,0.0,0.0,0.0,0.0,0.0,0.0,0.0,0.0,0.0,0.0,0.0,0.0,0.0,0.0,0.0,0.0,0.0,0.0,0.0,0.0,0.0,0.0,0.0,0.0,0.0,0.0,0.0,0.0,0.0,0.0,0.0,0.0,0.0,0.0,0.0,0.0,0.0,0.0,0.0,0.0,0.0,0.0,0.0,0.0,0.0,0.0,0.0,0.0,0.0,0.0,0.0,0.0,0.0,0.0,0.0,0.0,0.0,0.0,0.0,0.0,0.0,0.0,0.0,0.0,0.0,0.0,0.0,0.0,0.0,0.0,0.0,0.0,0.0,0.0,0.0,0.0,0.0,0.0,0.0,0.0,0.0,0.0,0.0,0.0,0.0,0.0,0.0,0.0,0.0,0.0,0.0,0.0,0.0,0.0,0.0,0.0,0.0,0.0,0.0,0.0,0.0,0.0,0.0,0.0,0.0,0.0,0.0,0.0,0.0,0.0,0.0,0.0,0.0,0.0,0.0,0.0,0.0,0.0,0.0,0.0,0.0,0.0,0.0,0.0,0.0,0.0,0.0,0.0,0.0,0.0,0.0,0.0,0.0,0.0,0.0,0.0,0.0,0.0,0.0,0.0,0.0,0.0,0.0,0.0,0.0,0.0,0.0,0.0,0.0,0.0,0.0,0.0,0.0,0.0,0.0,0.0,0.0,0.0,0.0,0.0,0.0,0.0,0.0,0.0,0.0,0.0,0.0,0.0,0.0,0.0,0.0,0.0,0.0,0.0,0.0,0.0,0.0,0.0,0.0,0.0,0.0,0.0,0.0,0.0,0.0,0.0,0.0,0.0,0.0,0.0,0.0,0.0,0.0,0.0,0.0,0.0,0.0,0.0,0.0,0.0,0.0,0.0,0.0,0.0,0.0,0.0,0.0,0.0,0.0,0.0,0.0,0.0,0.0,0.0,0.0,0.0,0.0,0.0,0.0,0.0,0.0,0.0,0.0,0.0,0.0,0.0,0.0,0.0,0.0,0.0,0.0,0.0,0.0,0.0,0.0,0.0,0.0,0.0,0.0,0.0,0.0,0.0,0.0,0.0,0.0,0.0,0.0,0.0,0.0,0.0,0.0,0.0,0.0,0.0,0.0,0.0,0.0,0.0,0.0,0.0,0.0,0.0,0.0,0.0,0.0,0.0,0.0,0.0,0.0,0.0,0.0,0.0,0.0,0.0,0.0,0.0,0.0,0.0,0.0,0.0,0.0,0.0,0.0,0.0,0.0,0.0,0.0,0.0,0.0,0.0,0.0,0.0,0.0,0.0,0.0,0.0,0.0,0.0,0.0,0.0,0.0,0.0,0.0,0.0,0.0,0.0,0.0,0.0,0.0,0.0,0.0,0.0,0.0,0.0,0.0,0.0,0.0,0.0,0.0,0.0,0.0,0.0,0.0,0.0,0.0,0.0,0.0,0.0,0.0,0.0,0.0,0.0,0.0,0.0,0.0,0.0,0.0,0.0,0.0,0.0,0.0,0.0,0.0,0.0,0.0,0.0,0.0,0.0,0.0,0.0,0.0,0.0,0.0,0.0,0.0,0.0,0.0,0.0,0.0,0.0,0.0,0.0,0.0,0.0,0.0,0.0,0.0,0.0,0.0,0.0,0.0,0.0,0.0,0.0,0.0,0.0,0.0,0.0,0.0,0.0,0.0,0.0,0.0,0.0,0.0,0.0,0.0,0.0,0.0,0.0,0.0,0.0,0.0,0.0,0.0,0.0,0.0,0.0,0.0,0.0,0.0,0.0,0.0,0.0494,0.0,0.0,0.0,0.0,0.0,0.0,0.0,0.0,0.0,0.0,0.0,0.0,0.0,0.0,0.0,0.0,0.0,0.0,0.0,0.0,0.0,0.0,0.0,0.0,0.0,0.0,0.0,0.0,0.0,0.0,0.0,0.0,0.0,0.0,0.0,0.0,0.0,0.0,0.0,0.0,0.0,0.0,0.0,0.0,0.0,0.0,0.0,0.0,0.0,0.0,0.0,0.0,0.0,0.0,0.0,0.0,0.0,0.0,0.0,0.0,0.0,0.0,0.0,0.0,0.0,0.0,0.0,0.0,0.0,0.0,0.0,0.0,0.0,0.0,0.0,0.0,0.0,0.0,0.0,0.0,0.0,0.0,0.0,0.0,0.0,0.0,0.0,0.0,0.0,0.0,0.0,0.0,0.0,0.0,0.0,0.0,0.0,0.0,0.0,0.0,0.0,0.0,0.0,0.0,0.0,0.0,0.0,0.0,0.0,0.0,0.0,0.0,0.0,0.0112,0.0394,0.0,0.0,0.0,0.0,0.0,0.0,0.0,0.0,0.0,0.0,0.0,0.0,0.0,0.0,0.0,0.0,0.0,0.0,0.0,0.0,0.0,0.0,0.0,0.0,0.0,0.0,0.0,0.0,0.0,0.0,0.0,0.0,0.0,0.0,0.0,0.0,0.0,0.0,0.0,0.0,0.0,0.0,0.0,0.0,0.0,0.0,0.0,0.0,0.0,0.0,0.0,0.0,0.0,0.0,0.0,0.0,0.0,0.0,0.0,0.0,0.0,0.0,0.0,0.0,0.0,0.0,0.0,0.0,0.0,0.0,0.0,0.0,0.0,0.0,0.0,0.0,0.0,0.0,0.0,0.0,0.0,0.0,0.0,0.0,0.0,0.0,0.0,0.0,0.0,0.0,0.0,0.0,0.0,0.0,0.0,0.0,0.0,0.0,0.0,0.0,0.0,0.0,0.0,0.0,0.0,0.0,0.0,0.0,0.0,0.0,0.0,0.0,0.0,0.0095,0.0297,0.0,0.0,0.0,0.0,0.0,0.0,0.0,0.0,0.0,0.0,0.0,0.0,0.0,0.0,0.0,0.0,0.0,0.0,0.0,0.0,0.0,0.0,0.0,0.0,0.0,0.0,0.0,0.0,0.0,0.0,0.0,0.0,0.0,0.0,0.0,0.0,0.0,0.0,0.0,0.0,0.0,0.0,0.0,0.0,0.0,0.0,0.0,0.0,0.0,0.0,0.0,0.0,0.0,0.0,0.0,0.0,0.0,0.0,0.0,0.0,0.0,0.0,0.0,0.0,0.0,0.0,0.0,0.0,0.0,0.0,0.0,0.0,0.0,0.0,0.0,0.0,0.0,0.0,0.0,0.0,0.0,0.0,0.0,0.0,0.0,0.0,0.0,0.0,0.0,0.0,0.0,0.0,0.0,0.0,0.0,0.0,0.0,0.0,0.0,0.0,0.0,0.0,0.0,0.0,0.0,0.0,0.0,0.0,0.0,0.0,0.0,0.0,0.0,0.0,0.0055,0.0,0.0,0.0,0.0,0.0,0.0,0.0,0.0,0.0,0.0,0.0,0.0,0.0,0.0,0.0,0.0,0.0,0.0,0.0,0.0,0.0,0.0,0.0,0.0,0.0,0.0,0.0,0.0,0.0,0.0,0.0,0.0,0.0,0.0,0.0,0.0,0.0,0.0,0.0,0.0,0.0,0.0,0.0,0.0,0.0,0.0,0.0,0.0,0.0,0.0,0.0,0.0,0.0,0.0,0.0,0.0,0.0,0.0,0.0,0.0,0.0,0.0,0.0,0.0,0.0,0.0,0.0,0.0,0.0,0.0,0.0,0.0,0.0,0.0,0.0,0.0,0.0,0.0,0.0,0.0,0.0,0.0,0.0,0.0,0.0,0.0,0.0,0.0,0.0,0.0,0.0,0.0,0.0,0.0,0.0,0.0,0.0,0.0,0.0,0.0,0.0,0.0,0.0,0.0,0.0,0.0,0.0,0.0,0.0,0.0,0.0,0.0,0.0,0.0,0.0,0.0,0.0,0.0,0.0,0.0,0.0,0.0,0.0,0.0,0.0,0.0,0.0,0.0,0.0,0.0,0.0,0.0,0.0,0.0,0.0,0.0,0.0,0.0,0.0,0.0,0.0,0.0,0.0,0.0,0.0,0.0,0.0,0.0,0.0,0.0,0.0,0.0,0.0,0.0,0.0,0.0,0.0,0.0,0.0,0.0,0.0,0.0,0.0,0.0,0.0,0.0,0.0,0.0,0.0,0.0,0.0,0.0,0.0,0.0,0.0,0.0,0.0,0.0,0.0,0.0,0.0,0.0,0.0,0.0,0.0,0.0,0.0,0.0,0.0,0.0,0.0,0.0,0.0,0.0,0.0,0.0,0.0,0.0,0.0,0.0,0.0,0.0,0.0,0.0,0.0,0.0,0.0,0.0,0.0,0.0,0.0,0.0,0.0,0.0,0.0,0.0,0.0,0.0,0.0,0.0,0.0,0.0,0.0,0.0,-0.0027,0.0,0.0,0.0,0.0,0.0,0.0,0.0,0.0,0.0,0.0,0.0,0.0,0.0,0.0,0.0,0.0,0.0,0.0,0.0,0.0,0.0,0.0,0.0,0.0,0.0,0.0,0.0,0.0,0.0,0.0,0.0,0.0,0.0,0.0,0.0,0.0,0.0,0.0,0.0,0.0,0.0,0.0,0.0,0.0,0.0,0.0,0.0,0.0,0.0,0.0,0.0,0.0,0.0,0.0,0.0,0.0,0.0,0.0,0.0,0.0,0.0,0.0,0.0,0.0,0.0,0.0,0.0,0.0,0.0,0.0,0.0,0.0,0.0,0.0,0.0,0.0,0.0,0.0,0.0,0.0,0.0,0.0,0.0,0.0,0.0,0.0,0.0,0.0,0.0,0.0,0.0,0.0,0.0,0.0,0.0,0.0,0.0,0.0,0.0,0.0,0.0,0.0,0.0,0.0,0.0,0.0,0.0,0.0,0.0,0.0,0.0,0.0,0.0,0.0,-0.003,0.0,0.0,0.0,0.0,0.0,0.0,0.0,0.0,0.0,0.0,0.0,0.0,0.0,0.0,0.0,0.0,0.0,0.0,0.0,0.0,0.0,0.0,0.0,0.0,0.0,0.0,0.0,0.0,0.0,0.0,0.0,0.0,0.0,0.0,0.0,0.0,0.0,0.0,0.0,0.0,0.0,0.0,0.0,0.0,0.0,0.0,0.0,0.0,0.0,0.0,0.0,0.0,0.0,0.0,0.0,0.0,0.0,0.0,0.0,0.0,0.0,0.0,0.0,0.0,0.0,0.0,0.0,0.0,0.0,0.0,0.0,0.0,0.0,0.0,0.0,0.0,0.0,0.0,0.0,0.0,0.0,0.0,0.0,0.0,0.0,0.0,0.0,0.0,0.0,0.0,0.0,0.0,0.0,0.0,0.0,0.0,0.0,0.0,0.0,0.0,0.0,0.0,0.0,0.0,0.0,0.0,0.0,0.0,0.0,0.0,0.0,0.0,0.0,-0.0092,-0.0028,0.0,0.0,0.0,0.0,0.0,0.0,0.0,0.0,0.0,0.0,0.0,0.0,0.0,0.0,0.0,0.0,0.0,0.0,0.0,0.0,0.0,0.0,0.0,0.0,0.0,0.0,0.0,0.0,0.0,0.0,0.0,0.0,0.0,0.0,0.0,0.0,0.0,0.0,0.0,0.0,0.0,0.0,0.0,0.0,0.0,0.0,0.0,0.0,0.0,0.0,0.0,0.0,0.0,0.0,0.0,0.0,0.0,0.0,0.0,0.0,0.0,0.0,0.0,0.0,0.0,0.0,0.0,0.0,0.0,0.0,0.0,0.0,0.0,0.0,0.0,0.0,0.0,0.0,0.0,0.0,0.0,0.0,0.0,0.0,0.0,0.0,0.0,0.0,0.0,0.0,0.0,0.0,0.0,0.0,0.0,0.0,0.0,0.0,0.0,0.0,0.0,0.0,0.0,0.0,0.0,0.0,0.0,0.0,0.0,0.0,0.0,0.0,0.0,-0.0065,0.0,0.0,0.0,0.0,0.0,0.0,0.0,0.0,0.0,0.0,0.0,0.0,0.0,0.0,0.0,0.0,0.0,0.0,0.0,0.0,0.0,0.0,0.0,0.0,0.0,0.0,0.0,0.0,0.0,0.0,0.0,0.0,0.0,0.0,0.0,0.0,0.0,0.0,0.0,0.0,0.0,0.0,0.0,0.0,0.0,0.0,0.0,0.0,0.0,0.0,0.0,0.0,0.0,0.0,0.0,0.0,0.0,0.0,0.0,0.0,0.0,0.0,0.0,0.0,0.0,0.0,0.0,0.0,0.0,0.0,0.0,0.0,0.0,0.0,0.0,0.0,0.0,0.0,0.0,0.0,0.0,0.0,0.0,0.0,0.0,0.0,0.0,0.0,0.0,0.0,0.0,0.0,0.0,0.0,0.0,0.0,0.0,0.0,0.0,0.0,0.0,0.0,0.0,0.0,0.0,0.0,0.0,0.0,0.0,0.0,0.0,0.0,0.0,0.0,0.0,0.0,0.0,0.0,0.0,0.0,0.0,0.0,0.0,0.0,0.0,0.0,0.0,0.0,0.0,0.0,0.0,0.0,0.0,0.0,0.0,0.0,0.0,0.0,0.0,0.0,0.0,0.0,0.0,0.0,0.0,0.0,0.0,0.0,0.0,0.0,0.0,0.0,0.0,0.0,0.0,0.0,0.0,0.0,0.0,0.0,0.0,0.0,0.0,0.0,0.0,0.0,0.0,0.0,0.0,0.0,0.0,0.0,0.0,0.0,0.0,0.0,0.0,0.0,0.0,0.0,0.0,0.0,0.0,0.0,0.0,0.0,0.0,0.0,0.0,0.0,0.0,0.0,0.0,0.0,0.0,0.0,0.0,0.0,0.0,0.0,0.0,0.0,0.0,0.0,0.0,0.0,0.0,0.0,0.0,0.0,0.0,0.0,0.0,0.0,0.0,0.0,0.0,0.0,0.0,0.0,0.0,0.0,0.0,0.0,0.0,0.0,0.0,0.0,0.0,0.0,0.0,0.0,0.0,0.0,0.0,0.0,0.0,0.0,0.0,0.0,0.0,0.0,0.0,0.0,0.0,0.0,0.0,0.0,0.0,0.0,0.0,0.0,0.0,0.0,0.0,0.0,0.0,0.0,0.0,0.0,0.0,0.0,0.0,0.0,0.0,0.0,0.0,0.0,0.0,0.0,0.0,0.0,0.0,0.0,0.0,0.0,0.0,0.0,0.0,0.0,0.0,0.0,0.0,0.0,0.0,0.0,0.0,0.0,0.0,0.0,0.0,0.0,0.0,0.0,0.0,0.0,0.0,0.0,0.0,0.0,0.0,0.0,0.0,0.0,0.0,0.0,0.0,0.0,0.0,0.0,0.0,0.0,0.0,0.0,0.0,0.0,0.0,0.0,0.0,0.0,0.0,0.0,0.0,0.0,0.0,0.0,0.0,0.0,0.0,0.0,0.0,0.0,0.0,0.0,0.0,0.0,0.0,0.0,0.0,0.0,0.0,0.0,0.0,0.0,-0.0151,-0.0037,0.0,0.0,0.0,0.0,0.0,0.0,0.0,0.0,0.0,0.0,0.0,0.0,0.0,0.0,0.0,0.0,0.0,0.0,0.0,0.0,0.0,0.0,0.0,0.0,0.0,0.0,0.0,0.0,0.0,0.0,0.0,0.0,0.0,0.0,0.0,0.0,0.0,0.0,0.0,0.0,0.0,0.0,0.0,0.0,0.0,0.0,0.0,0.0,0.0,0.0,0.0,0.0,0.0,0.0,0.0,0.0,0.0,0.0,0.0,0.0,0.0,0.0,0.0,0.0,0.0,0.0,0.0,0.0,0.0,0.0,0.0,0.0,0.0,0.0,0.0,0.0,0.0,0.0,0.0,0.0,0.0,0.0,0.0,0.0,0.0,0.0,0.0,0.0,0.0,0.0,0.0,0.0,0.0,0.0,0.0,0.0,0.0,0.0,0.0,0.0,0.0,0.0,0.0,0.0,0.0,0.0,0.0,0.0,0.0,0.0,0.0,0.0,0.0,-0.0401,-0.0161,0.0,0.0,0.0,0.0,0.0,0.0,0.0,0.0,0.0,0.0,0.0,0.0,0.0,0.0,0.0,0.0,0.0,0.0,0.0,0.0,0.0,0.0,0.0,0.0,0.0,0.0,0.0,0.0,0.0,0.0,0.0,0.0,0.0,0.0,0.0,0.0,0.0,0.0,0.0,0.0,0.0,0.0,0.0,0.0,0.0,0.0,0.0,0.0,0.0,0.0,0.0,0.0,0.0,0.0,0.0,0.0,0.0,0.0,0.0,0.0,0.0,0.0,0.0,0.0,0.0,0.0,0.0,0.0,0.0,0.0,0.0,0.0,0.0,0.0,0.0,0.0,0.0,0.0,0.0,0.0,0.0,0.0,0.0,0.0,0.0,0.0,0.0,0.0,0.0,0.0,0.0,0.0,0.0,0.0,0.0,0.0,0.0,0.0,0.0,0.0,0.0,0.0,0.0,0.0,0.0,0.0,0.0,0.0,0.0,0.0,0.0,0.0,0.0,-0.0463,-0.0369,-0.0253,-0.0145,-0.0063,0.0,0.0,0.0,0.0,0.0,0.0,0.0,0.0,0.0,0.0,0.0,0.0,0.0,0.0,0.0,0.0,0.0,0.0,0.0,0.0,0.0,0.0,0.0,0.0,0.0,0.0,0.0,0.0,0.0,0.0,0.0,0.0,0.0,0.0,0.0,0.0,0.0,0.0,0.0,0.0,0.0,0.0,0.0,0.0,0.0,0.0,0.0,0.0,0.0,0.0,0.0,0.0,0.0,0.0,0.0,0.0,0.0,0.0,0.0,0.0,0.0,0.0,0.0,0.0,0.0,0.0,0.0,0.0,0.0,0.0,0.0,0.0,0.0,0.0,0.0,0.0,0.0,0.0,0.0,0.0,0.0,0.0,0.0,0.0,0.0,0.0,0.0,0.0,0.0,0.0,0.0,0.0,0.0,0.0,0.0,0.0,0.0,0.0,0.0,0.0,0.0,0.0,0.0,0.0,0.0,0.0,0.0,0.0,0.0,-0.052,-0.0613,-0.0545,-0.0455,-0.0284,-0.0138,-0.0061,0.0,0.0,0.0,0.0,0.0,0.0,0.0,0.0,0.0,0.0,0.0,0.0,0.0,0.0,0.0,0.0,0.0,0.0,0.0,0.0,0.0,0.0,0.0,0.0,0.0,0.0,0.0,0.0,0.0,0.0,0.0,0.0,0.0,0.0,0.0,0.0,0.0,0.0,0.0,0.0,0.0,0.0,0.0,0.0,0.0,0.0,0.0,0.0,0.0,0.0,0.0,0.0,0.0,0.0,0.0,0.0,0.0,0.0,0.0,0.0,0.0,0.0,0.0,0.0,0.0,0.0,0.0,0.0,0.0,0.0,0.0,0.0,0.0,0.0,0.0,0.0,0.0,0.0,0.0,0.0,0.0,0.0,0.0,0.0,0.0,0.0,0.0,0.0,0.0,0.0,0.0,0.0,0.0,0.0,0.0,0.0,0.0,0.0,0.0,0.0,0.0,0.0,0.0,0.0,0.0,0.0,0.0,0.0,-0.0856,-0.098,-0.0893,-0.0718,-0.0508,-0.0299,-0.0133,0.0,0.0,0.0,0.0,0.0,0.0,0.0,0.0,0.0,0.0,0.0,0.0,0.0,0.0,0.0,0.0,0.0,0.0,0.0,0.0,0.0,0.0,0.0,0.0,0.0,0.0,0.0,0.0,0.0,0.0,0.0,0.0,0.0,0.0,0.0,0.0,0.0,0.0,0.0,0.0,0.0,0.0,0.0,0.0,0.0,0.0,0.0,0.0,0.0,0.0,0.0,0.0,0.0,0.0,0.0,0.0,0.0,0.0,0.0,0.0,0.0,0.0,0.0,0.0,0.0,0.0,0.0,0.0,0.0,0.0,0.0,0.0,0.0,0.0,0.0,0.0,0.0,0.0,0.0,0.0,0.0,0.0,0.0,0.0,0.0,0.0,0.0,0.0,0.0,0.0,0.0,0.0,0.0,0.0,0.0,0.0,0.0,0.0,0.0,0.0,0.0,0.0,0.0,0.0,0.0,0.0,0.0,0.0,-0.1663,-0.218,-0.1781,-0.1422,-0.1106,-0.0529,-0.0135,0.0,0.0,0.0,0.0,0.0,0.0,0.0,0.0,0.0,0.0,0.0,0.0,0.0,0.0,0.0,0.0,0.0,0.0,0.0,0.0,0.0,0.0,0.0,0.0,0.0,0.0,0.0,0.0,0.0,0.0,0.0,0.0,0.0,0.0,0.0,0.0,0.0,0.0,0.0,0.0,0.0,0.0,0.0,0.0,0.0,0.0,0.0,0.0,-0.137,0.0,0.0,0.0,0.0,0.0,0.0,0.0,0.0,0.0,0.0,0.0,0.0,0.0,0.0,0.0,0.0,0.0,0.0,0.0,0.0,0.0,0.0,0.0,0.0,0.0,0.0,0.0,0.0,0.0,0.0,0.0,0.0,0.0,0.0,0.0,0.0,0.0,0.0,0.0,0.0,0.0,0.0,0.0,0.0,0.0,0.0,0.0,0.0,0.0,0.0,0.0,0.0,0.0,0.0,0.0,0.0,0.0,0.0,0.0,-0.2176,-0.2571,-0.2067,-0.1651,-0.131,-0.0669,-0.0207,0.0,0.0,0.0,0.0,0.0,0.0,0.0,0.0,0.0,0.0,0.0,0.0,0.0,0.0,0.0,0.0,0.0,0.0,0.0,0.0,0.0,0.0,0.0,0.0,0.0,0.0,0.0,0.0,0.0,0.0,0.0,0.0,0.0,0.0,0.0,0.0,0.0,0.0,0.0,0.0,0.0,0.0,0.0,0.0,0.0,0.0,0.0,0.0,0.0,0.0,0.0,0.0,0.0,0.0,0.0,0.0,0.0,0.0,0.0,0.0,0.0,0.0,0.0,0.0,0.0,0.0,0.0,0.0,0.0,0.0,0.0,0.0,0.0,0.0,0.0,0.0,0.0,0.0,0.0,0.0,0.0,0.0,0.0,0.0,0.0,0.0,0.0,0.0,0.0,0.0,0.0,0.0,0.0,0.0,0.0,0.0,0.0,0.0,0.0,0.0,0.0,0.0,0.0,0.0,0.0,0.0,0.0,-0.2216,-0.2605,-0.2848,-0.2258,-0.1789,-0.1424,-0.0759,-0.0281,0.0,0.0,0.0,0.0,0.0,0.0,0.0,0.0,0.0,0.0,0.0,0.0,0.0,0.0,0.0,0.0,0.0,0.0,0.0,0.0,0.0,0.0,0.0,0.0,0.0,0.0,0.0,0.0,0.0,0.0,0.0,0.0,0.0,0.0,0.0,0.0,0.0,0.0,0.0,-0.1364,-0.1444,0.0,0.0,0.0,0.0,0.0,0.0,0.0,0.0,-0.1412,0.0,0.0,0.0,0.0,0.0,0.0,0.0,0.0,0.0,0.0,0.0,0.0,0.0,0.0,0.0,0.0,0.0,0.0,0.0,0.0,0.0,0.0,0.0,0.0,0.0,0.0,0.0,0.0,0.0,0.0,0.0,0.0,0.0,0.0,0.0,0.0,0.0,0.0,0.0,0.0,0.0,0.0,0.0,0.0,0.0,0.0,0.0,0.0,0.0,0.0,0.0,0.0,0.0,0.0,0.0,0.0,-0.2649,-0.278,-0.324,-0.4133,-0.3116,-0.2373,-0.2032,-0.0993,-0.0281,0.0,0.0,0.0,0.0,0.0,0.0,0.0,0.0,0.0,0.0,0.0,0.0,0.0,0.0,0.0,0.0,0.0,0.0,0.0,0.0,0.0,0.0,0.0,0.0,0.0,0.0,0.0,0.0,0.0,0.0,0.0,0.0,0.0,0.0,0.0,0.0,0.0,0.0,0.0,0.0,-0.1811,-0.1866,0.0,0.0,0.0,0.0,0.0,0.0,0.0,0.0,-0.1482,0.0,0.0,0.0,0.0,0.0,0.0,0.0,0.0,0.0,0.0,0.0,0.0,0.0,0.0,0.0,0.0,0.0,0.0,0.0,0.0,0.0,0.0,0.0,0.0,0.0,0.0,0.0,0.0,0.0,0.0,0.0,0.0,0.0,0.0,0.0,0.0,0.0,0.0,0.0,0.0,0.0,0.0,0.0,0.0,0.0,0.0,0.0,0.0,0.0,0.0,0.0,0.0,0.0,0.0,0.0,-0.2803,-0.3259,-0.3789,-0.4443,-0.3322,-0.2541,-0.2199,-0.1034,-0.027,0.0,0.0,0.0,0.0,0.0,0.0,0.0,0.0,0.0,0.0,0.0,0.0,0.0,0.0,0.0,0.0,0.0,0.0,0.0,0.0,0.0,0.0,0.0,0.0,0.0,0.0,0.0,0.0,0.0,0.0,0.0,0.0,0.0,0.0,0.0,0.0,0.0,0.0,0.0,0.0,-0.1809,-0.1801,-0.1852,0.0,0.0,0.0,0.0,0.0,0.0,-0.1673,-0.1573,0.0,0.0,0.0,0.0,0.0,0.0,0.0,0.0,0.0,0.0,0.0,0.0,0.0,0.0,0.0,0.0,0.0,0.0,0.0,0.0,0.0,0.0,0.0,0.0,0.0,0.0,0.0,0.0,0.0,0.0,0.0,0.0,0.0,0.0,0.0,0.0,0.0,0.0,0.0,0.0,0.0,0.0,0.0,0.0,0.0,0.0,0.0,0.0,0.0,0.0,0.0,0.0,0.0,0.0,0.0,-0.2859,-0.3543,-0.4104,-0.4443,-0.3458,-0.267,-0.2232,-0.1157,-0.0393,0.0,0.0,0.0,0.0,0.0,0.0,0.0,0.0,0.0,0.0,0.0,0.0,0.0,0.0,0.0,0.0,0.0,0.0,0.0,0.0,0.0,0.0,0.0,0.0,0.0,0.0,0.0,0.0,0.0,0.0,0.0,0.0,0.0,0.0,0.0,0.0,0.0,0.0,0.0,0.0,0.0,-0.1834,-0.1928,-0.1722,0.0,0.0,0.0,0.0,-0.1989,-0.1894,0.0,0.0,0.0,0.0,0.0,0.0,0.0,0.0,0.0,0.0,0.0,0.0,0.0,0.0,0.0,0.0,0.0,0.0,0.0,0.0,0.0,0.0,0.0,0.0,0.0,0.0,0.0,0.0,0.0,0.0,0.0,0.0,0.0,0.0,0.0,0.0,0.0,0.0,0.0,0.0,0.0,0.0,0.0,0.0,0.0,0.0,0.0,0.0,0.0,0.0,0.0,0.0,0.0,0.0,0.0,0.0,-0.3052,-0.3435,-0.3928,-0.4429,-0.3846,-0.3135,-0.2401,-0.1603,-0.0866,0.0,0.0,0.0,0.0,0.0,0.0,0.0,0.0,0.0,0.0,0.0,0.0,0.0,0.0,0.0,0.0,0.0,0.0,0.0,0.0,0.0,0.0,0.0,0.0,0.0,0.0,0.0,0.0,0.0,0.0,0.0,0.0,0.0,0.0,0.0,0.0,0.0,0.0,0.0,0.0,0.0,-0.237,-0.2114,-0.2033,-0.2007,0.0,0.0,0.0,-0.2089,-0.2317,0.0,0.0,0.0,0.0,0.0,0.0,0.0,0.0,0.0,0.0,0.0,0.0,0.0,0.0,0.0,0.0,0.0,0.0,0.0,0.0,0.0,0.0,0.0,0.0,0.0,0.0,0.0,0.0,0.0,0.0,0.0,0.0,0.0,0.0,0.0,0.0,0.0,0.0,0.0,0.0,0.0,0.0,0.0,0.0,0.0,0.0,0.0,0.0,0.0,0.0,0.0,0.0,0.0,0.0,0.0,-0.2443,-0.3101,-0.3566,-0.3883,-0.3969,-0.3738,-0.3048,-0.1911,-0.1566,-0.1024,0.0,0.0,0.0,0.0,0.0,0.0,0.0,0.0,0.0,0.0,0.0,0.0,0.0,0.0,0.0,0.0,0.0,0.0,0.0,0.0,0.0,0.0,0.0,0.0,0.0,0.0,0.0,0.0,0.0,0.0,0.0,0.0,0.0,0.0,0.0,0.0,0.0,0.0,0.0,0.0,0.0,0.0,-0.2213,-0.2295,0.0,0.0,0.0,-0.2466,-0.2537,0.0,0.0,0.0,0.0,0.0,0.0,0.0,0.0,0.0,0.0,0.0,0.0,0.0,0.0,0.0,0.0,0.0,0.0,0.0,0.0,0.0,0.0,0.0,0.0,0.0,0.0,0.0,0.0,0.0,0.0,0.0,0.0,0.0,0.0,0.0,0.0,0.0,0.0,0.0,0.0,0.0,0.0,0.0,0.0,0.0,0.0,0.0,0.0,0.0,0.0,0.0,0.0,0.0,0.0,0.0,0.0,0.0,-0.3104,-0.3691,-0.3952,-0.3837,-0.3652,-0.3008,-0.1831,-0.1565,0.0,0.0,0.0,0.0,0.0,0.0,0.0,0.0,0.0,0.0,0.0,0.0,0.0,0.0,0.0,0.0,0.0,0.0,0.0,0.0,0.0,0.0,0.0,0.0,0.0,0.0,0.0,-0.0949,0.0,0.0,0.0,0.0,0.0,0.0,0.0,0.0,0.0,0.0,0.0,0.0,0.0,0.0,-0.2311,-0.2352,-0.2499,-0.2633,0.0,0.0,-0.2785,-0.2876,-0.2765,-0.2571,0.0,0.0,0.0,0.0,0.0,0.0,0.0,0.0,0.0,0.0,0.0,0.0,0.0,0.0,0.0,0.0,0.0,0.0,0.0,0.0,0.0,0.0,0.0,0.0,0.0,0.0,0.0,0.0,0.0,0.0,0.0,0.0,0.0,0.0,0.0,0.0,0.0,0.0,0.0,0.0,0.0,0.0,0.0,0.0,0.0,0.0,0.0,0.0,0.0,0.0,0.0,0.0,0.0,0.0,0.0,-0.3108,-0.3691,-0.4136,-0.4415,-0.3839,-0.3188,-0.2543,-0.1794,-0.1091,0.0,0.0,0.0,0.0,0.0,0.0,0.0,0.0,0.0,0.0,0.0,0.0,0.0,0.0,0.0,0.0,0.0,0.0,0.0,0.0,0.0,0.0,0.0,0.0,0.0,0.0,0.0,0.0,0.0,0.0,0.0,0.0,0.0,0.0,0.0,0.0,0.0,0.0,0.0,0.0,0.0,-0.2753,-0.2515,-0.275,-0.295,0.0,0.0,-0.2943,-0.2833,-0.3001,-0.2949,-0.2297,0.0,0.0,0.0,0.0,0.0,0.0,0.0,0.0,0.0,0.0,0.0,0.0,0.0,0.0,0.0,0.0,0.0,0.0,0.0,0.0,0.0,0.0,0.0,0.0,0.0,0.0,0.0,0.0,0.0,0.0,0.0,0.0,0.0,0.0,0.0,0.0,0.0,0.0,0.0,0.0,0.0,0.0,0.0,0.0,0.0,0.0,0.0,0.0,0.0,0.0,0.0,0.0,0.0,-0.2829,-0.3101,-0.3691,-0.3981,-0.3944,-0.3913,-0.347,-0.2515,-0.2118,-0.1622,0.0,0.0,0.0,0.0,0.0,0.0,0.0,0.0,0.0,0.0,0.0,0.0,0.0,0.0,0.0,0.0,0.0,0.0,0.0,0.0,0.0,0.0,0.0,0.0,0.0,0.0,0.0,0.0,-0.1306,-0.1484,-0.1647,0.0,0.0,0.0,0.0,0.0,0.0,0.0,0.0,0.0,0.0,-0.2915,-0.2986,-0.3198,0.0,0.0,-0.3367,-0.3364,-0.3299,-0.3216,-0.3026,-0.2676,-0.2556,0.0,0.0,0.0,0.0,0.0,0.0,0.0,0.0,0.0,0.0,0.0,0.0,0.0,0.0,0.0,0.0,0.0,0.0,0.0,0.0,0.0,0.0,0.0,0.0,0.0,0.0,0.0,0.0,0.0,0.0,0.0,0.0,0.0,0.0,0.0,0.0,0.0,0.0,0.0,0.0,0.0,0.0,0.0,0.0,0.0,0.0,0.0,0.0,0.0,0.0,0.0,0.0,-0.2849,-0.3149,-0.3711,-0.3959,-0.3871,-0.3906,-0.3536,-0.2713,-0.2397,-0.1897,0.0,0.0,0.0,0.0,0.0,0.0,0.0,0.0,0.0,0.0,0.0,0.0,0.0,0.0,0.0,0.0,0.0,0.0,0.0,0.0,0.0,0.0,0.0,0.0,0.0,0.0,0.0,0.0,-0.1499,-0.1687,-0.1871,0.0,0.0,0.0,0.0,0.0,0.0,0.0,0.0,0.0,0.0,-0.3122,-0.3276,-0.3463,-0.36,-0.36,-0.36,-0.3565,-0.352,-0.3331,-0.3127,-0.2937,0.0,0.0,0.0,0.0,0.0,0.0,0.0,0.0,0.0,0.0,0.0,0.0,0.0,0.0,0.0,0.0,0.0,0.0,0.0,0.0,0.0,0.0,0.0,0.0,0.0,0.0,0.0,0.0,0.0,0.0,-0.0394,0.0,0.0,0.0,0.0,0.0,0.0,0.0,0.0,0.0,0.0,0.0,0.0,0.0,0.0,0.0,0.0,0.0,0.0,0.0,0.0,0.0,0.0,0.0,-0.3296,-0.3765,-0.4139,-0.4443,-0.3735,-0.3324,-0.3263,-0.2509,-0.1823,-0.1232,0.0,0.0,0.0,0.0,0.0,0.0,0.0,0.0,0.0,0.0,0.0,0.0,0.0,0.0,0.0,0.0,0.0,0.0,0.0,0.0,0.0,0.0,0.0,0.0,0.0,0.0,-0.1295,-0.1536,-0.1673,0.0,0.0,0.0,0.0,0.0,0.0,0.0,0.0,0.0,0.0,-0.3237,-0.3447,-0.333,-0.3483,-0.3607,-0.3604,-0.3604,-0.3531,-0.3343,-0.3351,-0.3269,0.0,0.0,0.0,0.0,0.0,0.0,0.0,0.0,0.0,0.0,0.0,0.0,0.0,0.0,0.0,0.0,0.0,0.0,0.0,0.0,0.0,0.0,0.0,0.0,0.0,0.0,0.0,-0.0496,-0.046,0.0,0.0,0.0,0.0,0.0,0.0,0.0,0.0,0.0,0.0,0.0,-0.2182,-0.2367,0.0,0.0,0.0,0.0,0.0,0.0,0.0,0.0,0.0,0.0,0.0,0.0,-0.2939,-0.3306,-0.3768,-0.4165,-0.4474,-0.4017,-0.377,-0.3764,-0.2982,-0.2155,-0.1312,0.0,0.0,0.0,0.0,0.0,0.0,0.0,0.0,0.0,0.0,0.0,0.0,0.0,0.0,0.0,0.0,0.0,0.0,0.0,0.0,0.0,0.0,0.0,0.0,0.0,-0.1335,0.0,0.0,0.0,0.0,0.0,0.0,0.0,0.0,0.0,0.0,0.0,-0.3079,-0.3326,-0.3451,-0.3514,-0.3544,-0.3667,-0.3709,0.0,0.0,0.0,0.0,0.0,0.0,0.0,0.0,0.0,0.0,0.0,0.0,0.0,0.0,-0.3748,-0.3713,-0.3794,-0.3916,-0.4031,0.0,0.0,0.0,0.0,0.0,0.0,0.0,0.0,0.0,0.0,0.0,0.0,0.0,0.0,-0.0604,0.0,-0.0536,0.0,0.0,0.0,0.0,0.0,0.0,0.0,0.0,-0.2608,-0.2775,-0.286,-0.3071,-0.3287,0.0,-0.3385,-0.296,0.0,0.0,0.0,0.0,0.0,0.0,0.0,0.0,-0.3094,-0.3475,-0.3849,-0.4192,-0.4365,-0.4148,-0.3971,-0.3934,-0.3159,-0.2355,-0.1558,-0.1142,-0.077,0.0,0.0,0.0,0.0,0.0,0.0,0.0,0.0,0.0,0.0,0.0,0.0,0.0,0.0,0.0,0.0,0.0,0.0,0.0,0.0,0.0,0.0,0.0,-0.157,0.0,0.0,0.0,0.0,0.0,0.0,0.0,0.0,0.0,-0.2886,-0.3123,-0.3412,-0.3679,-0.3676,-0.3677,-0.3788,0.0,0.0,0.0,0.0,0.0,0.0,0.0,-0.3568,-0.3489,-0.3398,-0.3341,-0.3315,-0.3466,-0.3707,-0.4039,0.0,0.0,-0.4567,-0.4522,-0.4545,-0.4814,-0.4762,-0.4701,-0.4822,-0.4834,-0.4834,0.0,0.0,0.0,0.0,0.0,0.0,0.0,0.0,-0.0718,-0.0704,0.0,-0.0627,0.0,0.0,0.0,0.0,0.0,0.0,0.0,0.0,-0.3286,-0.361,-0.3562,-0.4162,-0.4385,-0.424,-0.4379,-0.3925,-0.2955,-0.2926,0.0,0.0,0.0,0.0,0.0,0.0,-0.3354,-0.3788,-0.4065,-0.4223,-0.4197,-0.4075,-0.392,-0.3782,-0.3046,-0.2433,-0.2022,-0.1373,-0.0845,-0.0449,-0.0412,0.0,0.0,0.0,0.0,0.0,0.0,0.0,0.0,0.0,0.0,0.0,0.0,0.0,0.0,0.0,0.0,0.0,0.0,0.0,0.0,-0.1568,0.0,0.0,0.0,0.0,0.0,0.0,0.0,0.0,0.0,0.0,-0.3277,-0.3527,-0.3766,-0.3909,0.0,0.0,0.0,0.0,-0.3856,-0.3967,-0.3998,-0.3998,-0.3991,-0.3987,-0.3961,-0.3819,0.0,0.0,-0.3717,-0.3748,-0.3927,-0.4263,-0.4346,-0.4562,-0.5327,-0.5027,-0.4871,-0.5503,-0.5422,-0.5372,-0.5628,-0.5603,-0.5589,-0.144,0.0,0.0,0.0,0.0,-0.0861,-0.087,-0.0907,-0.0855,-0.0847,-0.0848,-0.0771,0.0,0.0,0.0,0.0,0.0,0.0,-0.3512,-0.3727,-0.3941,-0.4096,-0.4232,-0.4412,-0.4467,-0.4406,-0.4474,-0.4072,-0.3297,-0.3651,-0.3258,-0.2185,0.0,0.0,0.0,0.0,-0.3676,-0.3941,-0.4122,-0.4223,-0.4223,-0.4072,-0.3897,-0.3668,-0.3204,-0.2776,-0.2433,-0.1788,-0.1256,-0.0847,-0.0547,0.0,0.0,0.0,0.0,0.0,0.0,0.0,0.0,0.0,0.0,0.0,0.0,0.0,0.0,0.0,0.0,0.0,0.0,0.0,-0.1451,-0.1679,-0.1892,0.0,0.0,0.0,0.0,0.0,0.0,0.0,0.0,0.0,-0.398,-0.4073,-0.4185,0.0,0.0,-0.4216,-0.4102,-0.4083,-0.4068,-0.4004,0.0,0.0,0.0,-0.3994,-0.3981,-0.3937,-0.3965,-0.3889,-0.3734,-0.3853,-0.4144,-0.4569,-0.4733,-0.5001,-0.5488,-0.5431,-0.5341,-0.5523,-0.5744,-0.5925,-0.6023,-0.6032,-0.5947,-0.1852,-0.1246,-0.1186,-0.1059,-0.0932,-0.0942,-0.0967,-0.1016,-0.095,-0.0952,-0.0932,-0.0897,-0.0826,-0.0803,-0.1195,0.0,0.0,0.0,-0.4075,-0.4331,-0.4308,-0.4382,-0.4487,-0.4491,-0.4491,-0.4491,-0.4267,-0.3896,-0.3495,-0.3794,-0.345,-0.2487,0.0,0.0,-0.3269,-0.3626,-0.3914,-0.4078,-0.423,-0.425,-0.4132,-0.3927,-0.3781,-0.3604,-0.328,-0.2946,-0.2614,-0.2082,-0.1558,-0.1031,-0.0779,-0.0575,0.0,0.0,0.0,0.0,0.0,0.0,0.0,0.0,0.0,0.0,0.0,-0.0793,0.0,0.0,0.0,0.0,-0.12,-0.1448,-0.162,-0.1899,0.0,0.0,0.0,0.0,0.0,0.0,0.0,-0.3596,-0.4027,-0.4394,-0.4596,-0.462,-0.461,-0.4642,-0.4513,-0.4374,-0.4336,0.0,-0.4206,-0.4199,-0.4273,-0.43,-0.4209,-0.4195,-0.4158,-0.4011,-0.4041,-0.3979,-0.3821,-0.399,-0.428,-0.4539,-0.4666,-0.4814,-0.5091,-0.5354,-0.5644,-0.5795,-0.6111,-0.6385,-0.6512,-0.6425,-0.6265,-0.2192,-0.1886,-0.1668,-0.1343,-0.103,-0.0997,-0.0995,-0.0995,-0.0992,-0.0992,-0.0992,-0.102,-0.0973,-0.0972,-0.1995,0.0,0.0,-0.3924,-0.4311,-0.4536,-0.4536,-0.4501,-0.4491,-0.4491,-0.4491,-0.4491,-0.3932,-0.3652,-0.3597,-0.3652,-0.3487,-0.3145,-0.362,-0.3856,-0.3819,-0.3972,-0.4099,-0.421,-0.4392,-0.4321,-0.4001,-0.3764,-0.3614,-0.36,-0.328,-0.2946,-0.2634,-0.2293,-0.1784,-0.1113,-0.1029,-0.0818,-0.0457,0.0,0.0,0.0,0.0,0.0,0.0,0.0,0.0,0.0,0.0,0.0,0.0,0.0,0.0,0.0,-0.1628,0.0,-0.1771,-0.2215,0.0,0.0,0.0,-0.2838,-0.2904,-0.3432,-0.3833,-0.386,0.0,0.0,0.0,0.0,-0.5074,-0.4939,-0.4645,-0.4503,-0.4661,-0.4415,-0.4287,-0.4457,-0.4484,-0.4487,-0.446,-0.4464,-0.4368,-0.4066,-0.4076,-0.4071,-0.3943,-0.41,-0.4276,-0.432,-0.4298,-0.432,-0.432,-0.505,-0.576,-0.6074,-0.6426,-0.672,-0.6914,-0.6794,-0.6559,-0.311,-0.2728,-0.2288,-0.1699,-0.1087,-0.1064,-0.1088,-0.1086,-0.1032,-0.1023,-0.1021,-0.0999,-0.0984,-0.1007,-0.1711,-0.2413,-0.3095,-0.366,-0.4182,-0.464,-0.4665,-0.4604,-0.4491,-0.4491,-0.4491,-0.4491,-0.4377,-0.4042,-0.3624,-0.407,-0.4012,-0.3542,-0.405,-0.4214,-0.396,-0.4226,-0.4402,-0.444,-0.447,-0.4344,-0.4004,-0.3836,-0.369,-0.3604,-0.328,-0.3082,-0.2962,-0.2413,-0.1963,-0.1695,-0.1246,-0.0916,-0.0713,-0.0449,0.0,0.0,0.0,0.0,0.0,0.0,0.0,0.0,0.0,-0.1218,-0.1191,0.0,-0.1355,0.0,-0.1795,-0.2037,-0.2277,-0.2438,0.0,0.0,-0.29,-0.3092,-0.3648,-0.385,-0.4076,-0.438,-0.4782,-0.5057,-0.5102,-0.5179,-0.5202,-0.5066,-0.4915,-0.4743,-0.463,-0.453,-0.445,-0.4481,-0.4491,-0.4491,-0.4491,-0.4491,-0.4392,-0.4045,-0.4158,-0.4236,-0.3954,-0.4122,-0.4298,-0.4298,-0.4298,-0.4298,-0.4298,-0.4766,-0.5156,-0.5373,-0.6156,-0.6913,-0.6986,-0.694,-0.6827,-0.3268,-0.3071,-0.2582,-0.202,-0.1376,-0.1199,-0.1143,-0.1095,-0.1079,-0.1031,-0.1052,-0.1034,-0.1052,-0.1072,-0.198,-0.2618,-0.3046,-0.3903,-0.4478,-0.4789,-0.4724,-0.4646,-0.459,-0.4522,-0.4349,-0.4098,-0.4101,-0.3932,-0.3652,-0.3932,-0.4045,-0.3987,-0.4322,-0.4409,-0.4233,-0.4409,-0.4491,-0.4491,-0.4399,-0.4253,-0.4022,-0.3873,-0.369,-0.3465,-0.3314,-0.3161,-0.3032,-0.2635,-0.2281,-0.1915,-0.1578,-0.1278,-0.1031,-0.084,-0.0844,0.0,0.0,0.0,0.0,0.0,0.0,0.0,0.0,0.0,0.0,0.0,-0.1694,0.0,-0.2249,0.0,-0.2658,-0.2774,-0.2978,-0.329,-0.331,-0.3481,-0.3948,-0.4123,-0.4299,-0.4531,-0.4823,-0.5007,-0.5011,-0.5093,-0.5101,-0.5014,-0.4904,-0.4765,-0.4665,-0.4552,-0.4491,-0.4491,-0.4491,-0.4491,-0.4491,-0.4491,-0.4385,-0.4172,-0.4214,-0.4233,-0.4016,-0.4106,-0.4232,-0.4276,-0.4298,-0.4298,-0.432,-0.4661,-0.4983,-0.5113,-0.576,-0.6401,-0.6634,-0.655,-0.6364,-0.318,-0.3134,-0.2761,-0.2356,-0.1939,-0.1486,-0.1231,-0.1092,-0.1088,-0.1104,-0.1109,-0.1109,-0.1062,-0.1104,-0.2331,-0.2933,-0.3082,-0.426,-0.4873,-0.4938,-0.4789,-0.4707,-0.4687,-0.4559,-0.4239,-0.3738,-0.371,-0.3738,-0.371,-0.371,-0.3987,-0.446,-0.4491,-0.4491,-0.4491,-0.4491,-0.4491,-0.4487,-0.4314,-0.415,-0.4024,-0.3897,-0.3687,-0.3376,-0.3351,-0.3221,-0.2951,-0.29,-0.2611,-0.2025,-0.1954,-0.1749,-0.1399,-0.1336,-0.1392,0.0,-0.1669,0.0,0.0,0.0,0.0,0.0,0.0,0.0,0.0,-0.209,-0.2245,-0.252,-0.2785,-0.2926,-0.2964,-0.3195,-0.3418,-0.3592,-0.3734,-0.388,-0.4008,-0.4316,-0.4512,-0.453,-0.4757,-0.4901,-0.4921,-0.4901,-0.4901,-0.4873,-0.4767,-0.4684,-0.4656,-0.457,-0.4491,-0.4491,-0.4491,-0.4491,-0.4491,-0.4491,-0.4409,-0.4267,-0.4221,-0.4196,-0.4118,-0.4107,-0.4155,-0.4272,-0.4296,-0.4298,-0.4298,-0.4639,-0.4879,-0.4879,-0.5221,-0.5653,-0.6081,-0.5996,-0.5752,-0.3647,-0.3643,-0.3202,-0.2924,-0.2806,-0.2054,-0.1546,-0.1156,-0.1132,-0.1104,-0.1109,-0.1109,-0.1106,-0.1134,-0.1931,-0.2588,-0.3199,-0.4022,-0.4619,-0.5056,-0.4911,-0.4809,-0.4684,-0.4563,-0.4432,-0.4322,-0.4322,-0.4322,-0.4349,-0.4322,-0.4377,-0.4491,-0.4491,-0.4491,-0.4491,0.0,0.0,0.0,-0.4464,-0.4351,-0.418,-0.4031,-0.3869,-0.3707,-0.3333,0.0,-0.3076,-0.2867,-0.2642,-0.2389,-0.2188,0.0,0.0,0.0,0.0,0.0,0.0,0.0,0.0,0.0,0.0,0.0,-0.2403,-0.2353,-0.2397,-0.2595,-0.2744,-0.2822,-0.2959,-0.3114,-0.3212,-0.3425,-0.3617,-0.3761,-0.3863,-0.4011,-0.4159,-0.436,-0.4548,-0.4658,-0.4803,-0.4901,-0.4901,-0.4901,-0.4846,-0.477,-0.4719,-0.4632,-0.4546,-0.4519,-0.4491,-0.4491,-0.4491,-0.4491,-0.4491,-0.4491,-0.4443,-0.4254,-0.4278,-0.4291,-0.4228,-0.4223,-0.4244,-0.4307,-0.4306,-0.4298,-0.4298,-0.4381,-0.4447,-0.4447,-0.4513,-0.4814,-0.5631,-0.5733,-0.5706,-0.3843,0.0,-0.3567,-0.3215,0.0,-0.2353,-0.1819,-0.1248,-0.1179,-0.114,-0.1097,-0.1082,-0.1109,-0.1143,-0.2179,-0.2848,-0.3251,-0.4353,-0.4985,-0.5237,-0.5059,-0.4945,-0.4796,-0.4675,-0.4394,-0.4073,-0.4353,-0.4353,-0.4073,-0.4353,-0.4491,-0.4491,-0.4491,-0.4491,-0.4491,-0.4491,-0.4491,-0.4491,-0.4491,-0.4392,-0.42,-0.4146,-0.3964,-0.3723,0.0,0.0,0.0,0.0,0.0,0.0,0.0,0.0,0.0,0.0,0.0,-0.2279,-0.23,-0.2331,-0.2447,-0.2514,-0.2616,-0.2798,-0.2873,-0.2832,-0.271,-0.2954,-0.3088,-0.3111,-0.3239,-0.3409,-0.3529,-0.3639,-0.3775,-0.3964,-0.4036,-0.4163,-0.4321,-0.4432,-0.4541,-0.4584,-0.4684,-0.4708,-0.4708,-0.4708,-0.468,-0.4632,-0.4605,-0.4574,-0.4519,-0.4491,-0.4491,-0.4491,-0.4491,-0.4491,-0.4491,-0.4487,-0.4474,-0.4365,-0.432,-0.4297,-0.4324,-0.4235,-0.4234,-0.4287,-0.4236,-0.417,-0.4192,-0.4144,-0.4096,-0.41,-0.41,-0.425,-0.4818,-0.4966,-0.5091,-0.3844,-0.3804,-0.3802,-0.3411,-0.2707,-0.2588,-0.2041,-0.1293,0.0,0.0,0.0,-0.1089,-0.1109,-0.121,-0.2414,-0.3015,-0.3082,-0.4386,-0.509,-0.5186,-0.5006,-0.4942,-0.4921,-0.4772,-0.4394,-0.3828,-0.4276,-0.4239,-0.379,-0.4267,-0.4491,-0.4491,-0.4491,-0.4491,-0.4491,-0.4491,-0.4491,-0.4491,-0.4491,-0.4429,-0.4264,-0.4207,-0.4035,-0.3689,-0.3717,-0.3565,-0.3181,-0.3216,-0.3098,-0.2784,-0.2761,-0.272,-0.2613,-0.2603,-0.2661,-0.2764,-0.2778,-0.2778,-0.2761,-0.2876,-0.2939,-0.2966,-0.3196,-0.3256,-0.2986,-0.3216,-0.3346,-0.3371,-0.3527,-0.3686,-0.3778,-0.3846,-0.3947,-0.4174,-0.4244,-0.4334,-0.447,-0.4491,-0.4484,-0.4491,-0.4491,-0.4491,-0.4491,-0.4491,-0.4491,-0.4491,-0.4491,-0.4491,-0.4491,-0.4491,-0.4491,-0.4491,-0.4491,-0.4491,-0.4491,-0.4491,-0.4491,-0.4477,-0.4362,-0.4313,-0.4355,-0.4288,-0.422,-0.4265,-0.4134,-0.4017,-0.4042,-0.3994,-0.3906,-0.3906,-0.3906,-0.395,-0.4064,-0.4192,-0.4425,-0.3846,-0.3802,-0.3802,-0.3724,-0.3567,-0.2823,-0.2041,-0.1291,-0.1235,-0.1153,-0.1084,-0.1089,-0.1109,-0.1143,-0.1913,-0.2281,-0.2313,-0.3149,-0.3851,0.0,-0.4291,-0.4544,-0.5024,-0.4819,-0.4651,-0.4531,-0.4524,-0.446,-0.4377,-0.446,-0.4491,-0.4491,-0.4491,-0.4491,-0.4491,-0.4491,-0.4491,-0.4491,-0.4491,-0.4481,-0.446,-0.4284,-0.4132,-0.394,-0.3734,-0.3542,-0.3368,-0.3215,-0.3104,-0.3063,-0.304,-0.303,-0.301,-0.3,-0.3035,-0.304,-0.3059,-0.304,-0.304,-0.3064,-0.3108,-0.3239,-0.3449,-0.347,-0.3269,-0.3446,-0.357,-0.3576,-0.3676,-0.3768,-0.3805,-0.3998,-0.4163,-0.4197,-0.4358,-0.447,-0.4491,-0.4491,-0.4491,-0.4491,-0.4491,-0.4491,-0.4491,-0.4491,-0.4491,-0.4491,-0.4491,-0.4491,-0.4491,-0.4491,-0.4491,-0.4491,-0.4491,-0.4491,-0.4491,-0.4491,-0.4491,-0.4491,-0.447,-0.444,-0.4467,-0.4449,-0.4348,-0.4228,-0.4036,-0.3928,-0.3928,-0.3928,-0.3884,-0.3884,-0.3884,-0.3928,-0.4042,-0.4104,-0.4192,-0.392,-0.3834,-0.3824,-0.3647,-0.3374,-0.2549,-0.1844,-0.1292,-0.1248,-0.1174,-0.1144,-0.1114,-0.1091,-0.1177,-0.1812,-0.2114,-0.2147,-0.2848,-0.3382,-0.3713,-0.403,-0.4329,-0.457,-0.4729,-0.4772,-0.4713,-0.4563,-0.4491,-0.4491,-0.4491,-0.4491,-0.4491,-0.4491,-0.4491,-0.4491,-0.4491,-0.4491,-0.4491,-0.4491,-0.4491,-0.4491,-0.4399,-0.4267,-0.4097,-0.3906,-0.3748,-0.3617,-0.3471,-0.3334,-0.3206,-0.3242,-0.3208,-0.3104,-0.312,-0.312,-0.312,-0.312,-0.3158,-0.3259,-0.3324,-0.3402,-0.347,-0.3537,-0.3576,-0.3483,-0.3559,-0.3634,-0.3709,-0.3781,-0.3863,-0.3994,-0.4113,-0.425,-0.4355,-0.4453,-0.4487,-0.4491,-0.4491,-0.4491,-0.4491,-0.4491,-0.4491,-0.4491,-0.4491,-0.4491,-0.4491,-0.4491,-0.4491,-0.4491,-0.4491,-0.4491,-0.4491,-0.4491,-0.4491,-0.4491,-0.4491,-0.4491,-0.4491,-0.4491,-0.4491,-0.4491,-0.4491,-0.4391,-0.4228,-0.3965,-0.378,-0.377,-0.3748,-0.3729,-0.3733,-0.3733,-0.3774,-0.3884,-0.3994,-0.4148,-0.3999,-0.3893,-0.3864,-0.3508,-0.2943,-0.2313,-0.1765,-0.1294,-0.1232,-0.1205,-0.1174,-0.1138,-0.1104,-0.1144,-0.1646,-0.1879,-0.1946,-0.2482,-0.2815,-0.3015,-0.3551,-0.3904,-0.4169,-0.4535,-0.4673,-0.4728,-0.458,-0.4491,-0.4491,-0.4491,-0.4491,-0.4491,-0.4491,-0.4491,-0.4491,-0.4491,-0.4491,-0.4491,-0.4491,-0.4491,-0.4491,-0.4491,-0.4419,-0.4223,-0.4072,-0.3948,-0.3795,-0.3656,-0.3524,-0.337,-0.3423,-0.3372,-0.3236,-0.3202,-0.3225,-0.3225,-0.3202,-0.3297,-0.3437,-0.3554,-0.36,-0.36,-0.36,-0.3614,-0.3645,-0.3651,-0.3692,-0.3778,-0.386,-0.3977,-0.4169,-0.4227,-0.4314,-0.4477,-0.4491,-0.4491,-0.4491,-0.4491,-0.4491,-0.4491,-0.4491,-0.4491,-0.4491,-0.4491,-0.4491,-0.4491,-0.4491,-0.4491,-0.4491,-0.4491,-0.4491,-0.4491,-0.4491,-0.4491,-0.4491,-0.4491,-0.4491,-0.4491,-0.4491,-0.4491,-0.4491,-0.4491,-0.4398,-0.4177,-0.3852,-0.3676,-0.3685,-0.3641,-0.36,-0.3626,-0.3622,-0.3644,-0.3722,-0.3902,-0.4104,-0.4059,-0.3912,-0.3889,-0.3358,-0.263,-0.247,-0.2002,-0.1335,-0.1293,-0.1236,-0.1202,-0.1111,-0.1105,-0.1111,-0.1177,-0.121,-0.1209,-0.1277,-0.1646,-0.2179,-0.228,-0.3011,-0.4111,-0.4037,-0.4235,-0.4767,-0.4574,-0.446,-0.4491,-0.4491,-0.4491,-0.4491,-0.4491,-0.4491,-0.4491,-0.4491,-0.4491,-0.4491,-0.4491,-0.4491,-0.4491,-0.4491,-0.4419,-0.4227,-0.4078,-0.3923,-0.3805,-0.3653,-0.3597,-0.3583,-0.3576,-0.3573,-0.3552,-0.3556,-0.3556,-0.3552,-0.3552,-0.357,-0.358,-0.3593,-0.36,-0.36,-0.3607,-0.3662,-0.3774,-0.3795,-0.3798,-0.3843,-0.4024,-0.4147,-0.42,-0.4362,-0.4464,-0.4484,-0.4491,-0.4491,-0.4491,-0.4491,-0.4491,-0.4491,-0.4491,-0.4491,-0.4491,-0.4491,-0.4491,-0.4491,-0.4491,-0.4491,-0.4491,-0.4491,-0.4491,-0.4491,-0.4491,-0.4491,-0.4491,-0.4491,-0.4491,-0.4491,-0.4491,-0.4481,-0.4474,-0.4464,-0.4415,-0.4082,-0.3802,-0.3617,-0.3622,-0.36,-0.36,-0.36,-0.36,-0.3626,-0.3704,-0.3814,-0.399,-0.4097,-0.3975,-0.3924,-0.3487,-0.2868,-0.2588,-0.2198,-0.1648,-0.1414,-0.1279,-0.1209,-0.1166,-0.1131,-0.1102,-0.1084,-0.1109,-0.1109,-0.1109,-0.1244,-0.1545,-0.1913,-0.2449,-0.2965,-0.3256,-0.3658,-0.4187,-0.406,-0.4153,-0.4436,-0.4491,-0.4491,-0.4491,-0.4491,-0.4491,-0.4491,-0.4491,-0.4491,-0.4491,-0.4491,-0.4491,-0.4491,-0.4491,-0.4464,-0.4368,-0.4206,-0.4058,-0.3906,-0.3782,-0.3692,-0.361,-0.36,-0.36,-0.36,-0.36,-0.36,-0.36,-0.36,-0.36,-0.36,-0.36,-0.36,-0.36,-0.3682,-0.3731,-0.3795,-0.3927,-0.4035,-0.4051,-0.4153,-0.425,-0.4362,-0.4453,-0.4491,-0.4491,-0.4491,-0.4491,-0.4491,-0.4491,-0.4491,-0.4491,-0.4491,-0.4491,-0.4491,-0.4491,-0.4491,-0.4491,-0.4491,-0.4491,-0.4491,-0.4491,-0.4491,-0.4491,-0.4491,-0.4491,-0.4491,-0.4491,-0.4491,-0.4491,-0.4491,-0.4477,-0.4365,-0.445,-0.4368,-0.3958,-0.3727,-0.3592,-0.36,-0.36,-0.36,-0.36,-0.36,-0.3622,-0.3678,-0.3744,-0.388,-0.405,-0.3815,-0.3625,-0.3228,-0.2747,-0.247,-0.2118,-0.1726,-0.1413,-0.1284,-0.1221,-0.122,-0.1155,-0.113,-0.1093,-0.1109,-0.1109,-0.1109,-0.1109,-0.1143,-0.1612,-0.1939,-0.2114,-0.2493,-0.3092,-0.3675,-0.367,-0.3904,-0.4436,-0.4491,-0.4491,-0.4491,-0.4491,-0.4491,-0.4491,-0.4491,-0.4491,-0.4491,-0.4491,-0.4491,-0.4491,-0.4491,-0.4491,-0.4477,-0.4297,-0.4166,-0.4058,-0.3897,-0.3767,-0.3665,-0.3628,-0.36,-0.36,-0.36,-0.36,-0.36,-0.36,-0.36,-0.36,-0.36,-0.36,-0.361,-0.371,-0.3812,-0.389,-0.4072,-0.4207,-0.4197,-0.4201,-0.4281,-0.4467,-0.4491,-0.4491,-0.4491,-0.4491,-0.4491,-0.4491,-0.4491,-0.4491,-0.4491,-0.4491,-0.4491,-0.4491,-0.4491,-0.4491,-0.4491,-0.4491,-0.4491,-0.4491,-0.4491,-0.4491,-0.4491,-0.4491,-0.4491,-0.4491,-0.4491,-0.4491,-0.4491,-0.4487,-0.444,-0.4247,-0.4331,-0.43,-0.388,-0.3693,-0.3592,-0.3604,-0.36,-0.36,-0.36,-0.36,-0.36,-0.3641,-0.366,-0.3748,-0.3974,-0.3348,-0.2804,-0.2399,-0.1959,-0.1959,-0.1726,-0.1414,-0.1297,-0.1295,-0.1282,-0.123,-0.1202,-0.1193,-0.1137,-0.111,-0.1109,-0.1109,-0.1109,-0.1109,-0.1176,-0.1491,-0.2065,-0.2001,-0.2579,-0.3581,-0.3586,-0.3876,-0.4463,-0.4491,-0.4491,-0.4491,-0.4491,-0.4491,-0.4491,-0.4491,-0.4491,-0.4491,-0.4491,-0.4491,-0.4491,-0.4491,-0.4491,-0.4477,-0.4301,-0.4197,-0.415,-0.3951,-0.3815,-0.3782,-0.3682,-0.3607,-0.3607,-0.361,-0.361,-0.3607,-0.3614,-0.361,-0.361,-0.3624,-0.3621,-0.3628,-0.3767,-0.3863,-0.3981,-0.4117,-0.4211,-0.4223,-0.4192,-0.4257,-0.4429,-0.4436,-0.4436,-0.446,-0.4491,-0.4463,-0.4491,-0.4463,-0.4491,-0.4491,-0.4491,-0.4491,-0.4491,-0.4491,-0.4491,-0.4491,-0.4491,-0.4491,-0.4491,-0.4491,-0.4491,-0.4491,-0.4491,-0.4491,-0.4491,-0.4491,-0.4491,-0.4491,-0.4477,-0.4429,-0.4267,-0.4109,-0.3975,-0.3829,-0.3676,-0.3592,-0.3604,-0.36,-0.36,-0.36,-0.36,-0.36,-0.3622,-0.36,-0.3663,-0.3498,-0.2937,-0.2683,-0.2467,-0.2275,-0.1998,-0.1804,-0.1649,-0.1414,-0.1284,-0.1226,-0.1204,-0.1174,-0.1136,-0.1115,-0.1094,-0.111,-0.1109,-0.1109,-0.1109,-0.1109,-0.1236,-0.1419,-0.1358,-0.1841,-0.2741,-0.3071,-0.3683,-0.455,-0.4546,-0.4491,-0.4491,-0.4491,-0.4491,-0.4491,-0.4491,-0.4491,-0.4491,-0.4491,-0.4491,-0.4491,-0.4491,-0.4491,-0.4487,-0.4443,-0.4314,-0.4227,-0.4112,-0.4018,-0.3917,-0.3795,-0.3737,-0.374,-0.3714,-0.374,-0.3747,-0.3809,-0.3819,-0.3744,-0.3809,-0.3819,-0.3767,-0.3923,-0.4068,-0.4127,-0.4167,-0.4197,-0.4181,-0.4107,-0.4104,-0.4132,-0.4159,-0.4187,-0.4187,-0.4187,-0.4218,-0.4273,-0.4301,-0.4356,-0.4463,-0.4491,-0.4491,-0.4491,-0.4491,-0.4491,-0.4491,-0.4491,-0.4491,-0.4491,-0.4491,-0.4491,-0.4491,-0.4491,-0.4491,-0.4491,-0.4491,-0.4491,-0.4491,-0.4464,-0.4341,-0.4182,-0.4039,-0.389,-0.3754,-0.3628,-0.361,-0.36,-0.36,-0.36,-0.36,-0.36,-0.36,-0.36,-0.36,-0.3619,-0.2895,-0.2518,-0.228,-0.2151,-0.2081,-0.1804,-0.1687,-0.1687,-0.1414,-0.1284,-0.1228,-0.1216,-0.1183,-0.1139,-0.109,-0.1104,-0.1111,-0.1109,-0.1109,-0.1109,-0.1109,-0.1104,-0.1057,-0.1021,-0.1463,-0.2356,-0.3063,-0.3829,-0.45,-0.457,-0.4546,-0.4546,-0.4519,-0.4491,-0.4491,-0.4491,-0.4491,-0.4491,-0.4491,-0.4491,-0.4491,-0.4491,-0.4491,-0.4491,-0.4491,-0.4447,-0.4291,-0.422,-0.4153,-0.4065,-0.3923,-0.3863,-0.3863,-0.3866,-0.3866,-0.3877,-0.3958,-0.3954,-0.3869,-0.394,-0.3972,-0.3887,-0.4065,-0.4223,-0.4204,-0.4222,-0.4181,-0.4135,-0.4021,-0.3938,-0.3888,-0.386,-0.3913,-0.3965,-0.3993,-0.4021,-0.4107,-0.4135,-0.4215,-0.4298,-0.4353,-0.4384,-0.4439,-0.4491,-0.4491,-0.4491,-0.4491,-0.4491,-0.4491,-0.4491,-0.4491,-0.4491,-0.4491,-0.4491,-0.4491,-0.4491,-0.4491,-0.4491,-0.4481,-0.4331,-0.4117,-0.3968,-0.3843,-0.3675,-0.36,-0.36,-0.36,-0.36,-0.36,-0.36,-0.36,-0.36,-0.36,-0.36,-0.3619,-0.2106,-0.2007,-0.1523,-0.138,-0.1415,-0.1375,-0.1336,-0.1335,-0.1336,-0.1293,-0.1281,-0.1225,-0.1197,-0.1164,-0.1137,-0.1107,-0.1084,-0.1111,-0.1109,-0.1109,-0.1109,-0.1062,-0.1008,-0.1001,-0.1481,-0.2448,-0.3709,-0.4349,-0.4435,-0.4608,-0.4688,-0.4688,-0.4574,-0.4519,-0.4491,-0.4491,-0.4491,-0.4491,-0.4491,-0.4491,-0.4491,-0.4491,-0.4491,-0.4491,-0.4491,-0.4484,-0.4474,-0.4301,-0.421,-0.421,-0.4078,-0.3998,-0.3981,-0.3987,-0.3994,-0.3998,-0.4008,-0.4008,-0.4022,-0.4018,-0.4041,-0.4018,-0.4117,-0.4247,-0.4221,-0.4175,-0.4135,-0.3993,-0.3882,-0.3744,-0.3666,-0.3641,-0.3719,-0.3941,-0.3968,-0.3965,-0.3993,-0.4021,-0.3993,-0.4049,-0.4135,-0.4221,-0.4249,-0.4384,-0.4491,-0.4491,-0.4491,-0.4491,-0.4491,-0.4491,-0.4491,-0.4491,-0.4491,-0.4491,-0.4491,-0.4491,-0.4491,-0.4487,-0.4477,-0.4395,-0.4128,-0.3951,-0.3839,-0.3686,-0.3607,-0.36,-0.36,-0.36,-0.36,-0.36,-0.36,-0.36,-0.36,-0.36,-0.36,-0.1578,-0.1511,-0.1386,-0.1316,-0.1298,-0.1297,-0.1297,-0.1297,-0.1297,-0.1285,-0.123,-0.1277,-0.1253,-0.121,-0.1191,-0.1135,-0.1106,-0.1087,-0.1109,-0.1109,-0.1109,-0.1104,-0.106,-0.101,-0.1508,-0.2488,-0.3565,-0.4199,-0.4464,-0.4709,-0.4794,-0.4715,-0.466,-0.4605,-0.4519,-0.4491,-0.4491,-0.4491,-0.4491,-0.4491,-0.4491,-0.4491,-0.4491,-0.4491,-0.4491,-0.4491,-0.4487,-0.4443,-0.4395,-0.4389,-0.423,-0.4105,-0.4038,-0.4095,-0.4146,-0.4133,-0.4273,-0.4273,-0.4176,-0.426,-0.427,-0.4203,-0.4311,-0.4331,-0.4211,-0.4106,-0.4021,-0.3852,-0.3744,-0.3638,-0.3613,-0.3613,-0.3641,-0.3724,-0.3722,-0.3774,-0.3855,-0.3938,-0.3993,-0.4021,-0.4107,-0.4193,-0.4249,-0.438,-0.446,-0.446,-0.4491,-0.4491,-0.4491,-0.4491,-0.4491,-0.4491,-0.4491,-0.4491,-0.4491,-0.4491,-0.4491,-0.4491,-0.4481,-0.4416,-0.4158,-0.395,-0.3832,-0.3713,-0.3634,-0.36,-0.36,-0.36,-0.36,-0.36,-0.36,-0.36,-0.36,-0.36,-0.36,-0.1364,-0.1302,-0.1303,-0.1315,-0.1298,-0.1297,-0.1297,-0.1297,-0.1297,-0.1285,-0.1236,-0.1288,-0.1269,-0.1225,-0.1208,-0.1149,-0.1119,-0.109,-0.1109,-0.1109,-0.1109,-0.1109,-0.1108,-0.1192,-0.1612,-0.2417,-0.338,-0.4016,-0.4451,-0.4793,-0.4928,-0.4853,-0.4746,-0.466,-0.4574,-0.4519,-0.4491,-0.4491,-0.4491,-0.4491,-0.4491,-0.4491,-0.4491,-0.4491,-0.4491,-0.4491,-0.4491,-0.4491,-0.4491,-0.4477,-0.4372,-0.428,-0.4199,-0.4277,-0.4328,-0.4345,-0.4426,-0.4443,-0.4321,-0.4399,-0.4457,-0.4365,-0.4412,-0.4405,-0.4218,-0.4079,-0.3938,-0.3796,-0.3663,-0.3613,-0.3613,-0.3613,-0.3613,-0.3613,-0.3613,-0.3638,-0.3716,-0.3802,-0.383,-0.3885,-0.3968,-0.4024,-0.4076,-0.4245,-0.438,-0.438,-0.4436,-0.4491,-0.4491,-0.4491,-0.4463,-0.4463,-0.4491,-0.4491,-0.4491,-0.4491,-0.4491,-0.4491,-0.4487,-0.4358,-0.4163,-0.4028,-0.3917,-0.3723,-0.3604,-0.36,-0.36,-0.36,-0.36,-0.36,-0.36,-0.36,-0.36,-0.36,-0.36,-0.1306,-0.1298,-0.1323,-0.1298,-0.1297,-0.1297,-0.1297,-0.1297,-0.1297,-0.1295,-0.1295,-0.1295,-0.1279,-0.1209,-0.1179,-0.1186,-0.1084,-0.1089,-0.1109,-0.1109,-0.1143,-0.1143,-0.1141,-0.1374,-0.1762,-0.2297,-0.3185,-0.3834,-0.4207,-0.4773,-0.5077,-0.4963,-0.4825,-0.4719,-0.4688,-0.4574,-0.4519,-0.4491,-0.4491,-0.4491,-0.4491,-0.4491,-0.4491,-0.4491,-0.4491,-0.4491,-0.4491,-0.4491,-0.4491,-0.4491,-0.4477,-0.446,-0.4474,-0.4491,-0.4474,-0.447,-0.4487,-0.4487,-0.4484,-0.4481,-0.4484,-0.4474,-0.445,-0.4408,-0.4193,-0.4049,-0.391,-0.3796,-0.3666,-0.3613,-0.3613,-0.3613,-0.3613,-0.3613,-0.3613,-0.361,-0.3613,-0.361,-0.3641,-0.3666,-0.3716,-0.3824,-0.3824,-0.3993,-0.4052,-0.4079,-0.4128,-0.4042,-0.4125,-0.4042,-0.4294,-0.4239,-0.4042,-0.3987,-0.3821,-0.3821,-0.3821,-0.3821,-0.3926,-0.3926,-0.3925,-0.3849,-0.3728,-0.3576,-0.3522,-0.3544,-0.3604,-0.3604,-0.36,-0.36,-0.36,-0.36,-0.3534,-0.3442,-0.3309,-0.1306,-0.13,-0.1323,-0.1297,-0.1297,-0.1297,-0.1297,-0.1297,-0.1297,-0.1297,-0.1297,-0.1297,-0.1279,-0.1172,-0.118,-0.115,-0.1119,-0.1089,-0.1109,-0.1143,-0.1378,-0.1311,-0.121,-0.1445,-0.1764,-0.2155,-0.2885,-0.3451,-0.3752,-0.4455,-0.4756,-0.466,-0.4877,-0.4881,-0.4719,-0.466,-0.4605,-0.4519,-0.4491,-0.4491,-0.4491,-0.4491,-0.4491,-0.4491,-0.4491,-0.4491,-0.4491,-0.4491,-0.4491,-0.4491,-0.4491,-0.4491,-0.4491,-0.4491,-0.4491,-0.4491,-0.4491,-0.4491,-0.4491,-0.4491,-0.4491,-0.4491,-0.4384,-0.4221,-0.4052,-0.3938,-0.3799,-0.3691,-0.361,-0.3585,-0.3585,-0.3613,-0.3613,-0.3613,-0.3613,-0.3613,-0.3613,-0.3613,-0.3613,-0.3613,-0.3688,-0.3741,-0.3685,-0.3519,-0.3408,-0.3325,-0.3181,-0.301,-0.3206,-0.3236,-0.332,-0.3209,-0.3098,-0.3125,-0.3095,-0.3095,-0.3098,-0.307,-0.3139,-0.3242,-0.3271,-0.3335,-0.3202,-0.3071,-0.3242,-0.3286,-0.3465,-0.3581,-0.3581,-0.3376,-0.342,-0.3331,-0.3148,-0.3012,-0.279,-0.1306,-0.13,-0.1322,-0.1297,-0.1297,-0.1297,-0.1297,-0.1297,-0.1297,-0.1297,-0.1297,-0.1297,-0.1241,-0.1173,-0.118,-0.1149,-0.112,-0.1089,-0.111,-0.1109,-0.1277,-0.1344,-0.1311,-0.1412,-0.1633,-0.2068,-0.2525,-0.3009,-0.3523,-0.4071,-0.4343,-0.4574,-0.4739,-0.4822,-0.4881,-0.4798,-0.4712,-0.4605,-0.4574,-0.4574,-0.4519,-0.4491,-0.4491,-0.4491,-0.4491,-0.4491,-0.4491,-0.4491,-0.4491,-0.4491,-0.4491,-0.4491,-0.4491,-0.4491,-0.4491,-0.4491,-0.4546,-0.4605,-0.4574,-0.4574,-0.4574,-0.4519,-0.4359,-0.4135,-0.3993,-0.3852,-0.3713,-0.3269,-0.3244,-0.3218,-0.3274,-0.3444,-0.3585,-0.3613,-0.3613,-0.3585,-0.3585,-0.3613,-0.3613,-0.3555,-0.3438,-0.335,-0.332,-0.2933,-0.2713,-0.2599,-0.2484,-0.2426,-0.2456,-0.2345,-0.2345,-0.2374,-0.2486,-0.2625,-0.2706,-0.2708,-0.2681,-0.2597,-0.2397,-0.2481,-0.2673,-0.2782,-0.2749,-0.2699,-0.289,-0.3047,-0.3126,-0.3122,-0.2884,-0.2793,-0.2948,-0.2926,-0.2677,-0.2563,-0.2342,-0.1306,-0.1301,-0.1323,-0.1297,-0.1297,-0.1297,-0.1297,-0.1297,-0.1297,-0.1297,-0.1297,-0.1297,-0.124,-0.121,-0.118,-0.115,-0.1085,-0.1089,-0.1213,-0.1244,-0.1311,-0.1378,-0.1614,-0.1277,-0.151,-0.1971,-0.2057,-0.2538,-0.3132,-0.3461,-0.3875,-0.4253,-0.4408,-0.4712,-0.4877,-0.4901,-0.4849,-0.4715,-0.466,-0.4605,-0.4519,-0.4491,-0.4491,-0.4491,-0.4491,-0.4491,-0.4491,-0.4491,-0.4491,-0.4491,-0.4491,-0.4491,-0.4491,-0.4491,-0.4491,-0.4519,-0.4574,-0.4632,-0.4688,-0.4688,-0.4688,-0.4632,-0.4387,-0.4162,-0.3993,-0.3855,-0.3491,-0.2877,-0.271,-0.271,-0.2655,-0.3077,-0.3218,-0.319,-0.3304,-0.3388,-0.3416,-0.3471,-0.3499,-0.3444,-0.2963,-0.2655,-0.2486,-0.2237,-0.1902,-0.1847,-0.1705,-0.1536,-0.1536,-0.1536,-0.1676,-0.1871,-0.2038,-0.2235,-0.2319,-0.2374,-0.2319,-0.2209,-0.1846,-0.1803,-0.2046,-0.2167,-0.2212,-0.2311,-0.25,-0.2528,-0.2462,-0.2359,-0.2224,-0.2277,-0.2499,-0.2322,-0.2055,-0.2055,-0.1921,-0.1306,-0.1301,-0.1322,-0.1297,-0.1297,-0.1297,-0.1297,-0.1297,-0.1297,-0.1297,-0.1297,-0.1297,-0.124,-0.1172,-0.118,-0.115,-0.1085,-0.1125,-0.1379,-0.1884,-0.1614,-0.1748,-0.1849,-0.1445,-0.1378,-0.171,-0.1738,-0.1943,-0.2392,-0.2919,-0.3223,-0.3345,-0.4132,-0.4632,-0.4629,-0.4822,-0.4904,-0.4743,-0.466,-0.4574,-0.446,-0.4432,-0.446,-0.4491,-0.4491,-0.4491,-0.4491,-0.4491,-0.4491,-0.4491,-0.4491,-0.4491,-0.4491,-0.4491,-0.4491,-0.4519,-0.4546,-0.4605,-0.4688,-0.4719,-0.4719,-0.4691,-0.4415,-0.4135,-0.3993,-0.3774,-0.3355,-0.285,-0.2681,-0.2458,-0.2096,-0.2097,-0.2294,-0.235,-0.2322,-0.2294,-0.2293,-0.2629,-0.2852,-0.2766,-0.2374,-0.1984,-0.1986,-0.1484,-0.1205,-0.1121,0.0,0.0,0.0,0.0,-0.0979,-0.1258,-0.1342,-0.151,-0.1595,-0.1679,-0.1706,-0.1679,-0.1371,-0.1231,-0.1458,-0.1603,-0.1682,-0.1856,-0.2065,-0.204,-0.1913,-0.2036,-0.1998,-0.2028,-0.1988,-0.181,-0.1633,-0.1588,-0.1521,-0.1298,-0.1322,-0.1316,-0.1297,-0.1297,-0.1297,-0.1297,-0.1297,-0.1297,-0.1297,-0.1297,-0.1297,-0.1241,-0.1172,-0.118,-0.115,-0.1119,-0.1124,-0.1378,-0.1748,-0.1681,-0.1816,-0.2085,-0.1816,-0.1648,-0.1614,-0.1412,-0.1595,-0.2001,-0.2207,-0.2441,-0.2725,-0.3519,-0.3849,-0.4098,-0.4408,-0.4349,-0.4125,-0.4098,-0.407,-0.407,-0.4098,-0.4294,-0.4432,-0.4491,-0.4491,-0.4491,-0.4491,-0.4491,-0.4491,-0.4491,-0.4491,-0.4491,-0.4491,-0.4491,-0.4519,-0.4574,-0.4656,-0.4739,-0.4794,-0.4791,-0.4767,-0.4491,-0.4245,-0.4024,-0.3802,-0.3213,-0.2541,-0.2207,-0.2014,-0.1483,-0.1706,-0.1762,-0.179,-0.179,-0.179,-0.1846,-0.2097,-0.2263,-0.2151,-0.1762,-0.1484,-0.1205,-0.0841,0.0,0.0,0.0,0.0,0.0,0.0,0.0,-0.0532,-0.0588,-0.07,-0.0813,-0.0897,-0.1008,-0.098,-0.0896,-0.084,-0.0974,-0.1102,-0.1201,-0.1394,-0.158,-0.1455,-0.1394,-0.1557,-0.1604,-0.1392,-0.1277,-0.1254,-0.1232,-0.1144,-0.1054,-0.1326,-0.13,-0.131,-0.1297,-0.1297,-0.1297,-0.1297,-0.1297,-0.1297,-0.1297,-0.1297,-0.1297,-0.1244,-0.1217,-0.1181,-0.1149,-0.1114,-0.1125,-0.1311,-0.1614,-0.1748,-0.1918,-0.2153,-0.2186,-0.1983,-0.1614,-0.1378,-0.1531,-0.1627,-0.1594,-0.1845,-0.2289,-0.271,-0.3098,-0.343,-0.3683,-0.371,-0.3458,-0.3403,-0.3403,-0.3516,-0.3599,-0.3959,-0.4405,-0.4491,-0.4491,-0.4491,-0.4491,-0.4491,-0.4491,-0.4405,-0.4349,-0.4349,-0.4377,-0.4377,-0.4349,-0.4239,-0.4211,-0.4291,-0.4429,-0.4457,-0.4622,-0.4346,-0.4159,-0.3913,-0.3522,-0.285,-0.2179,-0.1651,-0.126,-0.0869,-0.1064,-0.137,-0.1427,-0.1483,-0.1511,-0.1539,-0.1539,-0.1483,-0.1567,-0.1175,-0.0812,-0.0644,0.0,0.0,0.0,0.0,0.0,0.0,0.0,0.0,0.0,-0.0308,-0.0449,-0.0533,-0.0589,-0.0645,-0.0617,-0.0533,-0.0561,-0.0645,-0.0808,-0.0941,-0.0941,-0.1034,-0.1,-0.0993,-0.1089,-0.1005,-0.0734,-0.0764,-0.092,-0.0876,-0.0719,-0.0697,-0.1307,-0.13,-0.131,-0.1297,-0.1297,-0.1297,-0.1297,-0.1297,-0.1297,-0.1297,-0.1297,-0.1297,-0.1293,-0.1274,-0.1226,-0.1173,-0.113,-0.1111,-0.1277,-0.158,-0.1816,-0.2085,-0.2119,-0.2354,-0.2185,-0.1748,-0.1476,-0.1437,-0.1313,-0.1321,-0.1429,-0.1646,-0.2181,-0.2597,-0.2736,-0.3012,-0.3125,-0.2877,-0.285,-0.2847,-0.2931,-0.3375,-0.3876,-0.4405,-0.4491,-0.4491,-0.4491,-0.4491,-0.4491,-0.4432,-0.4015,-0.3821,-0.3766,-0.3763,-0.3707,-0.368,-0.3403,-0.335,-0.3433,-0.335,-0.343,-0.3456,-0.3375,-0.338,-0.3327,-0.2907,-0.232,-0.1734,0.0,0.0,0.0,0.0,0.0,0.0,0.0,0.0,0.0,0.0,0.0,-0.0924,-0.0532,0.0,0.0,0.0,0.0,0.0,0.0,0.0,0.0,0.0,0.0,0.0,-0.014,-0.028,-0.0393,-0.0449,-0.0477,-0.0449,-0.0421,-0.0421,-0.0505,-0.0645,-0.0728,-0.0753,-0.0829,-0.0888,-0.086,-0.0805,-0.077,-0.0733,-0.0702,-0.0697,-0.0697,-0.0697,-0.0697,-0.1294,-0.1318,-0.1303,-0.1297,-0.1297,-0.1297,-0.1297,-0.1297,-0.1297,-0.1297,-0.1297,-0.1297,-0.1297,-0.128,-0.1231,-0.1168,-0.1123,-0.1109,-0.121,-0.1412,-0.1715,-0.1884,-0.1951,-0.2287,-0.2085,-0.1748,-0.1576,-0.1373,-0.1056,-0.1111,-0.1162,-0.1224,-0.1652,-0.1875,-0.1958,-0.2207,-0.2263,-0.2155,-0.2099,-0.2183,-0.2348,-0.3098,-0.3876,-0.4322,-0.4491,-0.4491,-0.4491,-0.4491,-0.4491,-0.4377,-0.3932,-0.368,-0.343,-0.3042,-0.282,-0.2986,-0.282,-0.2738,-0.285,-0.2907,-0.3014,-0.3098,-0.2875,-0.285,-0.2854,-0.2462,-0.1875,-0.126,0.0,0.0,0.0,0.0,0.0,0.0,0.0,0.0,0.0,0.0,0.0,0.0,0.0,0.0,0.0,0.0,0.0,0.0,0.0,0.0,0.0,0.0,0.0,0.0,-0.0112,-0.0252,-0.0336,-0.0336,-0.0308,-0.028,-0.028,-0.028,-0.0308,-0.0421,-0.0505,-0.056,-0.0663,-0.0792,-0.0837,-0.0802,-0.0767,-0.0735,-0.0703,-0.0697,-0.0697,-0.0697,-0.0697,-0.1319,-0.1297,-0.1297,-0.1297,-0.1297,-0.1297,-0.1297,-0.1297,-0.1297,-0.1297,-0.1297,-0.1296,-0.1293,-0.1272,-0.1221,-0.1162,-0.1111,-0.1109,-0.1109,-0.121,-0.1479,-0.1614,-0.1715,-0.1918,-0.2018,-0.1648,-0.1579,-0.1405,-0.1061,-0.1019,-0.0983,-0.0999,-0.115,-0.1234,-0.1317,-0.1539,-0.1401,-0.1318,-0.1234,-0.1429,-0.2125,-0.3014,-0.3876,-0.4432,-0.4491,-0.4491,-0.4491,-0.4294,-0.4239,-0.4042,-0.3599,-0.3181,-0.304,-0.2207,-0.1873,-0.2263,-0.2348,-0.2404,-0.2432,-0.2406,-0.232,-0.2432,-0.246,-0.2432,-0.2406,-0.2099,-0.1652,-0.0897,0.0,0.0,0.0,0.0,0.0,0.0,0.0,0.0,0.0,0.0,0.0,0.0,0.0,0.0,0.0,0.0,0.0,0.0,0.0,0.0,0.0,0.0,0.0,0.0,-0.0112,-0.0252,-0.0308,-0.028,-0.0224,-0.0168,-0.014,-0.0112,-0.014,-0.0196,-0.028,-0.0393,-0.056,-0.0688,-0.0735,-0.0751,-0.0699,-0.0653,-0.066,-0.0652,-0.0629,-0.0674,-0.0697,-0.13,-0.1297,-0.1297,-0.1297,-0.1297,-0.1297,-0.1297,-0.1297,-0.1297,-0.1297,-0.1297,-0.1295,-0.1243,-0.1208,-0.1156,-0.1109,-0.1084,-0.1109,-0.1109,-0.1143,-0.1412,-0.1547,-0.1614,-0.2018,-0.1849,-0.158,-0.1547,-0.1368,-0.1098,-0.1022,-0.0958,-0.0941,-0.0956,-0.0954,-0.1009,-0.1093,-0.101,-0.0982,-0.0982,-0.1512,-0.2486,-0.3239,-0.3879,-0.4322,-0.4491,-0.4432,-0.4349,-0.4042,-0.379,-0.3569,-0.2653,-0.2096,-0.1902,-0.14,-0.1065,-0.1093,-0.1121,-0.112,-0.1289,-0.1373,-0.1457,-0.1569,-0.1429,-0.154,-0.1708,-0.1625,-0.1177,-0.0533,-0.0252,-0.0168,-0.014,-0.0056,0.0,0.0,0.0,0.0,0.0,0.0,0.0,0.0,0.0,0.0,0.0,0.0,0.0,0.0,0.0,0.0,0.0,0.0,0.0,0.0,-0.0084,-0.0224,-0.028,-0.0224,-0.0168,-0.0056,0.0,0.0,-0.0056,-0.0112,-0.014,-0.028,0.0,0.0,-0.0551,-0.0578,-0.0559,-0.0564,-0.0548,-0.0542,-0.0517,-0.0584,-0.0652,-0.1297,-0.1297,-0.1297,-0.1297,-0.1297,-0.1297,-0.1297,-0.1297,-0.1297,-0.1297,-0.1297,-0.1297,-0.127,-0.1184,-0.1138,-0.1105,-0.1115,-0.1109,-0.1109,-0.1109,-0.1244,-0.1311,-0.1344,-0.1479,-0.1445,-0.1412,-0.1307,-0.1222,-0.1052,-0.0993,-0.0963,-0.0898,-0.0878,-0.0898,-0.0897,-0.0897,-0.0897,-0.1009,-0.126,-0.1845,-0.2625,-0.3292,-0.3876,-0.446,-0.446,-0.4322,-0.399,-0.3793,-0.3403,-0.307,-0.2207,-0.1818,-0.1652,-0.126,-0.0897,-0.0897,-0.0898,-0.0925,-0.0925,-0.0897,-0.0954,-0.101,-0.0954,-0.1065,-0.1205,-0.1093,-0.0841,-0.0449,-0.028,-0.0224,-0.0196,-0.0084,0.0,0.0,0.0,0.0,0.0,0.0,0.0,0.0,0.0,0.0,0.0,0.0,0.0,0.0,0.0,0.0,0.0,0.0,0.0,0.0,-0.014,-0.0168,-0.0196,-0.0196,-0.014,0.0,0.0,0.0,0.0,-0.0028,0.0,0.0,0.0,0.0,0.0,-0.0431,-0.0468,-0.0451,-0.0434,-0.043,-0.0427,-0.045,-0.0517,-0.1297,-0.1297,-0.1297,-0.1297,-0.1297,-0.1297,-0.1297,-0.1297,-0.1297,-0.1297,-0.1291,-0.1279,-0.124,-0.1158,-0.1123,-0.1094,-0.111,-0.1109,-0.1109,-0.1109,-0.1109,-0.1109,-0.1143,-0.1143,-0.1143,-0.1109,-0.1143,-0.1097,-0.104,-0.1007,-0.0973,-0.0913,-0.0882,-0.0872,-0.0897,-0.0897,-0.0897,-0.0925,-0.1456,-0.1956,-0.2486,-0.3211,-0.3655,-0.4018,-0.4211,-0.4125,-0.3486,-0.3347,-0.307,-0.2486,-0.1874,-0.1484,-0.14,-0.1121,-0.0897,-0.0897,-0.0897,-0.0897,-0.0897,-0.0897,-0.0897,-0.0897,-0.0897,-0.0897,-0.0813,-0.0729,-0.0673,-0.0505,-0.0308,-0.0224,-0.0196,-0.0084,0.0,0.0,0.0,0.0,0.0,0.0,0.0,0.0,0.0,0.0,0.0,0.0,0.0,0.0,0.0,0.0,0.0,0.0,0.0,0.0,0.0,0.0,0.0,0.0,0.0,0.0,0.0,0.0,0.0,0.0,0.0,0.0,0.0,0.0,0.0,-0.0285,-0.0374,-0.0335,-0.0323,-0.0317,-0.0337,-0.036,-0.0405,-0.1297,-0.1297,-0.1297,-0.1297,-0.1297,-0.1297,-0.1297,-0.1296,-0.1295,-0.1293,-0.128,-0.1238,-0.1159,-0.1126,-0.11,-0.1115,-0.1109,-0.1109,-0.1109,-0.1109,-0.1109,-0.1109,-0.1109,-0.1109,-0.1109,-0.1109,-0.1109,-0.1107,-0.109,-0.1009,-0.0975,-0.0913,-0.0884,-0.0873,-0.0897,-0.0897,-0.0897,-0.1009,-0.1483,-0.179,-0.2235,-0.282,-0.3322,-0.3209,-0.3793,-0.3987,-0.2845,-0.2764,-0.2486,-0.1902,-0.14,-0.1093,-0.1065,-0.0982,-0.0897,-0.0897,-0.0897,-0.0897,-0.0897,-0.0897,-0.0897,-0.0897,-0.0869,-0.0841,-0.0757,-0.0729,-0.0673,-0.0589,-0.0364,-0.0224,-0.0168,0.0,0.0,0.0,0.0,0.0,0.0,0.0,0.0,0.0,0.0,0.0,0.0,0.0,0.0,0.0,0.0,0.0,0.0,0.0,0.0,0.0,0.0,0.0,0.0,0.0,0.0,0.0,0.0,0.0,0.0,0.0,0.0,0.0,0.0,0.0,-0.0028,-0.0131,-0.0225,-0.0217,-0.021,-0.0205,-0.0225,-0.0247,-0.0315,-0.1297,-0.1297,-0.1297,-0.1297,-0.1297,-0.1297,-0.1297,-0.1293,-0.1277,-0.1217,-0.1237,-0.1158,-0.1132,-0.1114,-0.1091,-0.1109,-0.1109,-0.1109,-0.1109,-0.1109,-0.1109,-0.1109,-0.1109,-0.1109,-0.1109,-0.1109,-0.1109,-0.1063,-0.101,-0.1007,-0.0944,-0.0913,-0.0884,-0.0874,-0.0897,-0.0897,-0.0897,-0.1037,-0.1428,-0.1762,-0.1956,-0.2512,-0.2931,-0.2847,-0.2959,-0.2986,-0.2291,-0.2153,-0.179,-0.1372,-0.1037,-0.0926,-0.0897,-0.0897,-0.0897,-0.0897,-0.0897,-0.0897,-0.0897,-0.0869,-0.0869,-0.0785,-0.0757,-0.0729,-0.0645,-0.0533,-0.0505,-0.0421,-0.0336,-0.0196,-0.0168,0.0,0.0,0.0,0.0,0.0,0.0,0.0,0.0,0.0,0.0,0.0,0.0,0.0,0.0,0.0,0.0,0.0,0.0,0.0,0.0,0.0,0.0,0.0,0.0,0.0,0.0,0.0,0.0,0.0,0.0,0.0,0.0,0.0,0.0,0.0,0.0,0.0,0.0,0.0,0.0,-0.0068,-0.009,0.0,0.0,-0.1297,-0.1297,-0.1297,-0.1297,-0.1297,-0.1297,-0.1291,-0.1279,-0.1222,-0.1188,-0.1153,-0.113,-0.1114,-0.1104,-0.1088,-0.1109,-0.1109,-0.1109,-0.1109,-0.1109,-0.1109,-0.1109,-0.1109,-0.1109,-0.1109,-0.1109,-0.1106,-0.1063,-0.1003,-0.1003,-0.0942,-0.0913,-0.0886,-0.0872,-0.0897,-0.0897,-0.0897,-0.1009,-0.1232,-0.1512,-0.1595,-0.2096,-0.2235,-0.2293,-0.2516,-0.2319,-0.1873,-0.1679,-0.1567,-0.1176,-0.0897,-0.0897,-0.0897,-0.0897,-0.0897,-0.0897,-0.0897,-0.0897,-0.0897,-0.0869,-0.0841,-0.0729,-0.0701,-0.0617,-0.0449,-0.0364,-0.0336,-0.0336,-0.0224,0.0,0.0,0.0,0.0,0.0,0.0,0.0,0.0,0.0,0.0,0.0,0.0,0.0,0.0,0.0,0.0,0.0,0.0,0.0,0.0,0.0,0.0,0.0,0.0,0.0,0.0,0.0,0.0,0.0,0.0,0.0,0.0,0.0,0.0,0.0,0.0,0.0,0.0,0.0,0.0,0.0,0.0,0.0,0.0,0.0,0.0,-0.1297,-0.1297,-0.1297,-0.1296,-0.1294,-0.1296,-0.1279,-0.1214,-0.1167,-0.1172,-0.1195,-0.1186,-0.1241,-0.1254,-0.138,-0.1277,-0.121,-0.1176,-0.1109,-0.1109,-0.1109,-0.1109,-0.1109,-0.1109,-0.1109,-0.1109,-0.1068,-0.1053,-0.0996,-0.0994,-0.0936,-0.0911,-0.0882,-0.0897,-0.0897,-0.0897,-0.0897,-0.0897,-0.0954,-0.101,-0.1149,-0.1567,-0.1512,-0.154,-0.1958,-0.1845,-0.14,-0.1428,-0.1316,-0.1009,-0.0897,-0.0897,-0.0897,-0.0897,-0.0897,-0.0897,-0.0897,-0.0897,-0.0897,-0.0869,-0.0785,-0.0673,-0.0617,-0.0533,-0.0393,-0.028,-0.0196,-0.0196,-0.0112,0.0,0.0,0.0,0.0,0.0,0.0,0.0,0.0,0.0,0.0,0.0,0.0,0.0,0.0,0.0,0.0,0.0,0.0,0.0,0.0,0.0,0.0,0.0,0.0,0.0,0.0,0.0,0.0,0.0,0.0,0.0,0.0,0.0,0.0,0.0,0.0,0.0,0.0,0.0,0.0,0.0,0.0,0.0,0.0,0.0,0.0,-0.1297,-0.1297,-0.1297,-0.1284,-0.1232,-0.1288,-0.1267,-0.1183,-0.1087,-0.1269,-0.1678,-0.1667,-0.2035,-0.2217,-0.1946,-0.1745,-0.1678,-0.1176,-0.1109,-0.1109,-0.1109,-0.1109,-0.1109,-0.1109,-0.1109,-0.107,-0.1059,-0.1035,-0.1001,-0.0976,-0.0944,-0.0915,-0.0877,-0.0898,-0.0897,-0.0897,-0.0897,-0.0897,-0.0897,-0.0897,-0.0926,-0.1093,-0.1149,-0.0926,-0.14,-0.1344,-0.0926,-0.1204,-0.1093,-0.0926,-0.0897,-0.0897,-0.0897,-0.0897,-0.0897,-0.0869,-0.0841,-0.0701,-0.0617,-0.0561,-0.0533,-0.0477,-0.0421,-0.0336,-0.014,-0.0112,-0.0084,0.0,0.0,0.0,0.0,0.0,0.0,0.0,0.0,0.0,0.0,0.0,0.0,0.0,0.0,0.0,0.0,0.0,0.0,0.0,0.0,0.0,0.0,0.0,0.0,0.0,0.0,0.0,0.0,0.0,0.0,0.0,0.0,0.0,0.0,0.0,0.0,0.0,0.0,0.0,0.0,0.0,0.0,0.0,0.0,0.0,0.0,0.0,0.0,-0.129,-0.1281,-0.1281,-0.1217,-0.1191,-0.1224,-0.1206,-0.1152,-0.1188,-0.1536,-0.1886,-0.2082,-0.2482,-0.2817,-0.2683,-0.2214,-0.208,-0.1678,-0.1176,-0.1143,-0.1109,-0.1109,-0.1109,-0.1109,-0.1109,-0.1067,-0.1047,-0.1019,-0.1022,-0.0928,-0.09,-0.0907,-0.0897,-0.0897,-0.0897,-0.0897,-0.0897,-0.0897,-0.0897,-0.0897,-0.0897,-0.0925,-0.0925,-0.0897,-0.0953,-0.0897,-0.0897,-0.0897,-0.0897,-0.0897,-0.0897,-0.0897,-0.0897,-0.0897,-0.0897,-0.0841,-0.0785,-0.0617,-0.0477,-0.0364,-0.0364,-0.0336,-0.0252,-0.014,0.0,0.0,0.0,0.0,0.0,0.0,0.0,0.0,0.0,0.0,0.0,0.0,0.0,0.0,0.0,0.0,0.0,0.0,0.0,0.0,0.0,0.0,0.0,0.0,0.0,0.0,0.0,0.0,0.0,0.0,0.0,0.0,0.0,0.0,0.0,0.0,0.0,0.0,0.0,0.0,0.0,0.0,0.0,0.0,0.0,0.0,0.0,0.0,0.0,0.0,0.0,-0.1276,-0.1212,-0.1173,-0.1177,-0.1103,-0.1144,-0.1061,-0.0946,-0.1534,-0.1718,-0.1715,-0.2418,-0.2887,-0.3088,-0.3056,-0.272,-0.2214,-0.2047,-0.1578,-0.1244,-0.1109,-0.1109,-0.1109,-0.1109,-0.1109,-0.1065,-0.1044,-0.1009,-0.1017,-0.0949,-0.089,-0.0875,-0.0898,-0.0897,-0.0897,-0.0897,-0.0897,-0.0897,-0.0897,-0.0897,-0.0897,-0.0897,-0.0897,-0.0897,-0.0897,-0.0897,-0.0897,-0.0897,-0.0897,-0.0897,-0.0897,-0.0897,-0.0897,-0.0897,-0.0897,-0.0841,-0.0729,-0.0533,-0.0364,-0.0252,-0.0224,-0.0196,-0.0168,-0.0084,0.0,0.0,0.0,0.0,0.0,0.0,0.0,0.0,0.0,0.0,0.0,0.0,0.0,0.0,0.0,0.0,0.0,0.0,0.0,0.0,0.0,0.0,0.0,0.0,0.0,0.0,0.0,0.0,0.0,0.0,0.0,0.0,0.0,0.0,0.0,0.0,0.0,0.0,0.0,0.0,0.0,0.0,0.0,0.0,0.0,0.0,0.0,0.0,0.0,0.0,0.0,-0.1224,-0.118,-0.118,-0.1156,-0.1089,-0.0979,-0.0907,-0.0907,-0.0886,-0.1278,-0.2385,-0.245,-0.3121,-0.4195,-0.3792,-0.3255,-0.2753,-0.2183,-0.1613,-0.1277,-0.1109,-0.1109,-0.1109,-0.1109,-0.1109,-0.1092,-0.1064,-0.0999,-0.0979,-0.0941,-0.0911,-0.0898,-0.0897,-0.0897,-0.0897,-0.0897,-0.0897,-0.0897,-0.0897,-0.0897,-0.0897,-0.0897,-0.0897,-0.0897,-0.0897,-0.0897,-0.0897,-0.0897,-0.0897,-0.0897,-0.0897,-0.0897,-0.0897,-0.0897,-0.0841,-0.0561,-0.0421,-0.028,-0.014,0.0,0.0,0.0,-0.0028,-0.0028,0.0,0.0,0.0,0.0,0.0,0.0,0.0,0.0,0.0,0.0,0.0,0.0,0.0,0.0,0.0,0.0,0.0,0.0,0.0,0.0,0.0,0.0,0.0,0.0,0.0084,0.0056,0.0,0.0,0.0,0.0,0.0,0.0,0.0,0.0,0.0,0.0,0.0,0.0,0.0,0.0,0.0,0.0,0.0,0.0,0.0,0.013,0.0,0.0,0.0,0.0,0.0,-0.1196,-0.1149,-0.1184,-0.1131,-0.1034,-0.0814,-0.0715,-0.0722,-0.0712,-0.1412,-0.2383,-0.2651,-0.3453,-0.4461,-0.4259,-0.3823,-0.3288,-0.2686,-0.2084,-0.1547,-0.121,-0.1109,-0.1109,-0.1109,-0.1109,-0.1087,-0.1056,-0.1021,-0.0971,-0.0932,-0.0897,-0.0897,-0.0897,-0.0897,-0.0897,-0.0897,-0.0897,-0.0897,-0.0897,-0.0897,-0.0897,-0.0897,-0.0897,-0.0897,-0.0897,-0.0897,-0.0897,-0.0897,-0.0897,-0.0897,-0.0897,-0.0897,-0.0869,-0.0869,-0.0729,-0.0449,-0.0308,-0.0168,0.0,0.0,0.0,0.0,0.0224,0.0364,0.0252,0.0,0.0,0.0,0.0,0.0,0.0,0.0,0.0,0.0,0.0,0.0,0.0,0.0,0.0,0.0,0.0,0.0,0.0,0.0,0.0,0.0,0.0,0.0,0.014,0.014,0.0168,0.0,0.0,0.0,0.0056,0.0028,0.0,0.0,0.0,0.0,0.0,0.0,0.0,0.0,0.0,0.0,0.0,0.0,0.0217,0.0264,0.0283,0.0248,0.0189,0.0,0.0,-0.1142,-0.1082,-0.1082,-0.1102,-0.1045,-0.0707,-0.054,-0.0539,-0.0942,-0.1479,-0.2047,-0.2681,-0.3384,-0.4123,-0.4154,-0.399,-0.3591,-0.3157,-0.2654,-0.195,-0.1512,-0.1344,-0.131,-0.1109,-0.1104,-0.1085,-0.1053,-0.098,-0.0993,-0.0928,-0.0897,-0.0897,-0.0897,-0.0897,-0.0897,-0.0897,-0.0897,-0.0897,-0.0897,-0.0897,-0.0897,-0.0897,-0.0897,-0.0897,-0.0897,-0.0897,-0.0897,-0.0897,-0.0897,-0.0897,-0.0897,-0.0897,-0.0841,-0.0729,-0.0561,-0.0393,-0.0224,-0.0112,0.0,0.0,0.0,0.0,0.0561,0.0813,0.0756,0.0672,0.0,0.0,0.0,0.084,0.0784,0.084,0.0812,0.07,0.0,0.0,0.0,0.0,0.0,0.0,0.0,0.0,0.0,0.0,0.0,0.0,0.0084,0.0168,0.0252,0.0252,0.0364,0.0421,0.0308,0.0224,0.0196,0.0168,0.0056,0.0,0.0,0.0,0.0,0.0,0.0,0.0084,0.0168,0.0196,0.0,0.0278,0.033,0.0406,0.0449,0.0438,0.0396,0.0331,0.0251,-0.1127,-0.1087,-0.1087,-0.1082,-0.1076,-0.0842,-0.0641,-0.0506,-0.0505,-0.0875,-0.131,-0.1612,-0.2348,-0.3449,-0.3651,-0.3587,-0.3589,-0.3525,-0.3224,-0.2686,-0.2114,-0.1779,-0.1712,-0.1376,-0.1164,-0.1037,-0.1005,-0.0964,-0.0931,-0.0907,-0.0897,-0.0897,-0.0897,-0.0897,-0.0869,-0.0869,-0.0897,-0.0869,-0.0897,-0.0897,-0.0897,-0.0897,-0.0897,-0.0897,-0.0897,-0.0897,-0.0897,-0.0897,-0.0897,-0.0897,-0.0897,-0.0841,-0.0757,-0.0589,-0.0421,-0.0252,0.0,0.0,0.0,0.0,0.0,0.0533,0.0869,0.1176,0.1343,0.1343,0.1371,0.1399,0.1427,0.1399,0.1371,0.1455,0.1484,0.1371,0.1231,0.0952,0.0701,0.0,0.0,0.0,0.0,0.0,0.0,0.0,0.0,0.0,0.0,0.0224,0.0393,0.0477,0.0728,0.0728,0.0477,0.0393,0.0393,0.042,0.0392,0.0252,0.0,0.0,0.0028,0.0056,0.0112,0.0196,0.028,0.0336,0.0364,0.0364,0.0444,0.0549,0.0596,0.0608,0.0623,0.0601,0.0477,-0.1109,-0.1109,-0.1109,-0.1109,-0.1076,-0.0876,-0.0742,-0.0607,-0.0438,-0.0505,-0.0774,-0.1043,-0.1713,-0.2748,-0.3015,-0.3284,-0.3487,-0.3725,-0.3625,-0.3288,-0.285,-0.238,-0.2047,-0.1745,-0.1353,-0.116,-0.1017,-0.0943,-0.0876,-0.0897,-0.0897,-0.0897,-0.0897,-0.0869,-0.0841,-0.0841,-0.0869,-0.0813,-0.0841,-0.0869,-0.0869,-0.0897,-0.0897,-0.0897,-0.0897,-0.0897,-0.0897,-0.0897,-0.0897,-0.0869,-0.0841,-0.0785,-0.0673,-0.0477,-0.0308,-0.0196,0.0,0.0,0.0,0.0,0.0,0.0757,0.1261,0.1567,0.2181,0.2181,0.2041,0.2069,0.2124,0.2096,0.1874,0.1846,0.1818,0.1706,0.1539,0.1315,0.1148,0.0,0.0,0.0,0.0,0.0,0.0,0.0,0.0,0.0,0.0,0.0589,0.0701,0.0897,0.1064,0.1204,0.1064,0.0952,0.1036,0.098,0.0868,0.0672,0.0532,0.0308,0.0196,0.0196,0.0224,0.0364,0.0449,0.0505,0.0505,0.0533,0.0617,0.0751,0.0771,0.076,0.0801,0.0814,0.0683,-0.1109,-0.1109,-0.1109,-0.1109,-0.1076,-0.0909,-0.0809,-0.0776,-0.0607,-0.0438,-0.0404,-0.0807,-0.1377,-0.2047,-0.2714,-0.3117,-0.352,-0.3959,-0.3992,-0.3892,-0.3518,-0.3084,-0.2649,-0.2211,-0.1739,-0.1234,-0.0934,-0.0844,-0.0758,-0.0813,-0.0841,-0.0869,-0.0869,-0.0841,-0.0785,-0.0813,-0.0841,-0.0785,-0.0785,-0.0813,-0.0841,-0.0897,-0.0897,-0.0897,-0.0869,-0.0869,-0.0869,-0.0869,-0.0869,-0.0813,-0.0729,-0.0645,-0.0561,-0.0364,-0.0252,-0.014,0.0,0.0,0.0,0.0,0.0,0.0981,0.1539,0.2097,0.2655,0.288,0.274,0.2713,0.2766,0.2683,0.246,0.232,0.2265,0.2181,0.2014,0.1789,0.1679,0.1539,0.0924,0.0308,0.0448,0.07,0.0,0.0,0.0,0.0,0.0589,0.0953,0.1262,0.1485,0.168,0.1903,0.1958,0.1874,0.1761,0.1649,0.1538,0.1342,0.1175,0.0728,0.0393,0.0336,0.0393,0.0589,0.0645,0.0701,0.0729,0.0757,0.0841,0.0897,0.0863,0.0827,0.0847,0.0861,0.0849,-0.1109,-0.1109,-0.1109,-0.1109,-0.1109,-0.1043,-0.0942,-0.0809,-0.0742,-0.0573,-0.0405,-0.0404,-0.0774,-0.1311,-0.198,-0.2581,-0.3251,-0.3923,-0.4392,-0.4389,-0.4023,-0.3723,-0.3207,-0.2484,-0.2107,-0.1521,-0.0886,-0.054,-0.0589,-0.0701,-0.0757,-0.0729,-0.0841,-0.0869,-0.0869,-0.0869,-0.0785,-0.0701,-0.0645,-0.0673,-0.0645,-0.0701,-0.0869,-0.0841,-0.0785,-0.0841,-0.0841,-0.0785,-0.0729,-0.0673,-0.0589,-0.0449,-0.0336,-0.0252,-0.0168,0.0,0.0,0.0,0.0,0.0,0.0,0.1372,0.1902,0.2294,0.2854,0.336,0.3276,0.3276,0.3302,0.3302,0.3163,0.3163,0.3107,0.2965,0.2798,0.2543,0.2348,0.2069,0.1651,0.1398,0.137,0.1455,0.0,0.0,0.0,0.1343,0.1483,0.1792,0.182,0.2045,0.2324,0.2545,0.2768,0.2683,0.2571,0.2458,0.2319,0.2124,0.1817,0.1399,0.0952,0.0477,0.0533,0.1064,0.098,0.0896,0.0925,0.1065,0.0926,0.0926,0.0897,0.0865,0.0887,0.0882,0.087]}]]